[[{"header":{"parameterUnit":"m.s-1","parameterCategory":1,"la1":31.0,"la2":29.5877,"lo1":-88.7671,"lo2":-86.6584,"dy":0.0162,"dx":0.0185,"nx":115,"ny":88,"refTime":"2024-10-10T18:00:00:Z","depth":0,"parameterNumber":2,"parameterNumberName":"U-component_of_WINDS"},"data":[0.0,0.0,0.0,0.0,0.0,0.0,0.0,0.0,0.0,0.0,0.0,0.0,0.0,0.0,0.0,0.0,0.0,0.0,0.0,0.0,0.0,0.0,0.0,0.0,0.0,0.0,0.0,0.0,0.0,0.0,0.0,0.0,0.0,0.0,0.0,0.0,0.0,0.0,0.0,0.0,0.0,0.0,0.0,0.0,0.0,0.0,0.0,0.0,0.0,0.0,0.0,0.0,0.0,0.0,0.0,0.0,0.0,0.0,0.0,0.0,0.0,0.0,0.0,0.0,0.0,0.0,0.0,0.0,0.0,0.0,0.0,0.0,0.0,0.0,0.0,0.0,0.0,0.0,0.0,0.0,0.0,0.0,0.0,0.0,0.0,0.0,0.0,0.0,0.0,0.0,0.0,0.0,0.0,0.0,0.0,0.0,0.0,0.0,0.0,0.0,0.0,0.0,0.0,0.0,0.0,0.0,0.0,0.0,0.0,0.0,0.0,0.0,0.0,0.0,0.0,0.0,0.0,0.0,0.0,0.0,0.0,0.0,0.0,0.0,0.0,0.0,0.0,0.0,0.0,0.0,0.0,0.0,0.0,0.0,0.0,0.0,0.0,0.0,0.0,0.0,0.0,0.0,0.0,0.0,0.0,0.0,0.0,0.0,0.0,0.0,0.0,0.0,0.0,0.0,0.0,0.0,0.0,0.0,0.0,0.0,0.0,0.0,0.0,0.0,0.0,0.0,0.0,0.0,0.0,0.0,0.0,0.0,0.0,0.0,0.0,0.0,0.0,0.0,0.0,0.0,0.0,0.0,0.0,0.0,0.0,0.0,0.0,0.0,0.0,0.0,0.0,0.0,0.0,0.0,0.0,0.0,0.0,0.0,0.0,0.0,0.0,0.0,0.0,0.0,0.0,0.0,0.0,0.0,0.0,0.0,0.0,0.0,0.0,0.0,0.0,0.0,0.0,0.0,0.0,0.0,0.0,0.0,0.0,0.0,0.0,0.0,0.0,0.0,0.0,0.0,0.0,0.0,0.0,0.0,0.0,0.0,0.0,0.0,0.0,0.0,0.0,0.0,0.0,0.0,0.0,0.0,0.0,0.0,0.0,0.0,0.0,0.0,0.0,0.0,0.0,0.0,0.0,0.0,0.0,0.0,0.0,0.0,0.0,0.0,0.0,0.0,0.0,0.0,0.0,0.0,0.0,0.0,0.0,0.0,0.0,0.0,0.0,0.0,0.0,0.0,0.0,0.0,0.0,0.0,0.0,0.0,0.0,0.0,0.0,0.0,0.0,0.0,0.0,0.0,0.0,0.0,0.0,0.0,0.0,0.0,0.0,0.0,0.0,0.0,0.0,0.0,0.0,0.0,0.0,0.0,0.0,0.0,0.0,0.0,0.0,0.0,0.0,0.0,0.0,0.0,0.0,0.0,0.0,0.0,0.0,0.0,0.0,0.0,0.0,0.0,0.0,0.0,0.0,0.0,0.0,0.0,0.0,0.0,0.0,0.0,0.0,0.0,0.0,0.0,0.0,0.0,0.0,0.0,0.0,0.0,0.0,0.0,0.0,0.0,0.0,0.0,0.0,0.0,0.0,0.0,0.0,0.0,0.0,0.0,0.0,0.0,0.0,0.0,0.0,0.0,0.0,0.0,0.0,0.0,0.0,0.0,0.0,0.0,0.0,0.0,0.0,0.0,0.0,0.0,0.0,0.0,0.0,0.0,0.0,0.0,0.0,0.0,0.0,0.0,0.0,0.0,0.0,0.0,0.0,0.0,0.0,0.0,0.0,0.0,0.0,0.0,0.0,0.0,0.0,0.0,0.0,0.0,0.0,0.0,0.0,0.0,0.0,0.0,0.0,0.0,0.0,0.0,0.0,0.0,0.0,0.0,0.0,0.0,0.0,0.0,0.0,0.0,0.0,0.0,0.0,0.0,0.0,0.0,0.0,0.0,0.0,0.0,0.0,0.0,0.0,0.0,0.0,0.0,0.0,0.0,0.0,0.0,0.0,0.0,0.0,0.0,0.0,0.0,0.0,0.0,0.0,0.0,0.0,0.0,0.0,0.0,0.0,0.0,0.0,0.0,0.0,0.0,0.0,0.0,0.0,0.0,0.0,0.0,0.0,0.0,0.0,0.0,0.0,0.0,0.0,0.0,0.0,0.0,0.0,0.0,0.0,0.0,0.0,0.0,0.0,0.0,0.0,0.0,0.0,0.0,0.0,0.0,0.0,0.0,0.0,0.0,0.0,0.0,0.0,0.0,0.0,0.0,0.0,0.0,0.0,0.0,0.0,0.0,0.0,0.0,0.0,0.0,0.0,0.0,0.0,0.0,0.0,0.0,0.0,0.0,0.0,0.0,0.0,0.0,0.0,0.0,0.0,0.0,0.0,0.0,0.0,0.0,0.0,0.0,0.0,0.0,0.0,0.0,0.0,0.0,0.0,0.0,0.0,0.0,0.0,0.0,0.0,0.0,0.0,0.0,0.0,0.0,0.0,0.0,0.0,0.0,0.0,0.0,0.0,0.0,0.0,0.0,0.0,0.0,0.0,0.0,0.0,0.0,0.0,0.0,0.0,0.0,0.0,0.0,0.0,0.0,0.0,0.0,0.0,0.0,0.0,0.0,0.0,0.0,0.0,0.0,0.0,0.0,0.0,0.0,0.0,0.0,0.0,0.0,0.0,0.0,0.0,0.0,0.0,0.0,0.0,0.0,0.0,0.0,0.0,0.0,0.0,0.0,0.0,0.0,0.0,0.0,0.0,0.0,0.0,0.0,0.0,0.0,0.0,0.0,0.0,0.0,0.0,0.0,0.0,0.0,0.0,0.0,0.0,0.0,0.0,0.0,0.0,0.0,0.0,0.0,0.0,0.0,0.0,0.0,0.0,0.0,0.0,0.0,0.0,0.0,0.0,0.0,0.0,0.0,0.0,0.0,0.0,0.0,0.0,0.0,0.0,0.0,0.0,0.0,0.0,0.0,0.0,0.0,0.0,0.0,0.0,0.0,0.0,0.0,0.0,0.0,0.0,0.0,0.0,0.0,0.0,0.0,0.0,0.0,0.0,0.0,0.0,0.0,0.0,0.0,0.0,0.0,0.0,0.0,0.0,0.0,0.0,0.0,0.0,0.0,0.0,0.0,0.0,0.0,0.0,0.0,0.0,0.0,0.0,0.0,0.0,0.0,0.0,0.0,0.0,0.0,0.0,0.0,0.0,0.0,0.0,0.0,0.0,0.0,0.0,0.0,0.0,0.0,0.0,0.0,0.0,0.0,0.0,0.0,0.0,0.0,0.0,0.0,0.0,0.0,0.0,0.0,0.0,0.0,0.0,0.0,0.0,0.0,0.0,0.0,0.0,0.0,0.0,0.0,0.0,0.0,0.0,0.0,0.0,0.0,0.0,0.0,0.0,0.0,0.0,0.0,0.0,0.0,0.0,0.0,0.0,0.0,0.0,0.0,0.0,0.0,0.0,0.0,0.0,0.0,0.0,0.0,0.0,0.0,0.0,0.0,0.0,0.0,0.0,0.0,0.0,0.0,0.0,0.0,0.0,0.0,0.0,0.0,0.0,0.0,0.0,0.0,0.0,0.0,0.0,0.0,0.0,0.0,0.0,0.0,0.0,0.0,0.0,0.0,0.0,0.0,0.0,0.0,0.0,0.0,0.0,0.0,0.0,0.0,0.0,0.0,0.0,0.0,0.0,0.0,0.0,0.0,0.0,0.0,0.0,0.0,0.0,0.0,0.0,0.0,0.0,0.0,0.0,0.0,0.0,0.0,0.0,0.0,0.0,0.0,0.0,0.0,0.0,0.0,0.0,0.0,0.0,0.0,0.0,0.0,0.0,0.0,0.0,0.0,0.0,0.0,0.0,0.0,0.0,0.0,0.0,0.0,0.0,0.0,0.0,0.0,0.0,0.0,0.0,0.0,0.0,0.0,0.0,0.0,0.0,0.0,0.0,0.0,0.0,0.0,0.0,0.0,0.0,0.0,0.0,0.0,0.0,0.0,0.0,0.0,0.0,0.0,0.0,0.0,0.0,0.0,0.0,0.0,0.0,0.0,0.0,0.0,0.0,0.0,0.0,0.0,0.0,0.0,0.0,0.0,0.0,0.0,0.0,0.0,0.0,0.0,0.0,0.0,0.0,0.0,0.0,0.0,0.0,0.0,0.0,0.0,0.0,0.0,0.0,0.0,0.0,0.0,0.0,0.0,0.0,0.0,0.0,0.0,0.0,0.0,0.0,0.0,0.0,0.0,0.0,0.0,0.0,0.0,0.0,0.0,-1.404,0.0,0.0,0.0,0.0,0.0,0.0,0.0,0.0,0.0,0.0,0.0,0.0,0.0,0.0,0.0,0.0,0.0,0.0,0.0,0.0,0.0,0.0,0.0,0.0,0.0,0.0,0.0,0.0,0.0,0.0,0.0,0.0,0.0,0.0,0.0,0.0,0.0,0.0,0.0,0.0,0.0,0.0,0.0,0.0,0.0,0.0,0.0,0.0,0.0,0.0,0.0,0.0,0.0,0.0,0.0,0.0,0.0,0.0,0.0,0.0,0.0,0.0,0.0,0.0,0.0,0.0,0.0,0.0,0.0,0.0,0.0,0.0,0.0,0.0,0.0,0.0,0.0,0.0,0.0,0.0,0.0,0.0,0.0,0.0,0.0,0.0,0.0,0.0,0.0,0.0,0.0,0.0,0.0,0.0,0.0,0.0,0.0,0.0,0.0,0.0,0.0,0.0,0.0,0.0,0.0,0.0,0.0,0.0,0.0,0.0,-1.4957,-1.4695,-1.4427,-1.4172,-1.3891,0.0,0.0,0.0,0.0,0.0,0.0,0.0,0.0,0.0,0.0,0.0,0.0,0.0,0.0,0.0,0.0,0.0,0.0,0.0,0.0,0.0,0.0,0.0,0.0,0.0,0.0,0.0,0.0,0.0,0.0,0.0,0.0,0.0,0.0,0.0,0.0,0.0,0.0,0.0,0.0,0.0,0.0,0.0,0.0,0.0,0.0,0.0,0.0,0.0,0.0,0.0,0.0,0.0,0.0,0.0,0.0,0.0,0.0,0.0,0.0,0.0,0.0,0.0,0.0,0.0,0.0,0.0,0.0,0.0,0.0,0.0,0.0,0.0,0.0,0.0,0.0,0.0,0.0,0.0,0.0,0.0,0.0,0.0,0.0,0.0,0.0,0.0,0.0,0.0,0.0,0.0,0.0,0.0,0.0,0.0,0.0,0.0,0.0,0.0,0.0,0.0,0.0,0.0,0.0,0.0,0.0,0.0,0.0,0.0,0.0,0.0,0.0,-1.4485,-1.4118,-1.4001,0.0,0.0,0.0,0.0,0.0,0.0,0.0,0.0,0.0,0.0,0.0,0.0,0.0,0.0,0.0,0.0,0.0,0.0,0.0,0.0,0.0,0.0,0.0,0.0,0.0,0.0,0.0,0.0,0.0,0.0,0.0,0.0,0.0,0.0,0.0,0.0,0.0,0.0,0.0,0.0,0.0,0.0,0.0,0.0,0.0,0.0,0.0,0.0,0.0,0.0,0.0,0.0,0.0,0.0,0.0,0.0,0.0,0.0,0.0,0.0,0.0,0.0,0.0,0.0,0.0,0.0,0.0,0.0,0.0,0.0,0.0,0.0,0.0,0.0,0.0,0.0,0.0,0.0,0.0,0.0,0.0,0.0,0.0,0.0,0.0,0.0,0.0,0.0,0.0,0.0,0.0,0.0,0.0,0.0,0.0,0.0,0.0,0.0,0.0,0.0,0.0,0.0,0.0,0.0,0.0,0.0,0.0,0.0,0.0,0.0,-1.4629,-1.6186,-1.563,0.0,-1.4589,0.0,0.0,0.0,0.0,0.0,0.0,0.0,0.0,0.0,0.0,0.0,0.0,0.0,0.0,0.0,0.0,0.0,0.0,0.0,0.0,0.0,0.0,0.0,0.0,0.0,0.0,0.0,0.0,0.0,0.0,0.0,0.0,0.0,0.0,0.0,0.0,0.0,0.0,0.0,0.0,0.0,0.0,0.0,0.0,0.0,0.0,0.0,0.0,0.0,0.0,0.0,0.0,0.0,0.0,0.0,0.0,0.0,0.0,0.0,0.0,0.0,0.0,0.0,0.0,0.0,0.0,0.0,0.0,0.0,0.0,0.0,0.0,0.0,0.0,0.0,0.0,0.0,0.0,0.0,0.0,0.0,0.0,0.0,0.0,0.0,0.0,0.0,0.0,0.0,0.0,0.0,0.0,0.0,0.0,0.0,0.0,0.0,0.0,0.0,0.0,0.0,0.0,0.0,0.0,0.0,0.0,0.0,0.0,0.0,0.0,-1.5152,-1.584,-1.5296,-1.4864,0.0,0.0,0.0,0.0,0.0,0.0,0.0,0.0,0.0,0.0,0.0,0.0,0.0,0.0,0.0,0.0,0.0,0.0,0.0,0.0,0.0,0.0,0.0,0.0,0.0,0.0,0.0,0.0,0.0,0.0,0.0,0.0,0.0,0.0,0.0,0.0,0.0,0.0,0.0,0.0,0.0,0.0,0.0,0.0,0.0,0.0,0.0,0.0,0.0,0.0,0.0,0.0,0.0,0.0,0.0,0.0,0.0,0.0,0.0,0.0,0.0,0.0,0.0,0.0,0.0,0.0,0.0,0.0,0.0,0.0,0.0,0.0,0.0,0.0,0.0,0.0,0.0,0.0,0.0,0.0,0.0,0.0,0.0,0.0,0.0,0.0,0.0,0.0,0.0,0.0,0.0,0.0,0.0,0.0,0.0,0.0,0.0,0.0,0.0,0.0,0.0,0.0,0.0,0.0,0.0,0.0,0.0,0.0,0.0,0.0,-1.4977,-1.5395,-1.5696,-1.5317,-1.4812,-1.4158,0.0,0.0,0.0,0.0,0.0,0.0,0.0,0.0,0.0,0.0,0.0,0.0,0.0,0.0,0.0,0.0,0.0,0.0,0.0,0.0,0.0,0.0,0.0,0.0,0.0,0.0,0.0,0.0,0.0,0.0,0.0,0.0,0.0,0.0,0.0,0.0,0.0,0.0,0.0,0.0,0.0,0.0,0.0,0.0,0.0,0.0,0.0,0.0,0.0,0.0,0.0,0.0,0.0,0.0,0.0,0.0,0.0,0.0,0.0,0.0,0.0,0.0,0.0,0.0,0.0,0.0,0.0,0.0,0.0,0.0,0.0,0.0,0.0,0.0,0.0,0.0,0.0,0.0,0.0,0.0,0.0,0.0,0.0,0.0,0.0,0.0,0.0,0.0,0.0,0.0,0.0,0.0,0.0,0.0,0.0,0.0,0.0,0.0,0.0,0.0,0.0,0.0,0.0,0.0,0.0,0.0,0.0,0.0,0.0,-1.512,-1.5186,-1.6323,-1.6323,-1.5265,0.0,0.0,0.0,0.0,0.0,0.0,0.0,0.0,0.0,0.0,0.0,0.0,0.0,0.0,0.0,0.0,0.0,0.0,0.0,0.0,0.0,0.0,0.0,0.0,0.0,0.0,0.0,0.0,0.0,0.0,0.0,0.0,0.0,0.0,0.0,0.0,0.0,0.0,0.0,0.0,0.0,0.0,0.0,0.0,0.0,0.0,0.0,0.0,0.0,0.0,0.0,0.0,0.0,0.0,0.0,0.0,0.0,0.0,0.0,0.0,0.0,0.0,0.0,0.0,0.0,0.0,0.0,0.0,0.0,0.0,0.0,0.0,0.0,0.0,0.0,0.0,0.0,0.0,0.0,0.0,0.0,0.0,0.0,0.0,0.0,0.0,0.0,0.0,0.0,0.0,0.0,0.0,0.0,0.0,0.0,0.0,0.0,0.0,0.0,0.0,0.0,0.0,0.0,0.0,0.0,0.0,0.0,0.0,0.0,-1.3201,-1.3792,-1.5204,-1.7303,-1.533,-1.4275,0.0,0.0,0.0,0.0,0.0,0.0,0.0,0.0,0.0,0.0,0.0,0.0,0.0,0.0,0.0,0.0,0.0,0.0,0.0,0.0,0.0,0.0,0.0,0.0,0.0,0.0,0.0,0.0,0.0,0.0,0.0,0.0,0.0,0.0,0.0,0.0,0.0,0.0,0.0,0.0,0.0,0.0,0.0,0.0,0.0,0.0,0.0,0.0,0.0,0.0,0.0,0.0,0.0,0.0,0.0,0.0,0.0,0.0,0.0,0.0,0.0,0.0,0.0,0.0,0.0,0.0,0.0,0.0,0.0,0.0,0.0,0.0,0.0,0.0,0.0,0.0,0.0,0.0,0.0,0.0,0.0,0.0,0.0,0.0,0.0,0.0,0.0,0.0,0.0,0.0,0.0,0.0,0.0,0.0,0.0,0.0,0.0,0.0,0.0,0.0,0.0,0.0,0.0,0.0,0.0,0.0,0.0,0.0,0.0,-1.2411,0.0,-1.5569,0.0,-1.4868,-1.3741,0.0,0.0,0.0,0.0,0.0,0.0,0.0,0.0,0.0,0.0,0.0,0.0,0.0,0.0,0.0,0.0,0.0,0.0,0.0,0.0,0.0,0.0,0.0,0.0,0.0,0.0,0.0,0.0,0.0,0.0,0.0,0.0,0.0,0.0,0.0,0.0,0.0,0.0,0.0,0.0,0.0,0.0,0.0,0.0,0.0,0.0,0.0,0.0,0.0,0.0,0.0,0.0,0.0,0.0,0.0,0.0,0.0,0.0,0.0,0.0,0.0,0.0,0.0,0.0,0.0,0.0,0.0,0.0,0.0,0.0,0.0,0.0,0.0,0.0,0.0,0.0,0.0,0.0,0.0,0.0,0.0,0.0,0.0,0.0,0.0,0.0,0.0,0.0,0.0,0.0,0.0,0.0,0.0,0.0,0.0,0.0,0.0,0.0,0.0,0.0,0.0,0.0,0.0,0.0,0.0,0.0,0.0,0.0,-1.1249,-1.4037,-1.5985,-1.6209,-1.473,-1.5038,-1.3722,0.0,0.0,0.0,0.0,0.0,0.0,0.0,0.0,0.0,0.0,0.0,0.0,0.0,0.0,0.0,0.0,0.0,0.0,0.0,0.0,0.0,0.0,0.0,0.0,0.0,0.0,0.0,0.0,0.0,0.0,0.0,0.0,0.0,0.0,0.0,0.0,0.0,0.0,0.0,0.0,0.0,0.0,0.0,0.0,0.0,0.0,0.0,0.0,0.0,0.0,0.0,0.0,0.0,0.0,0.0,0.0,0.0,0.0,0.0,0.0,0.0,0.0,0.0,0.0,0.0,0.0,0.0,0.0,0.0,0.0,0.0,0.0,0.0,0.0,0.0,0.0,0.0,0.0,0.0,0.0,0.0,0.0,0.0,0.0,0.0,0.0,0.0,0.0,0.0,0.0,0.0,0.0,0.0,0.0,0.0,0.0,0.0,0.0,0.0,0.0,0.0,0.0,0.0,0.0,0.0,0.0,0.0,0.0,0.0,-1.2144,-1.3587,-1.5073,-1.6366,-1.3906,-1.3082,0.0,0.0,0.0,0.0,0.0,0.0,0.0,0.0,0.0,0.0,0.0,0.0,0.0,0.0,0.0,0.0,0.0,0.0,0.0,0.0,0.0,0.0,0.0,0.0,0.0,0.0,0.0,0.0,0.0,0.0,0.0,0.0,0.0,0.0,0.0,0.0,0.0,0.0,0.0,0.0,0.0,0.0,0.0,0.0,0.0,0.0,0.0,0.0,0.0,0.0,0.0,0.0,0.0,0.0,0.0,0.0,0.0,0.0,0.0,0.0,0.0,0.0,0.0,0.0,0.0,0.0,0.0,0.0,0.0,0.0,0.0,0.0,0.0,0.0,0.0,0.0,0.0,0.0,0.0,0.0,0.0,0.0,0.0,0.0,0.0,0.0,0.0,0.0,0.0,0.0,0.0,0.0,0.0,0.0,0.0,0.0,0.0,0.0,0.0,0.0,0.0,0.0,0.0,0.0,0.0,0.0,0.0,0.0,0.0,-1.3003,-1.4368,-1.5715,-1.6915,-1.4156,-1.3192,-1.429,0.0,0.0,0.0,0.0,0.0,0.0,0.0,0.0,0.0,0.0,0.0,0.0,0.0,0.0,0.0,0.0,0.0,0.0,0.0,0.0,0.0,0.0,0.0,0.0,0.0,0.0,0.0,0.0,0.0,0.0,0.0,0.0,0.0,0.0,0.0,0.0,0.0,0.0,0.0,0.0,0.0,0.0,0.0,0.0,0.0,0.0,0.0,0.0,0.0,0.0,0.0,0.0,0.0,0.0,0.0,0.0,0.0,0.0,0.0,0.0,0.0,0.0,0.0,0.0,0.0,0.0,0.0,0.0,0.0,0.0,0.0,0.0,0.0,0.0,0.0,0.0,0.0,0.0,0.0,0.0,0.0,0.0,0.0,0.0,0.0,0.0,0.0,0.0,0.0,0.0,0.0,0.0,0.0,0.0,0.0,0.0,0.0,0.0,0.0,0.0,0.0,0.0,0.0,0.0,0.0,0.0,0.0,0.0,-1.5894,-1.7768,-1.7972,-1.6502,-1.5556,-1.402,0.0,0.0,0.0,0.0,0.0,0.0,0.0,0.0,0.0,0.0,0.0,0.0,0.0,0.0,0.0,0.0,0.0,0.0,0.0,0.0,0.0,0.0,0.0,0.0,0.0,0.0,0.0,0.0,0.0,0.0,0.0,0.0,0.0,0.0,0.0,0.0,0.0,0.0,0.0,0.0,0.0,0.0,0.0,0.0,0.0,0.0,0.0,0.0,0.0,0.0,0.0,0.0,0.0,0.0,0.0,0.0,0.0,0.0,0.0,0.0,0.0,0.0,0.0,0.0,0.0,0.0,0.0,0.0,0.0,0.0,0.0,0.0,0.0,0.0,0.0,0.0,0.0,0.0,0.0,0.0,0.0,0.0,0.0,0.0,0.0,0.0,0.0,0.0,0.0,0.0,0.0,0.0,0.0,0.0,0.0,0.0,0.0,0.0,0.0,0.0,0.0,0.0,0.0,0.0,0.0,0.0,0.0,0.0,0.0,-1.7403,-1.9147,-1.9674,-1.8783,-1.653,-1.5175,0.0,0.0,0.0,0.0,0.0,0.0,0.0,0.0,0.0,0.0,0.0,0.0,0.0,0.0,0.0,0.0,0.0,0.0,0.0,0.0,0.0,0.0,0.0,0.0,0.0,0.0,0.0,0.0,0.0,0.0,0.0,0.0,0.0,0.0,0.0,0.0,0.0,0.0,0.0,0.0,0.0,0.0,0.0,0.0,0.0,0.0,0.0,0.0,0.0,0.0,0.0,0.0,0.0,0.0,0.0,0.0,0.0,0.0,0.0,0.0,0.0,0.0,0.0,0.0,0.0,0.0,0.0,0.0,0.0,0.0,0.0,0.0,0.0,0.0,0.0,0.0,0.0,0.0,0.0,0.0,0.0,0.0,0.0,0.0,0.0,0.0,0.0,0.0,0.0,0.0,0.0,0.0,0.0,0.0,0.0,0.0,0.0,0.0,0.0,0.0,0.0,0.0,0.0,0.0,0.0,0.0,0.0,0.0,-1.6802,-1.8488,-2.0158,-2.0846,-2.0391,-1.8129,-1.6364,0.0,0.0,0.0,0.0,0.0,0.0,0.0,0.0,0.0,0.0,0.0,0.0,0.0,0.0,0.0,0.0,0.0,0.0,0.0,0.0,0.0,0.0,0.0,0.0,0.0,0.0,0.0,0.0,0.0,0.0,0.0,0.0,0.0,0.0,0.0,0.0,0.0,0.0,0.0,0.0,0.0,0.0,0.0,0.0,0.0,0.0,0.0,0.0,0.0,0.0,0.0,0.0,0.0,0.0,0.0,0.0,0.0,0.0,0.0,0.0,0.0,0.0,0.0,0.0,0.0,0.0,0.0,0.0,0.0,0.0,0.0,0.0,0.0,0.0,0.0,0.0,0.0,0.0,0.0,0.0,0.0,0.0,0.0,0.0,0.0,0.0,0.0,0.0,0.0,0.0,0.0,0.0,0.0,0.0,0.0,0.0,0.0,0.0,0.0,0.0,0.0,0.0,0.0,0.0,0.0,0.0,0.0,0.0,-1.7616,-1.921,-2.0901,-2.166,-2.1331,-1.9877,-1.7618,0.0,0.0,0.0,0.0,0.0,0.0,0.0,0.0,0.0,0.0,0.0,0.0,0.0,0.0,0.0,0.0,0.0,0.0,0.0,0.0,0.0,0.0,0.0,0.0,0.0,0.0,0.0,0.0,0.0,0.0,0.0,0.0,0.0,0.0,0.0,0.0,0.0,0.0,0.0,0.0,0.0,0.0,0.0,0.0,0.0,0.0,0.0,0.0,0.0,0.0,0.0,0.0,0.0,0.0,0.0,0.0,0.0,0.0,0.0,0.0,0.0,0.0,0.0,0.0,0.0,0.0,0.0,0.0,0.0,0.0,0.0,0.0,0.0,0.0,0.0,0.0,0.0,0.0,0.0,0.0,0.0,0.0,0.0,0.0,0.0,0.0,0.0,0.0,0.0,0.0,0.0,0.0,0.0,0.0,0.0,0.0,0.0,0.0,0.0,0.0,0.0,0.0,0.0,0.0,0.0,0.0,0.0,0.0,-1.83,-1.9511,-2.1321,-2.2067,-2.1635,-2.0446,-1.8589,0.0,0.0,0.0,0.0,0.0,0.0,0.0,0.0,0.0,0.0,0.0,0.0,0.0,0.0,0.0,0.0,0.0,0.0,0.0,0.0,0.0,0.0,0.0,0.0,0.0,0.0,0.0,0.0,0.0,0.0,0.0,0.0,0.0,0.0,0.0,0.0,0.0,0.0,0.0,0.0,0.0,0.0,0.0,0.0,0.0,0.0,0.0,0.0,-0.6769,0.0,0.0,0.0,0.0,0.0,0.0,0.0,0.0,0.0,0.0,0.0,0.0,0.0,0.0,0.0,0.0,0.0,0.0,0.0,0.0,0.0,0.0,0.0,0.0,0.0,0.0,0.0,0.0,0.0,0.0,0.0,0.0,0.0,0.0,0.0,0.0,0.0,0.0,0.0,0.0,0.0,0.0,0.0,0.0,0.0,0.0,0.0,0.0,0.0,0.0,0.0,0.0,0.0,0.0,0.0,0.0,0.0,0.0,0.0,-1.8817,-1.9845,-2.1417,-2.203,-2.1559,-2.0609,-1.8989,0.0,0.0,0.0,0.0,0.0,0.0,0.0,0.0,0.0,0.0,0.0,0.0,0.0,0.0,0.0,0.0,0.0,0.0,0.0,0.0,0.0,0.0,0.0,0.0,0.0,0.0,0.0,0.0,0.0,0.0,0.0,0.0,0.0,0.0,0.0,0.0,0.0,0.0,0.0,0.0,0.0,0.0,0.0,0.0,0.0,0.0,0.0,0.0,0.0,0.0,0.0,0.0,0.0,0.0,0.0,0.0,0.0,0.0,0.0,0.0,0.0,0.0,0.0,0.0,0.0,0.0,0.0,0.0,0.0,0.0,0.0,0.0,0.0,0.0,0.0,0.0,0.0,0.0,0.0,0.0,0.0,0.0,0.0,0.0,0.0,0.0,0.0,0.0,0.0,0.0,0.0,0.0,0.0,0.0,0.0,0.0,0.0,0.0,0.0,0.0,0.0,0.0,0.0,0.0,0.0,0.0,0.0,-1.7049,-1.9078,-2.0128,-2.1382,-2.1843,-2.1371,-2.0552,-1.9027,-1.6672,0.0,0.0,0.0,0.0,0.0,0.0,0.0,0.0,0.0,0.0,0.0,0.0,0.0,0.0,0.0,0.0,0.0,0.0,0.0,0.0,0.0,0.0,0.0,0.0,0.0,0.0,0.0,0.0,0.0,0.0,0.0,0.0,0.0,0.0,0.0,0.0,0.0,0.0,-0.6586,-0.7764,0.0,0.0,0.0,0.0,0.0,0.0,0.0,0.0,-0.7353,0.0,0.0,0.0,0.0,0.0,0.0,0.0,0.0,0.0,0.0,0.0,0.0,0.0,0.0,0.0,0.0,0.0,0.0,0.0,0.0,0.0,0.0,0.0,0.0,0.0,0.0,0.0,0.0,0.0,0.0,0.0,0.0,0.0,0.0,0.0,0.0,0.0,0.0,0.0,0.0,0.0,0.0,0.0,0.0,0.0,0.0,0.0,0.0,0.0,0.0,0.0,0.0,0.0,0.0,0.0,0.0,-1.6397,-1.7388,-1.8673,-2.0321,-2.1327,-2.1628,-2.114,-2.0292,-1.8771,-1.654,0.0,0.0,0.0,0.0,0.0,0.0,0.0,0.0,0.0,0.0,0.0,0.0,0.0,0.0,0.0,0.0,0.0,0.0,0.0,0.0,0.0,0.0,0.0,0.0,0.0,0.0,0.0,0.0,0.0,0.0,0.0,0.0,0.0,0.0,0.0,0.0,0.0,0.0,0.0,-0.8913,-0.9289,0.0,0.0,0.0,0.0,0.0,0.0,0.0,0.0,-0.7059,0.0,0.0,0.0,0.0,0.0,0.0,0.0,0.0,0.0,0.0,0.0,0.0,0.0,0.0,0.0,0.0,0.0,0.0,0.0,0.0,0.0,0.0,0.0,0.0,0.0,0.0,0.0,0.0,0.0,0.0,0.0,0.0,0.0,0.0,0.0,0.0,0.0,0.0,0.0,0.0,0.0,0.0,0.0,0.0,0.0,0.0,0.0,0.0,0.0,0.0,0.0,0.0,0.0,0.0,0.0,-1.587,-1.7595,-1.9075,-2.0354,-2.1093,-2.1228,-2.0731,-1.9189,-1.7502,0.0,0.0,0.0,0.0,0.0,0.0,0.0,0.0,0.0,0.0,0.0,0.0,0.0,0.0,0.0,0.0,0.0,0.0,0.0,0.0,0.0,0.0,0.0,0.0,0.0,0.0,0.0,0.0,0.0,0.0,0.0,0.0,0.0,0.0,0.0,0.0,0.0,0.0,0.0,0.0,-0.9019,-0.9524,-0.9663,0.0,0.0,0.0,0.0,0.0,0.0,-0.7888,-0.7425,0.0,0.0,0.0,0.0,0.0,0.0,0.0,0.0,0.0,0.0,0.0,0.0,0.0,0.0,0.0,0.0,0.0,0.0,0.0,0.0,0.0,0.0,0.0,0.0,0.0,0.0,0.0,0.0,0.0,0.0,0.0,0.0,0.0,0.0,0.0,0.0,0.0,0.0,0.0,0.0,0.0,0.0,0.0,0.0,0.0,0.0,0.0,0.0,0.0,0.0,0.0,0.0,0.0,0.0,0.0,-1.4997,-1.7409,-1.9199,-2.0255,-2.0741,-2.0752,-2.0276,-1.8329,-1.6552,0.0,0.0,0.0,0.0,0.0,0.0,0.0,0.0,0.0,0.0,0.0,0.0,0.0,0.0,0.0,0.0,0.0,0.0,0.0,0.0,0.0,0.0,0.0,0.0,0.0,0.0,0.0,0.0,0.0,0.0,0.0,0.0,0.0,0.0,0.0,0.0,0.0,0.0,0.0,0.0,0.0,-0.9795,-0.9863,-0.9504,0.0,0.0,0.0,0.0,-0.9035,-0.8685,0.0,0.0,0.0,0.0,0.0,0.0,0.0,0.0,0.0,0.0,0.0,0.0,0.0,0.0,0.0,0.0,0.0,0.0,0.0,0.0,0.0,0.0,0.0,0.0,0.0,0.0,0.0,0.0,0.0,0.0,0.0,0.0,0.0,0.0,0.0,0.0,0.0,0.0,0.0,0.0,0.0,0.0,0.0,0.0,0.0,0.0,0.0,0.0,0.0,0.0,0.0,0.0,0.0,0.0,0.0,0.0,-1.4935,-1.6469,-1.8081,-1.9793,-2.0276,-2.0296,-1.9876,-1.8785,-1.7232,0.0,0.0,0.0,0.0,0.0,0.0,0.0,0.0,0.0,0.0,0.0,0.0,0.0,0.0,0.0,0.0,0.0,0.0,0.0,0.0,0.0,0.0,0.0,0.0,0.0,0.0,0.0,0.0,0.0,0.0,0.0,0.0,0.0,0.0,0.0,0.0,0.0,0.0,0.0,0.0,0.0,-1.0601,-1.0513,-1.021,-1.0053,0.0,0.0,-0.9596,-1.0124,-1.001,0.0,0.0,0.0,0.0,0.0,0.0,0.0,0.0,0.0,0.0,0.0,0.0,0.0,0.0,0.0,0.0,0.0,0.0,0.0,0.0,0.0,0.0,0.0,0.0,0.0,0.0,0.0,0.0,0.0,0.0,0.0,0.0,0.0,0.0,0.0,0.0,0.0,0.0,0.0,0.0,0.0,0.0,0.0,0.0,0.0,0.0,0.0,0.0,0.0,0.0,0.0,0.0,0.0,0.0,0.0,-1.2772,-1.4966,-1.685,-1.8444,-1.9741,-1.999,-1.999,-1.9803,-1.7906,-1.6156,0.0,0.0,0.0,0.0,0.0,0.0,0.0,0.0,0.0,0.0,0.0,0.0,0.0,0.0,0.0,0.0,0.0,0.0,0.0,0.0,0.0,0.0,0.0,0.0,0.0,0.0,0.0,0.0,0.0,0.0,0.0,0.0,0.0,0.0,0.0,0.0,0.0,0.0,0.0,0.0,0.0,0.0,-1.0659,-1.0592,0.0,0.0,0.0,-1.0485,-1.0997,0.0,0.0,0.0,0.0,0.0,0.0,0.0,0.0,0.0,0.0,0.0,0.0,0.0,0.0,0.0,0.0,0.0,0.0,0.0,0.0,0.0,0.0,0.0,0.0,0.0,0.0,0.0,0.0,0.0,0.0,0.0,0.0,0.0,0.0,0.0,0.0,0.0,0.0,0.0,0.0,0.0,0.0,0.0,0.0,0.0,0.0,0.0,0.0,0.0,0.0,0.0,0.0,0.0,0.0,0.0,0.0,0.0,-1.4987,-1.7119,-1.8694,-1.9575,-1.9627,-1.9616,-1.9575,-1.7274,0.0,0.0,0.0,0.0,0.0,0.0,0.0,0.0,0.0,0.0,0.0,0.0,0.0,0.0,0.0,0.0,0.0,0.0,0.0,0.0,0.0,0.0,0.0,0.0,0.0,0.0,0.0,-0.5613,0.0,0.0,0.0,0.0,0.0,0.0,0.0,0.0,0.0,0.0,0.0,0.0,0.0,0.0,-1.0512,-1.1086,-1.1247,-1.1479,0.0,0.0,-1.1458,-1.183,-1.1443,-1.0697,0.0,0.0,0.0,0.0,0.0,0.0,0.0,0.0,0.0,0.0,0.0,0.0,0.0,0.0,0.0,0.0,0.0,0.0,0.0,0.0,0.0,0.0,0.0,0.0,0.0,0.0,0.0,0.0,0.0,0.0,0.0,0.0,0.0,0.0,0.0,0.0,0.0,0.0,0.0,0.0,0.0,0.0,0.0,0.0,0.0,0.0,0.0,0.0,0.0,0.0,0.0,0.0,0.0,0.0,0.0,-1.4987,-1.681,-1.8226,-1.9108,-1.916,-1.915,-1.9129,-1.7709,-1.6283,0.0,0.0,0.0,0.0,0.0,0.0,0.0,0.0,0.0,0.0,0.0,0.0,0.0,0.0,0.0,0.0,0.0,0.0,0.0,0.0,0.0,0.0,0.0,0.0,0.0,0.0,0.0,0.0,0.0,0.0,0.0,0.0,0.0,0.0,0.0,0.0,0.0,0.0,0.0,0.0,0.0,-1.1658,-1.2127,-1.2539,-1.2907,0.0,0.0,-1.2542,-1.2716,-1.2843,-1.2217,-1.0193,0.0,0.0,0.0,0.0,0.0,0.0,0.0,0.0,0.0,0.0,0.0,0.0,0.0,0.0,0.0,0.0,0.0,0.0,0.0,0.0,0.0,0.0,0.0,0.0,0.0,0.0,0.0,0.0,0.0,0.0,0.0,0.0,0.0,0.0,0.0,0.0,0.0,0.0,0.0,0.0,0.0,0.0,0.0,0.0,0.0,0.0,0.0,0.0,0.0,0.0,0.0,0.0,0.0,-1.3188,-1.4987,-1.6779,-1.8132,-1.9056,-1.9098,-1.9098,-1.9098,-1.773,-1.6366,0.0,0.0,0.0,0.0,0.0,0.0,0.0,0.0,0.0,0.0,0.0,0.0,0.0,0.0,0.0,0.0,0.0,0.0,0.0,0.0,0.0,0.0,0.0,0.0,0.0,0.0,0.0,0.0,-0.6905,-0.6756,-0.6077,0.0,0.0,0.0,0.0,0.0,0.0,0.0,0.0,0.0,0.0,-1.1723,-1.2555,-1.2968,0.0,0.0,-1.3528,-1.346,-1.3592,-1.303,-1.2235,-1.1127,-1.0154,0.0,0.0,0.0,0.0,0.0,0.0,0.0,0.0,0.0,0.0,0.0,0.0,0.0,0.0,0.0,0.0,0.0,0.0,0.0,0.0,0.0,0.0,0.0,0.0,0.0,0.0,0.0,0.0,0.0,0.0,0.0,0.0,0.0,0.0,0.0,0.0,0.0,0.0,0.0,0.0,0.0,0.0,0.0,0.0,0.0,0.0,0.0,0.0,0.0,0.0,0.0,0.0,-1.325,-1.5183,-1.6841,-1.8132,-1.9077,-1.9098,-1.9098,-1.9067,-1.7885,-1.6572,0.0,0.0,0.0,0.0,0.0,0.0,0.0,0.0,0.0,0.0,0.0,0.0,0.0,0.0,0.0,0.0,0.0,0.0,0.0,0.0,0.0,0.0,0.0,0.0,0.0,0.0,0.0,0.0,-0.7448,-0.7073,-0.5699,0.0,0.0,0.0,0.0,0.0,0.0,0.0,0.0,0.0,0.0,-1.221,-1.3011,-1.3378,-1.3677,-1.387,-1.3849,-1.3807,-1.3801,-1.317,-1.2437,-1.1763,0.0,0.0,0.0,0.0,0.0,0.0,0.0,0.0,0.0,0.0,0.0,0.0,0.0,0.0,0.0,0.0,0.0,0.0,0.0,0.0,0.0,0.0,0.0,0.0,0.0,0.0,0.0,0.0,0.0,0.0,-0.8222,0.0,0.0,0.0,0.0,0.0,0.0,0.0,0.0,0.0,0.0,0.0,0.0,0.0,0.0,0.0,0.0,0.0,0.0,0.0,0.0,0.0,0.0,-1.3416,-1.5639,-1.7006,-1.8175,-1.9067,-1.9098,-1.9098,-1.9077,-1.8195,-1.7048,-1.567,0.0,0.0,0.0,0.0,0.0,0.0,0.0,0.0,0.0,0.0,0.0,0.0,0.0,0.0,0.0,0.0,0.0,0.0,0.0,0.0,0.0,0.0,0.0,0.0,0.0,0.0,-0.7441,-0.7324,-0.6693,0.0,0.0,0.0,0.0,0.0,0.0,0.0,0.0,0.0,0.0,-1.2304,-1.3404,-1.3543,-1.387,-1.4066,-1.4117,-1.3839,-1.3546,-1.3275,-1.3411,-1.3163,0.0,0.0,0.0,0.0,0.0,0.0,0.0,0.0,0.0,0.0,0.0,0.0,0.0,0.0,0.0,0.0,0.0,0.0,0.0,0.0,0.0,0.0,0.0,0.0,0.0,0.0,0.0,-1.183,-1.1186,0.0,0.0,0.0,0.0,0.0,0.0,0.0,0.0,0.0,0.0,0.0,-1.5256,-1.6136,0.0,0.0,0.0,0.0,0.0,0.0,0.0,0.0,0.0,0.0,0.0,0.0,-1.3683,-1.5659,-1.7326,-1.8486,-1.9077,-1.9098,-1.9098,-1.9098,-1.8485,-1.7098,-1.4842,0.0,0.0,0.0,0.0,0.0,0.0,0.0,0.0,0.0,0.0,0.0,0.0,0.0,0.0,0.0,0.0,0.0,0.0,0.0,0.0,0.0,0.0,0.0,0.0,0.0,-0.7715,0.0,0.0,0.0,0.0,0.0,0.0,0.0,0.0,0.0,0.0,0.0,-1.0692,-1.1892,-1.2711,-1.336,-1.3862,-1.4029,-1.437,0.0,0.0,0.0,0.0,0.0,0.0,0.0,0.0,0.0,0.0,0.0,0.0,0.0,0.0,-1.4296,-1.0415,-0.9423,-0.9198,-0.9198,0.0,0.0,0.0,0.0,0.0,0.0,0.0,0.0,0.0,0.0,0.0,0.0,0.0,0.0,-1.4219,0.0,-1.3421,0.0,0.0,0.0,0.0,0.0,0.0,0.0,0.0,-1.6105,-1.7119,-1.7615,-1.8486,-1.8351,0.0,-1.6694,-1.4863,0.0,0.0,0.0,0.0,0.0,0.0,0.0,0.0,-1.4289,-1.6125,-1.7646,-1.8642,-1.9077,-1.9098,-1.9098,-1.9088,-1.8475,-1.7315,-1.5529,-1.4024,-1.2742,0.0,0.0,0.0,0.0,0.0,0.0,0.0,0.0,0.0,0.0,0.0,0.0,0.0,0.0,0.0,0.0,0.0,0.0,0.0,0.0,0.0,0.0,0.0,-0.8311,0.0,0.0,0.0,0.0,0.0,0.0,0.0,0.0,0.0,-1.0112,-1.0787,-1.1842,-1.3312,-1.3819,-1.4195,-1.4645,0.0,0.0,0.0,0.0,0.0,0.0,0.0,-1.562,-1.5682,-1.5037,-1.4432,-1.4241,-1.5738,-1.7007,-1.7169,0.0,0.0,-1.2954,-1.1959,-1.1714,-1.1654,-1.1913,-1.2086,-1.1927,-1.2274,-1.2452,0.0,0.0,0.0,0.0,0.0,0.0,0.0,0.0,-1.6444,-1.6455,0.0,-1.5664,0.0,0.0,0.0,0.0,0.0,-1.5339,0.0,0.0,-1.929,-2.0203,-1.9855,-1.9855,-1.9616,-1.9181,-1.9108,-1.8186,-1.634,-1.2917,0.0,0.0,0.0,0.0,0.0,0.0,-1.5219,-1.6986,-1.7957,-1.8662,-1.9088,-1.9098,-1.9098,-1.9088,-1.8226,-1.7709,-1.7626,-1.597,-1.4407,-1.3018,-1.1664,0.0,0.0,0.0,0.0,0.0,0.0,0.0,0.0,0.0,0.0,0.0,0.0,0.0,0.0,0.0,0.0,0.0,0.0,0.0,0.0,-0.8388,0.0,0.0,0.0,0.0,0.0,0.0,0.0,0.0,0.0,0.0,-1.2001,-1.2614,-1.3697,-1.501,0.0,0.0,0.0,0.0,-1.5719,-1.6904,-1.6228,-1.595,-1.7154,-1.7561,-1.7716,-1.7638,0.0,0.0,-1.6919,-1.8187,-1.8879,-1.7615,-1.7755,-1.7705,-1.7169,-1.6563,-1.609,-1.5405,-1.5,-1.4777,-1.4412,-1.4334,-1.4189,-2.1056,0.0,0.0,0.0,0.0,-1.8951,-1.9643,-2.0783,-2.0361,-1.9674,-1.8873,-1.8591,0.0,0.0,0.0,0.0,0.0,0.0,-1.807,-1.9424,-2.0085,-2.071,-2.1217,-2.1217,-2.0969,-2.0534,-2.0203,-1.9603,-1.8776,-1.7077,-1.4863,-1.2181,0.0,0.0,0.0,0.0,-1.6032,-1.7461,-1.8413,-1.8973,-1.9098,-1.9098,-1.9098,-1.9098,-1.8506,-1.805,-1.7719,-1.6872,-1.5797,-1.4449,-1.306,0.0,0.0,0.0,0.0,0.0,0.0,0.0,0.0,0.0,0.0,0.0,0.0,0.0,0.0,0.0,0.0,0.0,0.0,0.0,-0.8808,-0.9169,-0.9447,0.0,0.0,0.0,0.0,0.0,0.0,0.0,0.0,0.0,-1.5774,-1.5357,-1.5171,0.0,0.0,-1.6645,-1.6645,-1.6825,-1.7354,-1.8488,-1.8368,0.0,-1.9364,-1.9022,-1.8728,-1.8783,-1.8615,-1.8686,-1.9312,-1.9809,-2.0239,-2.0393,-2.0558,-2.0498,-1.9931,-1.8292,-1.7139,-1.6965,-1.6909,-1.694,-1.6995,-1.6617,-1.6168,-2.4604,-2.2065,-2.1438,-2.1518,-2.2048,-2.202,-2.2645,-2.3671,-2.3058,-2.2499,-2.2072,-2.1413,-2.0117,-1.8386,-1.8123,0.0,0.0,0.0,-2.0282,-2.1518,-2.1686,-2.1893,-2.2171,-2.2192,-2.1915,-2.1383,-2.0881,-2.0555,-2.0286,-1.9551,-1.7895,-1.5411,0.0,0.0,-1.4971,-1.5963,-1.6955,-1.7968,-1.8735,-1.9098,-1.9098,-1.9175,-1.9274,-1.9485,-1.9025,-1.8601,-1.8268,-1.7792,-1.7079,-1.6115,-1.4558,-1.3111,0.0,0.0,0.0,0.0,0.0,0.0,0.0,0.0,0.0,0.0,0.0,-0.7361,-0.6377,0.0,0.0,0.0,-0.8038,-0.9123,-1.0495,-1.0619,0.0,0.0,0.0,0.0,0.0,0.0,0.0,-1.5413,-1.6525,-1.7526,-1.8351,-1.7965,-1.7562,-1.7463,-1.7697,-1.7953,-1.8124,0.0,-1.8716,-1.9846,-1.9759,-1.9902,-2.0781,-2.0514,-2.0195,-2.028,-2.0131,-2.0196,-2.0836,-2.1021,-2.1213,-2.1655,-2.1807,-2.1725,-2.1445,-2.0052,-1.8952,-1.8796,-1.8776,-1.8766,-1.8689,-1.8249,-1.7813,-2.7497,-2.6781,-2.5048,-2.4472,-2.4762,-2.4968,-2.531,-2.5602,-2.4729,-2.4826,-2.5463,-2.3972,-2.3019,-2.2456,-2.1204,0.0,-2.1364,-2.22,-2.2839,-2.3317,-2.3639,-2.3467,-2.288,-2.2807,-2.2467,-2.1849,-2.1383,-2.1176,-2.1145,-2.0695,-2.0089,-1.922,-1.7957,-1.7265,-1.7161,-1.7575,-1.804,-1.8465,-1.8891,-1.9098,-1.9098,-1.9208,-1.9561,-2.0096,-1.9627,-1.932,-1.9125,-1.8729,-1.8228,-1.7626,-1.6001,-1.4438,-1.3049,0.0,0.0,0.0,0.0,0.0,0.0,0.0,0.0,0.0,0.0,0.0,0.0,0.0,0.0,0.0,-0.9864,0.0,-1.2265,-1.2422,0.0,0.0,0.0,-1.3576,-1.4583,-1.5853,-1.6922,-1.7771,0.0,0.0,-1.9907,-2.0255,-2.04,-2.01,-1.9691,-1.959,-1.9928,-1.9728,-1.9896,-2.0966,-2.0599,-2.0552,-2.1528,-2.1673,-2.1614,-2.1628,-2.1807,-2.1711,-2.1721,-2.1769,-2.1769,-2.1807,-2.1807,-2.1769,-2.1769,-2.1638,-2.1549,-2.0679,-2.0514,-2.0293,-1.9707,-1.946,-1.9139,-2.8979,-2.8758,-2.7989,-2.7081,-2.6235,-2.6421,-2.6486,-2.6417,-2.5964,-2.574,-2.5527,-2.4608,-2.3732,-2.3002,-2.2679,-2.2783,-2.3231,-2.346,-2.3804,-2.4148,-2.3981,-2.3773,-2.3597,-2.2912,-2.2478,-2.2315,-2.1859,-2.1652,-2.1642,-2.1528,-2.1186,-2.0638,-2.0261,-1.9448,-1.8133,-1.8559,-1.8839,-1.8932,-1.9046,-1.9098,-1.9098,-1.9142,-1.9518,-2.0236,-2.0117,-1.991,-1.9561,-1.943,-1.8685,-1.7222,-1.6107,-1.5059,-1.4003,-1.1459,0.0,0.0,0.0,0.0,0.0,0.0,0.0,0.0,0.0,-0.9843,-0.7659,0.0,-1.0425,0.0,-1.125,-1.2214,-1.3196,-1.3289,0.0,0.0,-1.5763,-1.6187,-1.7761,-1.8258,-1.8683,-1.9243,-2.0172,-2.0793,-2.0793,-2.1186,-2.1442,-2.1346,-2.0978,-2.0733,-2.0798,-2.1043,-2.1281,-2.1525,-2.1432,-2.1483,-2.17,-2.1807,-2.1807,-2.1807,-2.1807,-2.1807,-2.1807,-2.1807,-2.1807,-2.1807,-2.1807,-2.1807,-2.1807,-2.1807,-2.1901,-2.1932,-2.1725,-2.1439,-2.1241,-2.0691,-2.0158,-2.9674,-2.9456,-2.9194,-2.8566,-2.7664,-2.7744,-2.7744,-2.7597,-2.72,-2.6909,-2.6621,-2.5784,-2.5168,-2.4712,-2.4499,-2.4552,-2.4797,-2.4797,-2.4903,-2.5115,-2.4872,-2.4649,-2.4333,-2.3615,-2.3082,-2.2754,-2.2283,-2.2063,-2.2073,-2.2073,-2.1927,-2.1686,-2.2025,-2.1564,-2.0428,-1.9742,-1.9419,-1.9419,-1.9202,-1.9396,-1.9933,-1.9462,-1.9587,-2.0346,-1.991,-1.934,-1.8644,-1.8663,-1.8085,-1.6834,-1.596,-1.5205,-1.4604,-1.241,-1.091,0.0,0.0,0.0,0.0,0.0,0.0,0.0,0.0,0.0,0.0,0.0,-1.2057,-1.2667,-1.3592,-1.4567,-1.5639,-1.5732,-1.6405,-1.8081,-1.8206,-1.8661,-1.9862,-2.0384,-2.0617,-2.0669,-2.129,-2.1652,-2.1466,-2.1652,-2.1807,-2.1807,-2.159,-2.1424,-2.1445,-2.1652,-2.1807,-2.1807,-2.1807,-2.1807,-2.1807,-2.1807,-2.1807,-2.1807,-2.1807,-2.1807,-2.1807,-2.1807,-2.1807,-2.1807,-2.1807,-2.1807,-2.1818,-2.207,-2.2355,-2.2543,-2.2694,-2.2691,-2.2574,-2.2087,-2.1692,-3.0013,-2.9576,-2.951,-2.9252,-2.8803,-2.8803,-2.8803,-2.8771,-2.8263,-2.8011,-2.7846,-2.703,-2.6617,-2.6465,-2.6095,-2.5866,-2.5812,-2.5812,-2.5812,-2.5812,-2.5812,-2.5511,-2.4923,-2.4438,-2.3845,-2.319,-2.2722,-2.2456,-2.2402,-2.2392,-2.2392,-2.2429,-2.3143,-2.3313,-2.29,-2.1148,-2.0048,-1.9778,-1.944,-1.9846,-2.0965,-1.989,-1.971,-2.0457,-1.9467,-1.8444,-1.7445,-1.7501,-1.7202,-1.6476,-1.5731,-1.5217,-1.4992,-1.3442,-1.2277,0.0,-1.093,0.0,0.0,0.0,0.0,0.0,0.0,0.0,0.0,-1.3227,-1.4076,-1.5163,-1.6156,-1.7232,-1.8371,-1.8568,-1.9046,-1.9948,-2.042,-2.0876,-2.1342,-2.2097,-2.2397,-2.1952,-2.2252,-2.2325,-2.1859,-2.1807,-2.1807,-2.1807,-2.1797,-2.1766,-2.1797,-2.1797,-2.1807,-2.1807,-2.1807,-2.1807,-2.1807,-2.1807,-2.1845,-2.1845,-2.1883,-2.1883,-2.1883,-2.1883,-2.1873,-2.1873,-2.1921,-2.1883,-2.1883,-2.236,-2.2748,-2.2832,-2.3303,-2.3626,-2.3501,-2.3258,-2.3349,-3.0493,-3.0046,-2.9652,-2.9205,-2.8803,-2.8803,-2.8803,-2.8792,-2.8473,-2.7993,-2.7412,-2.7241,-2.6749,-2.6065,-2.5947,-2.569,-2.5327,-2.5327,-2.5327,-2.5327,-2.5338,-2.5274,-2.5125,-2.4666,-2.4166,-2.3679,-2.32,-2.2775,-2.2402,-2.2392,-2.2392,-2.244,-2.3132,-2.347,-2.3358,0.0,0.0,0.0,-1.9965,-2.0291,-2.0505,-1.9777,-1.9856,-2.0735,-1.9616,0.0,-1.7931,-1.8197,-1.7689,-1.6254,-1.6009,0.0,0.0,0.0,0.0,0.0,0.0,0.0,0.0,0.0,0.0,0.0,-1.5158,-1.5101,-1.4619,-1.6257,-1.716,-1.6707,-1.7812,-1.8694,-1.8953,-1.9613,-2.0374,-2.1311,-2.1838,-2.2294,-2.2739,-2.2967,-2.2884,-2.2428,-2.2449,-2.2325,-2.1932,-2.1807,-2.1807,-2.1828,-2.1807,-2.1807,-2.1807,-2.1807,-2.1807,-2.1807,-2.1807,-2.1807,-2.1807,-2.1921,-2.2035,-2.2073,-2.2176,-2.2252,-2.2252,-2.2252,-2.2289,-2.2289,-2.23,-2.2289,-2.23,-2.2412,-2.2635,-2.2963,-2.3328,-2.3556,-2.3761,-2.3732,-2.3719,-3.0985,0.0,-3.0046,-2.9554,0.0,-2.8902,-2.8803,-2.8792,-2.8664,-2.8383,-2.8053,-2.7758,-2.7403,-2.6884,-2.6476,-2.6088,-2.5894,-2.5656,-2.5549,-2.5549,-2.5559,-2.5549,-2.5527,-2.5094,-2.4589,-2.4147,-2.3612,-2.3166,-2.2724,-2.2703,-2.2703,-2.2703,-2.4067,-2.4653,-2.4409,-2.4318,-2.2844,-1.9967,-2.095,-2.13,-2.0996,-2.0671,-2.0726,-2.1226,-2.0153,0.0,0.0,0.0,0.0,0.0,0.0,0.0,0.0,0.0,0.0,-1.4464,-1.4627,-1.4726,-1.4809,-1.5716,-1.6669,-1.7585,-1.8417,-1.826,-1.6807,-1.8175,-1.9005,-1.8732,-1.9748,-2.0514,-2.0762,-2.1393,-2.2066,-2.2739,-2.3039,-2.336,-2.3764,-2.3857,-2.367,-2.3246,-2.3017,-2.2739,-2.2522,-2.2056,-2.1932,-2.2087,-2.1942,-2.1807,-2.1807,-2.1807,-2.1807,-2.1807,-2.1873,-2.1959,-2.1959,-2.2101,-2.2252,-2.2252,-2.2327,-2.2402,-2.2392,-2.2392,-2.2392,-2.2392,-2.2392,-2.2392,-2.2424,-2.2659,-2.2981,-2.3249,-2.3802,-2.4219,-2.4248,-2.4176,-2.4252,-3.1334,-3.0865,-3.0493,-3.0002,-2.9456,-2.9099,-2.888,-2.8803,0.0,0.0,0.0,-2.8331,-2.8078,-2.7947,-2.7097,-2.6704,-2.6594,-2.6125,-2.5895,-2.5895,-2.5895,-2.5895,-2.5874,-2.5491,-2.5095,-2.4596,-2.4104,-2.3722,-2.3477,-2.3378,-2.3501,-2.3862,-2.5548,-2.6251,-2.5826,-2.6049,-2.4548,-2.1414,-2.2319,-2.2643,-2.2163,-2.2024,-2.194,-2.1951,-2.0856,-1.9579,-1.8075,-1.8133,-1.7747,-1.6863,-1.7275,-1.7438,-1.7324,-1.7214,-1.7148,-1.7067,-1.7362,-1.7655,-1.7807,-1.8585,-1.9324,-1.9968,-2.0963,-2.0806,-1.9038,-1.9679,-2.0307,-2.0715,-2.1487,-2.2118,-2.2573,-2.3029,-2.3453,-2.3846,-2.395,-2.4136,-2.4425,-2.4507,-2.428,-2.3939,-2.3515,-2.3225,-2.3018,-2.2397,-2.2004,-2.2242,-2.2014,-2.1845,-2.1835,-2.1807,-2.1807,-2.1807,-2.1949,-2.2101,-2.2138,-2.2327,-2.244,-2.2451,-2.2478,-2.2515,-2.2515,-2.2515,-2.2515,-2.2542,-2.2515,-2.2515,-2.2547,-2.2907,-2.3312,-2.3334,-2.4172,-2.4814,-2.4465,-2.4344,-2.4465,-3.1345,-3.0887,-3.0821,-3.0286,-2.9478,-2.9401,-2.9186,-2.8814,-2.8803,-2.8803,-2.8792,-2.8727,-2.8429,-2.7969,-2.7457,-2.7009,-2.6562,-2.6125,-2.5895,-2.5895,-2.5895,-2.5895,-2.5895,-2.583,-2.5546,-2.5106,-2.4607,-2.4715,-2.5226,-2.488,-2.5266,-2.6363,-2.7385,-2.7787,-2.7711,-2.7927,-2.692,-2.4741,-2.4429,-2.4278,-2.4159,-2.3601,-2.3139,-2.2802,-2.1629,-2.0282,-1.8897,-1.9152,-1.9003,-1.843,-1.8831,-1.902,-1.8896,-1.92,-1.919,-1.8753,-1.9402,-1.979,-1.9723,-2.0128,-2.0621,-2.1119,-2.1845,-2.1898,-2.1068,-2.1281,-2.1714,-2.2149,-2.2315,-2.2584,-2.3049,-2.3546,-2.3857,-2.3908,-2.4229,-2.4435,-2.4507,-2.4507,-2.4342,-2.3971,-2.3867,-2.3504,-2.2903,-2.2522,-2.2291,-2.2014,-2.1998,-2.1873,-2.1987,-2.1921,-2.1807,-2.1807,-2.1959,-2.2063,-2.2176,-2.244,-2.2628,-2.2676,-2.2777,-2.2852,-2.2889,-2.2852,-2.2852,-2.2927,-2.2889,-2.2889,-2.2889,-2.297,-2.3068,-2.3112,-2.3629,-2.3913,-2.3864,-2.3804,-2.3984,-3.1498,-3.1258,-3.1007,-3.0515,-2.9838,-2.9372,-2.9,-2.8814,-2.8803,-2.8803,-2.8803,-2.8803,-2.8683,-2.8375,-2.7643,-2.7206,-2.6977,-2.6234,-2.5895,-2.5895,-2.5895,-2.5895,-2.5895,-2.5895,-2.5655,-2.5204,-2.4705,-2.4673,-2.4999,-2.5013,-2.5466,-2.6349,-2.7496,-2.8618,-2.9595,-2.9158,-2.8433,-2.7493,-2.634,-2.5396,-2.4738,-2.476,-2.4663,-2.4433,-2.3556,-2.2449,-2.1065,-2.1126,-2.0773,-1.992,-2.0336,-2.0565,-2.0498,-2.0593,-2.0557,-2.0273,-2.0759,-2.1062,-2.1122,-2.1524,-2.1886,-2.211,-2.2275,-2.2317,-2.2131,-2.2125,-2.2338,-2.2762,-2.3063,-2.341,-2.3862,-2.4252,-2.444,-2.444,-2.4511,-2.4497,-2.4507,-2.4507,-2.4414,-2.426,-2.4022,-2.3888,-2.3824,-2.3116,-2.2799,-2.2793,-2.2527,-2.2159,-2.2262,-2.2187,-2.2138,-2.2138,-2.23,-2.2402,-2.244,-2.2654,-2.2852,-2.2863,-2.2927,-2.3001,-2.3001,-2.3001,-2.3001,-2.3001,-2.3001,-2.3001,-2.299,-2.3001,-2.3001,-2.3045,-2.3394,-2.3585,-2.3438,-2.3329,-2.3416,-3.1567,-3.1534,-3.1214,-3.0734,-3.0144,-2.9281,-2.8902,-2.8803,-2.8803,-2.8803,-2.8803,-2.8803,-2.8803,-2.8716,-2.7861,-2.7424,-2.7206,-2.6452,-2.6005,-2.5906,-2.5895,-2.5895,-2.5895,-2.5895,-2.5699,-2.5317,-2.4869,-2.4838,-2.5195,-2.5467,-2.6056,-2.6897,-2.794,-2.9323,-3.0934,-2.998,-2.947,-2.9379,-2.791,-2.6524,-2.5459,-2.5935,-2.6087,-2.5836,-2.5434,-2.4488,-2.3035,-2.2905,-2.2343,-2.1336,-2.1549,-2.1789,-2.1898,-2.1767,-2.1696,-2.1693,-2.185,-2.1959,-2.2091,-2.245,-2.2703,-2.2703,-2.259,-2.259,-2.2751,-2.2735,-2.2841,-2.3232,-2.3671,-2.4158,-2.4552,-2.483,-2.4946,-2.4946,-2.4786,-2.47,-2.4658,-2.4658,-2.4668,-2.4616,-2.4346,-2.4378,-2.4493,-2.3872,-2.3332,-2.3387,-2.2924,-2.2434,-2.244,-2.2478,-2.2478,-2.2553,-2.2617,-2.2665,-2.2703,-2.2852,-2.2964,-2.3001,-2.3001,-2.3001,-2.3001,-2.3001,-2.3001,-2.3001,-2.3001,-2.2925,-2.2881,-2.2947,-2.2925,-2.2892,-2.3176,-2.3378,-2.3132,-2.3045,-2.3023,-3.1567,-3.1567,-3.1564,-3.1029,-3.0188,-2.9631,-2.9197,-2.8825,-2.8803,-2.8803,-2.8803,-2.8803,-2.8803,-2.8738,-2.8189,-2.7719,-2.7293,-2.6748,-2.6321,-2.597,-2.5895,-2.5895,-2.5937,-2.5895,-2.5884,-2.5795,-2.5357,-2.5899,-2.7135,-2.7346,-2.8483,-3.0213,-2.9872,-3.0012,-3.082,-3.0372,-3.0022,-2.9983,-2.8843,-2.7907,-2.7306,-2.73,-2.7131,-2.6608,-2.6543,-2.5588,-2.373,-2.3583,-2.3151,-2.2281,-2.2215,-2.2433,-2.2794,-2.2859,-2.2822,-2.28,-2.268,-2.2563,-2.2403,-2.2569,-2.2703,-2.2692,-2.2863,-2.2948,-2.3008,-2.3351,-2.3632,-2.383,-2.4168,-2.4624,-2.5062,-2.5168,-2.5158,-2.52,-2.5115,-2.5115,-2.5115,-2.5168,-2.5147,-2.5115,-2.5041,-2.4967,-2.4648,-2.4402,-2.4009,-2.3356,-2.2888,-2.2569,-2.2628,-2.2665,-2.2703,-2.2852,-2.2815,-2.274,-2.274,-2.2852,-2.3001,-2.3001,-2.3001,-2.3001,-2.3001,-2.3001,-2.3001,-2.3001,-2.3001,-2.2881,-2.2695,-2.2673,-2.2859,-2.2684,-2.2848,-2.3056,-2.3001,-2.3032,-2.3058,-3.1567,-3.1567,-3.1567,-3.1083,-3.0199,-2.9696,-2.9263,-2.8814,-2.8803,-2.8803,-2.8803,-2.8803,-2.8803,-2.8771,-2.8254,-2.7729,-2.7293,-2.6791,-2.6652,-2.6603,-2.6146,-2.6177,-2.658,-2.6104,-2.6146,-2.6577,-2.6134,-2.6673,-2.7924,-2.8621,-2.9605,-3.0835,-3.0621,-3.0659,-3.096,-3.0751,-3.044,-3.01,-2.9666,-2.8974,-2.8098,-2.7706,-2.7385,-2.721,-2.7183,-2.6391,-2.4915,-2.5049,-2.4492,-2.2915,-2.3134,-2.3248,-2.3027,-2.3001,-2.3001,-2.3001,-2.2927,-2.2777,-2.2601,-2.2665,-2.2703,-2.2703,-2.3048,-2.3275,-2.3433,-2.4126,-2.4592,-2.4656,-2.4811,-2.5114,-2.5526,-2.5506,-2.5422,-2.5422,-2.5295,-2.52,-2.52,-2.52,-2.52,-2.52,-2.5189,-2.5231,-2.5133,-2.4999,-2.453,-2.369,-2.3248,-2.308,-2.2917,-2.2889,-2.2889,-2.2964,-2.2927,-2.2889,-2.2889,-2.2927,-2.3001,-2.3001,-2.3001,-2.3001,-2.3001,-2.3001,-2.3001,-2.3001,-2.3001,-2.2957,-2.2815,-2.2826,-2.2925,-2.2802,-2.2557,-2.2772,-2.3492,-2.3433,-2.3365,-3.1567,-3.1567,-3.1567,-3.1072,-3.0199,-2.9838,-2.9325,-2.8836,-2.8803,-2.8803,-2.8803,-2.8803,-2.8803,-2.8749,-2.8386,-2.7916,-2.7315,-2.6922,-2.6932,-2.712,-2.6539,-2.658,-2.7103,-2.658,-2.658,-2.7046,-2.6795,-2.7355,-2.8655,-2.9156,-2.9974,-3.0835,-3.0772,-3.0748,-3.0986,-3.1024,-3.079,-3.0398,-3.0192,-2.9719,-2.8882,-2.8137,-2.7646,-2.7516,-2.7503,-2.6905,-2.5687,-2.5931,-2.524,-2.3423,-2.3669,-2.3559,-2.3038,-2.3001,-2.3001,-2.3001,-2.3001,-2.2927,-2.2804,-2.2777,-2.2777,-2.281,-2.3221,-2.3541,-2.3858,-2.4618,-2.5171,-2.5164,-2.5325,-2.5557,-2.5819,-2.578,-2.5696,-2.5686,-2.5506,-2.538,-2.5369,-2.538,-2.5422,-2.5369,-2.5422,-2.5464,-2.5557,-2.5278,-2.4661,-2.4065,-2.3662,-2.3438,-2.3099,-2.3001,-2.3001,-2.3038,-2.3128,-2.3213,-2.3075,-2.3001,-2.3001,-2.3001,-2.3001,-2.3001,-2.3001,-2.3001,-2.3001,-2.3001,-2.3001,-2.2929,-2.278,-2.2845,-2.346,-2.3514,-2.3349,-2.3336,-2.4254,-2.4083,-2.4119,-3.1567,-3.1567,-3.1567,-3.1105,-3.0209,-3.0177,-2.9631,-2.8858,-2.8814,-2.8803,-2.8803,-2.8803,-2.8803,-2.8803,-2.8738,-2.82,-2.7403,-2.7304,-2.7277,-2.7293,-2.7108,-2.7156,-2.7185,-2.7144,-2.7185,-2.7418,-2.74,-2.81,-2.955,-2.9189,-2.9554,-3.0872,-3.0266,-3.0254,-3.0898,-3.1024,-3.1011,-3.0843,-3.0401,-3.0061,-2.9852,-2.8908,-2.8137,-2.7659,-2.7503,-2.7108,-2.6324,-2.5687,-2.4933,-2.4072,-2.346,-2.3102,-2.3038,-2.3001,-2.3001,-2.3001,-2.3001,-2.3001,-2.3001,-2.2986,-2.2997,-2.3062,-2.352,-2.3738,-2.388,-2.4716,-2.5218,-2.5226,-2.559,-2.5852,-2.5884,-2.5864,-2.5853,-2.5853,-2.5853,-2.5853,-2.5853,-2.5812,-2.5853,-2.5853,-2.5812,-2.5812,-2.5832,-2.5098,-2.4694,-2.4301,-2.3656,-2.3088,-2.3034,-2.3001,-2.3038,-2.3213,-2.3522,-2.3804,-2.3213,-2.3176,-2.3139,-2.3102,-2.3176,-2.3139,-2.3038,-2.3001,-2.3038,-2.3102,-2.3176,-2.308,-2.2757,-2.3178,-2.4148,-2.4529,-2.453,-2.4732,-2.5063,-2.517,-2.5134,-3.1567,-3.1567,-3.1567,-3.1236,-3.0646,-3.0351,-2.9827,-2.9252,-2.8935,-2.8803,-2.8803,-2.8803,-2.8803,-2.8803,-2.8803,-2.8407,-2.7773,-2.7729,-2.7888,-2.7969,-2.7209,-2.7387,-2.8321,-2.7632,-2.781,-2.8676,-2.8794,-2.9394,-3.0368,-3.0313,-3.0477,-3.0846,-3.0697,-3.0697,-3.0949,-3.1024,-3.1024,-3.0998,-3.0764,-3.0466,-3.0127,-2.9719,-2.9235,-2.8647,-2.7902,-2.6939,-2.5709,-2.5861,-2.5417,-2.4156,-2.3829,-2.3706,-2.3658,-2.325,-2.3001,-2.3001,-2.3001,-2.3001,-2.3034,-2.3296,-2.3471,-2.3487,-2.4213,-2.4618,-2.476,-2.524,-2.5644,-2.5666,-2.5764,-2.5895,-2.5895,-2.5895,-2.5895,-2.5895,-2.5895,-2.5895,-2.5895,-2.5895,-2.5895,-2.5895,-2.5895,-2.5895,-2.5841,-2.559,-2.5175,-2.4574,-2.4159,-2.3695,-2.3132,-2.3001,-2.3139,-2.3585,-2.3902,-2.4,-2.3804,-2.3731,-2.3694,-2.3559,-2.3559,-2.3863,-2.3936,-2.3398,-2.3287,-2.4082,-2.3998,-2.3927,-2.3892,-2.4259,-2.5146,-2.5228,-2.5262,-2.5483,-2.5765,-2.5716,-2.5691,-3.1567,-3.1567,-3.1567,-3.1258,-3.0668,-3.0351,-2.9838,-2.9296,-2.8946,-2.8803,-2.885,-2.9106,-2.9117,-2.8896,-2.9117,-2.9077,-2.8664,-2.8249,-2.821,-2.8525,-2.779,-2.8068,-2.8845,-2.811,-2.8307,-2.9588,-3.0024,-3.0419,-3.0898,-3.1024,-3.1024,-3.0986,-3.1024,-3.1024,-3.1024,-3.1024,-3.1024,-3.1024,-3.1024,-3.079,-3.0388,-3.0192,-2.9918,-2.9483,-2.8595,-2.7421,-2.6014,-2.6238,-2.5697,-2.4361,-2.412,-2.4011,-2.3742,-2.3276,-2.3001,-2.3001,-2.3001,-2.3001,-2.3056,-2.346,-2.3684,-2.3738,-2.4596,-2.5215,-2.5237,-2.5622,-2.5863,-2.5895,-2.5895,-2.5895,-2.5895,-2.5895,-2.5895,-2.5895,-2.5895,-2.5895,-2.5895,-2.5895,-2.5895,-2.5895,-2.5895,-2.5895,-2.5893,-2.5826,-2.5473,-2.4914,-2.4626,-2.4038,-2.3516,-2.3139,-2.3139,-2.3669,-2.3902,-2.4047,-2.412,-2.424,-2.4168,-2.4022,-2.3913,-2.4324,-2.4695,-2.4082,-2.4045,-2.4838,-2.5158,-2.5111,-2.5252,-2.5581,-2.5721,-2.5836,-2.6017,-2.6242,-2.6285,-2.6163,-2.626,-3.1567,-3.1567,-3.1567,-3.1127,-3.0384,-3.0242,-2.9663,-2.9,-2.8836,-2.8803,-2.8885,-2.9681,-2.9463,-2.9117,-2.9646,-3.0113,-2.9818,-2.8766,-2.8489,-2.889,-2.9046,-2.9183,-2.9417,-2.8851,-2.8949,-2.9858,-3.0583,-3.0949,-3.0986,-3.1024,-3.1024,-3.1024,-3.1024,-3.1024,-3.1024,-3.1024,-3.1024,-3.1024,-3.1024,-3.0998,-3.0921,-3.0464,-3.0166,-3.0048,-2.9523,-2.8608,-2.7329,-2.6719,-2.5748,-2.4443,-2.4131,-2.3768,-2.3276,-2.3075,-2.3001,-2.3001,-2.3001,-2.3001,-2.3088,-2.3514,-2.3831,-2.3967,-2.4683,-2.5292,-2.5379,-2.5644,-2.5895,-2.5895,-2.5895,-2.5895,-2.5895,-2.5895,-2.5895,-2.5895,-2.5895,-2.5895,-2.5895,-2.5895,-2.5895,-2.5937,-2.599,-2.5895,-2.5876,-2.5838,-2.566,-2.5392,-2.4718,-2.4189,-2.4032,-2.3596,-2.3139,-2.3398,-2.4095,-2.4696,-2.4696,-2.4707,-2.4564,-2.4456,-2.4337,-2.4528,-2.5252,-2.5146,-2.504,-2.5652,-2.5931,-2.5884,-2.6161,-2.6427,-2.6633,-2.6744,-2.6917,-2.6845,-2.6832,-2.6819,-2.6971,-3.1567,-3.1567,-3.1567,-3.1269,-3.0668,-3.0351,-2.9827,-2.9285,-2.8957,-2.8803,-2.885,-2.9106,-2.9059,-2.9071,-2.9783,-3.0215,-3.0158,-2.9727,-2.9926,-3.0521,-3.0469,-3.0627,-3.0927,-3.0295,-3.0171,-3.0559,-3.0861,-3.1024,-3.1024,-3.1024,-3.1024,-3.1024,-3.1024,-3.1024,-3.1024,-3.1024,-3.1024,-3.1024,-3.1024,-3.1024,-3.0973,-3.0817,-3.0712,-3.066,-3.0176,-2.9419,-2.8482,-2.7026,-2.6021,-2.5479,-2.4583,-2.3975,-2.3731,-2.3276,-2.3038,-2.3001,-2.3001,-2.3176,-2.3476,-2.3962,-2.4388,-2.4738,-2.5347,-2.5622,-2.5677,-2.5797,-2.5937,-2.5937,-2.5895,-2.5895,-2.5895,-2.5895,-2.5895,-2.5895,-2.5895,-2.5895,-2.5895,-2.5937,-2.5895,-2.5979,-2.6426,-2.6509,-2.6119,-2.5999,-2.5991,-2.5592,-2.4672,-2.4089,-2.4621,-2.424,-2.4348,-2.5099,-2.5487,-2.5452,-2.5487,-2.5557,-2.5522,-2.5346,-2.517,-2.5264,-2.5884,-2.6151,-2.6117,-2.6255,-2.653,-2.6701,-2.6985,-2.7154,-2.7255,-2.7142,-2.6968,-2.7069,-2.7356,-2.7403,-2.7356,-3.1567,-3.1567,-3.1567,-3.1236,-3.0646,-3.0319,-3.0057,-2.9675,-2.9064,-2.8978,-2.9336,-2.9726,-2.9635,-2.96,-3.0306,-3.0923,-3.1178,-3.0923,-3.1412,-3.2234,-3.1276,-3.1333,-3.193,-3.1394,-3.079,-3.0649,-3.0861,-3.0986,-3.1024,-3.1024,-3.1024,-3.1024,-3.1024,-3.1024,-3.1024,-3.1024,-3.1024,-3.1024,-3.1024,-3.1024,-3.1024,-3.1024,-3.1024,-3.0934,-3.0634,-3.0229,-2.9653,-2.8064,-2.6956,-2.6347,-2.515,-2.4601,-2.4712,-2.3756,-2.3113,-2.3346,-2.3363,-2.353,-2.4115,-2.453,-2.5036,-2.5529,-2.5818,-2.5884,-2.5937,-2.6093,-2.6385,-2.6385,-2.6426,-2.6385,-2.6385,-2.6063,-2.5937,-2.5895,-2.5895,-2.5895,-2.5937,-2.6188,-2.6385,-2.658,-2.7133,-2.7092,-2.6714,-2.6451,-2.6438,-2.5954,-2.5024,-2.4579,-2.5242,-2.504,-2.5464,-2.5744,-2.5639,-2.5779,-2.6242,-2.638,-2.6483,-2.6311,-2.6139,-2.6368,-2.6837,-2.6735,-2.6667,-2.6905,-2.7154,-2.7121,-2.7323,-2.7369,-2.7423,-2.7209,-2.7074,-2.7255,-2.7436,-2.7289,-2.7204,-3.1567,-3.1567,-3.1586,-3.105,-3.0286,-3.0252,-3.017,-2.9931,-2.9336,-2.9417,-3.017,-3.0789,-3.0923,-3.0564,-3.1267,-3.2072,-3.2679,-3.2072,-3.2537,-3.3166,-3.2207,-3.1546,-3.2205,-3.1976,-3.1255,-3.0381,-3.0749,-3.0986,-3.1024,-3.1024,-3.1024,-3.1024,-3.1024,-3.1024,-3.1024,-3.1024,-3.1024,-3.1024,-3.1024,-3.1024,-3.1024,-3.1024,-3.1024,-3.1024,-3.0947,-3.0908,-3.0603,-2.9603,-2.8363,-2.7037,-2.5791,-2.5481,-2.5608,-2.4206,-2.3549,-2.4089,-2.3891,-2.4194,-2.4816,-2.5077,-2.5572,-2.628,-2.6199,-2.5979,-2.6177,-2.6816,-2.7255,-2.7267,-2.7144,-2.7103,-2.694,-2.6539,-2.6135,-2.6093,-2.6218,-2.6135,-2.6135,-2.6816,-2.7185,-2.7366,-2.7879,-2.8148,-2.74,-2.7147,-2.6968,-2.6644,-2.5888,-2.561,-2.6037,-2.5918,-2.5523,-2.5652,-2.607,-2.6277,-2.6769,-2.679,-2.6905,-2.6905,-2.6769,-2.7019,-2.7289,-2.7188,-2.7121,-2.7356,-2.7503,-2.7503,-2.7503,-2.7503,-2.7503,-2.739,-2.739,-2.7469,-2.7332,-2.7128,-2.6874,-3.1567,-3.1534,-3.1236,-3.0745,-3.0285,-3.0524,-3.0103,-2.9324,-2.9692,-2.9943,-3.0306,-3.0429,-3.0923,-3.1311,-3.219,-3.2766,-3.2907,-3.2722,-3.3207,-3.4024,-3.3081,-3.271,-3.3006,-3.267,-3.2033,-3.1293,-3.1005,-3.1024,-3.1024,-3.1024,-3.1024,-3.1024,-3.1024,-3.1024,-3.1024,-3.1024,-3.1024,-3.1024,-3.1024,-3.1024,-3.1024,-3.1024,-3.1024,-3.1024,-3.1024,-3.1024,-3.1024,-3.068,-2.9289,-2.7159,-2.668,-2.6509,-2.6622,-2.5331,-2.4574,-2.4722,-2.4365,-2.4494,-2.531,-2.5534,-2.5973,-2.6846,-2.6907,-2.6857,-2.6899,-2.7609,-2.8039,-2.8011,-2.7609,-2.7255,-2.7174,-2.7021,-2.7092,-2.7568,-2.7221,-2.7058,-2.7516,-2.7907,-2.8079,-2.8148,-2.8861,-2.8785,-2.824,-2.7793,-2.7631,-2.7323,-2.6491,-2.5791,-2.6517,-2.6633,-2.6151,-2.6735,-2.7074,-2.7108,-2.7175,-2.7209,-2.7276,-2.7356,-2.7289,-2.7255,-2.7423,-2.739,-2.739,-2.7503,-2.7503,-2.7503,-2.7503,-2.7503,-2.7503,-2.7438,-2.7398,-2.7333,-2.7027,-2.6765,-2.6446,-3.1498,-3.1302,-3.1018,-3.074,-3.0555,-3.0785,-3.0778,-3.0544,-3.0249,-3.0699,-3.1134,-3.0923,-3.1323,-3.219,-3.2766,-3.325,-3.3518,-3.3207,-3.3518,-3.4176,-3.3814,-3.3601,-3.3467,-3.2973,-3.2398,-3.1797,-3.1261,-3.1013,-3.1024,-3.1024,-3.1024,-3.1024,-3.1024,-3.1024,-3.1024,-3.1024,-3.1024,-3.1024,-3.1024,-3.1024,-3.1024,-3.1024,-3.1024,-3.1024,-3.1024,-3.1024,-3.1024,-3.0986,-3.016,-2.885,-2.8176,-2.7953,-2.8052,-2.6417,-2.5642,-2.5863,-2.5323,-2.5449,-2.6395,-2.6562,-2.7003,-2.789,-2.7959,-2.773,-2.7851,-2.8426,-2.8951,-2.8861,-2.8478,-2.8291,-2.8171,-2.7959,-2.8159,-2.8652,-2.8325,-2.804,-2.839,-2.8703,-2.89,-2.9098,-2.9388,-2.9543,-2.8676,-2.8139,-2.7798,-2.7437,-2.6579,-2.6647,-2.7108,-2.6939,-2.6905,-2.7289,-2.7503,-2.739,-2.7356,-2.7356,-2.7356,-2.7469,-2.7503,-2.7503,-2.7425,-2.7438,-2.7464,-2.7464,-2.749,-2.7451,-2.7359,-2.7307,-2.7307,-2.7242,-2.7216,-2.6974,-2.6569,-2.634,-2.6033,-3.1308,-3.0959,-3.0905,-3.0923,-3.0879,-3.0963,-3.1447,-3.212,-3.1,-3.1356,-3.242,-3.2072,-3.2289,-3.3122,-3.3292,-3.3645,-3.4301,-3.3602,-3.3784,-3.415,-3.4155,-3.3951,-3.352,-3.2973,-3.2385,-3.1784,-3.1261,-3.1026,-3.1024,-3.1024,-3.1024,-3.1024,-3.1024,-3.1024,-3.1024,-3.1024,-3.1024,-3.1024,-3.1024,-3.1024,-3.1024,-3.1024,-3.1024,-3.1024,-3.1024,-3.1024,-3.1024,-3.1024,-3.0833,-3.096,-2.9843,-2.9501,-2.9619,-2.7507,-2.6771,-2.6935,-2.6455,-2.6468,-2.7605,-2.7567,-2.7991,-2.8842,-2.8675,-2.8485,-2.8606,-2.9204,-2.9832,-2.9819,-2.9742,-2.9409,-2.9195,-2.8741,-2.8684,-2.9163,-2.9026,-2.8748,-2.8711,-2.9169,-2.9656,-2.9681,-2.9888,-2.9582,-2.8905,-2.8104,-2.742,-2.7796,-2.7063,-2.7033,-2.7289,-2.7255,-2.7255,-2.739,-2.7503,-2.7503,-2.7469,-2.7469,-2.7469,-2.7503,-2.7503,-2.7464,-2.734,-2.734,-2.7372,-2.7372,-2.7203,-2.7072,-2.6981,-2.6968,-2.6974,-2.6831,-2.6621,-2.6282,-2.5916,-2.5785,-2.5563,-3.1202,-3.1391,-3.1054,-3.0911,-3.0974,-3.1264,-3.1252,-3.0968,-3.1223,-3.1972,-3.2766,-3.2766,-3.3207,-3.4037,-3.4037,-3.4259,-3.4384,-3.4134,-3.4259,-3.4249,-3.3927,-3.3744,-3.3443,-3.2934,-3.2385,-3.1784,-3.1261,-3.1037,-3.1024,-3.1024,-3.1024,-3.1024,-3.1024,-3.1024,-3.1024,-3.1024,-3.1024,-3.1024,-3.1024,-3.1024,-3.1024,-3.1024,-3.1024,-3.1024,-3.1024,-3.1024,-3.1024,-3.1024,-3.1024,-3.091,-3.0667,-3.021,-2.9643,-2.846,-2.7773,-2.757,-2.6934,-2.6714,-2.7346,-2.7812,-2.8027,-2.8449,-2.9038,-2.9234,-2.8849,-2.9846,-3.0544,-3.0583,-3.0126,-2.953,-2.9114,-2.85,-2.8648,-2.9162,-2.9202,-2.9076,-2.9132,-2.9256,-2.9406,-2.9427,-2.9431,-2.9373,-2.9155,-2.8501,-2.8084,-2.8006,-2.7742,-2.74,-2.739,-2.7503,-2.7503,-2.7503,-2.7503,-2.7503,-2.7503,-2.7503,-2.7503,-2.7411,-2.7372,-2.7294,-2.717,-2.7013,-2.6981,-2.6948,-2.6844,-2.6713,-2.655,-2.6341,-2.625,-2.6125,-2.5981,-2.5654,-2.5393,-2.5262,-2.5092,-3.1634,-3.1318,-3.1449,-3.1422,-3.1357,-3.1962,-3.2234,-3.2147,-3.219,-3.2766,-3.3377,-3.3237,-3.356,-3.4356,-3.4397,-3.4397,-3.4397,-3.4397,-3.4397,-3.428,-3.3849,-3.3456,-3.3051,-3.2607,-3.2058,-3.1719,-3.1248,-3.1013,-3.1024,-3.0986,-3.1024,-3.1024,-3.0986,-3.1024,-3.1024,-3.1024,-3.1024,-3.1024,-3.1024,-3.1024,-3.1024,-3.1024,-3.1024,-3.1024,-3.1024,-3.1024,-3.1024,-3.1024,-3.1024,-3.0921,-3.0738,-3.0383,-2.9918,-2.9114,-2.86,-2.8139,-2.7464,-2.7233,-2.7754,-2.8039,-2.8311,-2.8554,-2.9193,-2.9206,-2.9202,-2.9837,-3.01,-3.0103,-2.9744,-2.9358,-2.9076,-2.8871,-2.8941,-2.9054,-2.9013,-2.8869,-2.8908,-2.9091,-2.931,-2.9244,-2.9065,-2.8908,-2.8673,-2.8333,-2.8051,-2.7707,-2.7694,-2.7423,-2.7423,-2.7503,-2.7503,-2.7503,-2.7503,-2.7503,-2.7503,-2.7503,-2.7503,-2.7346,-2.7196,-2.704,-2.6857,-2.6687,-2.6511,-2.6412,-2.6269,-2.6216,-2.6041,-2.5806,-2.5602,-2.5497,-2.5358,-2.5066,-2.4857,-2.47,-2.457,-3.2099,-3.1274,-3.207,-3.2164,-3.1977,-3.2649,-3.3335,-3.3869,-3.3335,-3.342,-3.4134,-3.3505,-3.3784,-3.4272,-3.4397,-3.4397,-3.4371,-3.4254,-3.4214,-3.4319,-3.347,-3.3064,-3.2633,-3.2123,-3.1654,-3.1615,-3.1146,-3.0962,-3.0911,-3.0911,-3.0823,-3.0911,-3.0949,-3.0911,-3.0949,-3.0986,-3.1024,-3.1024,-3.1024,-3.1024,-3.1024,-3.1024,-3.1024,-3.1024,-3.1024,-3.1024,-3.1024,-3.0973,-3.0947,-3.0843,-3.0385,-3.0035,-2.9758,-2.9431,-2.8996,-2.8399,-2.7749,-2.7624,-2.7936,-2.8265,-2.8538,-2.9052,-2.9274,-2.9235,-2.9209,-2.9278,-2.9444,-2.9388,-2.922,-2.909,-2.9144,-2.8803,-2.8825,-2.8856,-2.8503,-2.8342,-2.8381,-2.8726,-2.883,-2.8843,-2.8503,-2.8294,-2.815,-2.7915,-2.7659,-2.7503,-2.7503,-2.7503,-2.7503,-2.7503,-2.7503,-2.7503,-2.7503,-2.7503,-2.7503,-2.7183,-2.7203,-2.7059,-2.6883,-2.6569,-2.6392,-2.6073,-2.5837,-2.5772,-2.5667,-2.5615,-2.5454,-2.5206,-2.504,-2.4926,-2.4809,-2.4622,-2.4413,-2.4151,-2.4125,-3.1784,-3.2674,-3.2816,-3.284,-3.2778,-3.295,-3.3164,-3.3207,-3.3164,-3.356,-3.4272,-3.423,-3.4176,-3.4397,-3.4397,-3.4397,-3.4267,-3.4018,-3.3966,-3.3953,-3.3011,-3.2372,-3.2385,-3.1641,-3.1184,-3.1079,-3.0862,-3.0736,-3.0723,-3.0609,-3.0634,-3.0558,-3.0723,-3.0773,-3.0849,-3.0911,-3.1024,-3.1024,-3.1024,-3.1024,-3.1024,-3.1024,-3.1024,-3.1024,-3.1024,-3.1024,-3.1024,-3.0998,-3.0777,-3.0333,-3.0153,-2.9614,-2.8987,-2.8647,-2.8464,-2.8242,-2.7837,-2.7594,-2.7771,-2.8124,-2.8098,-2.8164,-2.8621,-2.893,-2.8813,-2.8943,-2.9013,-2.9013,-2.88,-2.8564,-2.8538,-2.8242,-2.7881,-2.779,-2.785,-2.7732,-2.7725,-2.7829,-2.7973,-2.8012,-2.7803,-2.7712,-2.7686,-2.7673,-2.7581,-2.7503,-2.7503,-2.7503,-2.7503,-2.7503,-2.7503,-2.7503,-2.7503,-2.7503,-2.7503,-2.704,-2.6765,-2.6608,-2.6347,-2.5837,-2.562,-2.5319,-2.5136,-2.5105,-2.504,-2.4949,-2.4792,-2.4618,-2.4543,-2.4478,-2.436,-2.4256,-2.4191,-2.4125,-2.4125,-3.2829,-3.3023,-3.3518,-3.342,-3.3164,-3.3518,-3.3729,-3.3742,-3.3729,-3.3953,-3.4259,-3.4397,-3.4397,-3.4397,-3.4397,-3.4267,-3.3953,-3.3757,-3.3546,-3.3204,-3.2619,-3.2098,-3.2098,-3.12,-3.1003,-3.0874,-3.0723,-3.0685,-3.0811,-3.066,-3.0609,-3.0723,-3.0811,-3.0849,-3.0874,-3.0949,-3.0986,-3.1024,-3.1024,-3.1024,-3.1024,-3.1024,-3.1024,-3.1024,-3.1024,-3.1024,-3.1024,-3.1024,-3.0712,-3.0179,-2.9849,-2.9235,-2.8582,-2.8111,-2.7941,-2.7902,-2.7659,-2.7503,-2.7503,-2.7777,-2.7751,-2.762,-2.809,-2.8216,-2.8085,-2.8177,-2.8425,-2.8333,-2.8229,-2.7941,-2.7928,-2.7646,-2.7529,-2.7503,-2.7503,-2.7503,-2.7503,-2.7503,-2.7503,-2.7503,-2.7555,-2.7581,-2.7555,-2.7529,-2.7516,-2.7503,-2.7503,-2.7503,-2.7503,-2.7503,-2.749,-2.7333,-2.7281,-2.7144,-2.7007,-2.6595,-2.6287,-2.6112,-2.5798,-2.5301,-2.5014,-2.4805,-2.4622,-2.453,-2.4439,-2.436,-2.4387,-2.4347,-2.4204,-2.4125,-2.4151,-2.4178,-2.4151,-2.4125,-2.4125,-3.3784,-3.3348,-3.4092,-3.3966,-3.3462,-3.4037,-3.4356,-3.4397,-3.4356,-3.4356,-3.4397,-3.4397,-3.4397,-3.4358,-3.4228,-3.3951,-3.3507,-3.3351,-3.2839,-3.2511,-3.2202,-3.1889,-3.1552,-3.1085,-3.0849,-3.0949,-3.0672,-3.0596,-3.0798,-3.0698,-3.0736,-3.0761,-3.0874,-3.0949,-3.0911,-3.0949,-3.0986,-3.1024,-3.1024,-3.1024,-3.1024,-3.1024,-3.1024,-3.1024,-3.1024,-3.1024,-3.1024,-3.0803,-3.0464,-2.9915,-2.9392,-2.8817,-2.8255,-2.7771,-2.7516,-2.7503,-2.7503,-2.7503,-2.7503,-2.7516,-2.7568,-2.7516,-2.7503,-2.7516,-2.7542,-2.7633,-2.7594,-2.7503,-2.7529,-2.7555,-2.7594,-2.7516,-2.7503,-2.7503,-2.7503,-2.7503,-2.7503,-2.7503,-2.7503,-2.7503,-2.7503,-2.7503,-2.7503,-2.7503,-2.7503,-2.7503,-2.7503,-2.7503,-2.7503,-2.7503,-2.7438,-2.721,-2.7,-2.6726,-2.6438,-2.5994,-2.5746,-2.5615,-2.5236,-2.4753,-2.4583,-2.4452,-2.4308,-2.4204,-2.3916,-2.3877,-2.3955,-2.4112,-2.4125,-2.4125,-2.4125,-2.4112,-2.4083,-2.4112,-2.4125,-3.3602,-3.4217,-3.4343,-3.4356,-3.4217,-3.4356,-3.4397,-3.4397,-3.4397,-3.4397,-3.4397,-3.4397,-3.4384,-3.4186,-3.3796,-3.3532,-3.3045,-3.2395,-3.2018,-3.1899,-3.15,-3.1383,-3.1397,-3.1121,-3.095,-3.0949,-3.0761,-3.0698,-3.0736,-3.0609,-3.0495,-3.0609,-3.0761,-3.0773,-3.0849,-3.0949,-3.0986,-3.1024,-3.1024,-3.1024,-3.1024,-3.1024,-3.1024,-3.1024,-3.1024,-3.1024,-3.0908,-3.0594,-3.0022,-2.947,-2.8843,-2.8242,-2.7699,-2.7555,-2.7503,-2.7503,-2.7503,-2.7503,-2.7503,-2.7503,-2.7503,-2.7503,-2.7503,-2.7503,-2.7503,-2.7503,-2.7503,-2.7503,-2.7503,-2.7503,-2.7503,-2.7503,-2.7503,-2.7503,-2.7503,-2.7503,-2.7503,-2.7503,-2.7503,-2.7503,-2.7503,-2.7503,-2.7503,-2.7503,-2.7503,-2.7503,-2.7503,-2.749,-2.7438,-2.7398,-2.7111,-2.6817,-2.6452,-2.6196,-2.5863,-2.5432,-2.5227,-2.5123,-2.4766,-2.4347,-2.4269,-2.4204,-2.4135,-2.3979,-2.3639,-2.3537,-2.3731,-2.3916,-2.406,-2.4021,-2.389,-2.3939,-2.4083,-2.407,-2.3981,-3.4037,-3.4397,-3.4397,-3.4397,-3.4397,-3.4397,-3.4397,-3.4397,-3.4397,-3.4397,-3.4397,-3.4397,-3.4199,-3.3699,-3.2865,-3.237,-3.2174,-3.1707,-3.1384,-3.1461,-3.1254,-3.1189,-3.1034,-3.0928,-3.0887,-3.0911,-3.0811,-3.0773,-3.0761,-3.0685,-3.0609,-3.0761,-3.0836,-3.0874,-3.0862,-3.0949,-3.0986,-3.1024,-3.1024,-3.1024,-3.1024,-3.1024,-3.1024,-3.1024,-3.1024,-3.1011,-3.083,-3.0438,-2.9876,-2.9336,-2.8734,-2.8124,-2.7659,-2.7503,-2.7503,-2.7503,-2.7503,-2.7503,-2.7503,-2.7503,-2.7503,-2.7503,-2.7503,-2.7503,-2.7503,-2.7503,-2.7503,-2.7503,-2.7503,-2.7503,-2.7503,-2.7503,-2.7503,-2.7503,-2.7503,-2.7503,-2.7503,-2.7503,-2.7503,-2.7503,-2.7503,-2.7503,-2.7464,-2.7398,-2.7425,-2.749,-2.7438,-2.7372,-2.7288,-2.7144,-2.6752,-2.6242,-2.5876,-2.5541,-2.5254,-2.4883,-2.4678,-2.4573,-2.453,-2.4178,-2.406,-2.3995,-2.3874,-2.3655,-2.3263,-2.3289,-2.3524,-2.342,-2.3276,-2.342,-2.3602,-2.366,-2.3717,-2.3647,-2.3489,-3.428,-3.4397,-3.4397,-3.4397,-3.4397,-3.4397,-3.4397,-3.4397,-3.4397,-3.4397,-3.4345,-3.4186,-3.3738,-3.3032,-3.2149,-3.163,-3.1539,-3.1358,-3.1035,-3.097,-3.1098,-3.1098,-3.0929,-3.0773,-3.0849,-3.0911,-3.0887,-3.0849,-3.0849,-3.0836,-3.0836,-3.1037,-3.1184,-3.1117,-3.1065,-3.1156,-3.1222,-3.1024,-3.1024,-3.1024,-3.1024,-3.1024,-3.1024,-3.1024,-3.1011,-3.0921,-3.0712,-3.0202,-2.9627,-2.9039,-2.8425,-2.7889,-2.7555,-2.7503,-2.7503,-2.7503,-2.7503,-2.7503,-2.7503,-2.7503,-2.7503,-2.7503,-2.7503,-2.7503,-2.7503,-2.7503,-2.7503,-2.7503,-2.7503,-2.7503,-2.7503,-2.7503,-2.7503,-2.7503,-2.7503,-2.7503,-2.749,-2.7451,-2.7464,-2.7503,-2.7503,-2.7503,-2.7438,-2.7307,-2.732,-2.7438,-2.7398,-2.7242,-2.7,-2.67,-2.6255,-2.572,-2.5533,-2.514,-2.4726,-2.4426,-2.4207,-2.4144,-2.4115,-2.4189,-2.4184,-2.3819,-2.3537,-2.321,-2.2914,-2.2774,-2.2856,-2.2655,-2.2533,-2.2834,-2.3126,-2.3223,-2.3238,-2.3197,-2.3117,-3.394,-3.4397,-3.4371,-3.4358,-3.4371,-3.4397,-3.4384,-3.4254,-3.4345,-3.4345,-3.4212,-3.3725,-3.3178,-3.2566,-3.1876,-3.1423,-3.1448,-3.0983,-3.0712,-3.061,-3.0648,-3.0813,-3.0736,-3.0811,-3.0836,-3.0761,-3.0761,-3.0811,-3.0811,-3.0849,-3.0911,-3.1026,-3.1313,-3.1287,-3.1248,-3.13,-3.1287,-3.1065,-3.1024,-3.1024,-3.1024,-3.1024,-3.1024,-3.0973,-3.0934,-3.0738,-3.0179,-2.9653,-2.9144,-2.8603,-2.8033,-2.7686,-2.7529,-2.7503,-2.7503,-2.7503,-2.7503,-2.7503,-2.7503,-2.7503,-2.7503,-2.7503,-2.7503,-2.7503,-2.7503,-2.7503,-2.7503,-2.7503,-2.7503,-2.7503,-2.7503,-2.7503,-2.7503,-2.7503,-2.7503,-2.7503,-2.7451,-2.7346,-2.7372,-2.7464,-2.7385,-2.719,-2.7111,-2.6948,-2.704,-2.7137,-2.6785,-2.6648,-2.6242,-2.5916,-2.5602,-2.5254,-2.517,-2.4829,-2.4321,-2.4171,-2.4332,-2.4224,-2.4084,-2.4315,-2.4517,-2.3998,-2.3103,-2.2972,-2.2724,-2.2431,-2.22,-2.2205,-2.2286,-2.2458,-2.2643,-2.2777,-2.2857,-2.2843,-2.2817,-3.3156,-3.3352,-3.3352,-3.3561,-3.3901,-3.3901,-3.3692,-3.3456,-3.3744,-3.3914,-3.3849,-3.3206,-3.2579,-3.1928,-3.137,-3.1008,-3.0983,-3.084,-3.0749,-3.0798,-3.0849,-3.0811,-3.0811,-3.0723,-3.0723,-3.0533,-3.0583,-3.0609,-3.052,-3.0696,-3.0798,-3.0953,-3.1197,-3.1169,-3.1156,-3.1222,-3.1156,-3.1091,-3.1024,-3.1024,-3.1024,-3.1024,-3.1024,-3.0986,-3.0518,-3.0361,-2.9996,-2.9183,-2.8712,-2.8307,-2.7777,-2.7581,-2.7503,-2.7503,-2.7503,-2.7503,-2.7503,-2.7503,-2.7503,-2.7503,-2.7503,-2.7503,-2.7503,-2.7503,-2.7503,-2.7503,-2.7503,-2.7503,-2.7503,-2.7503,-2.7503,-2.7503,-2.7503,-2.7503,-2.7503,-2.7503,-2.7359,-2.7236,-2.7098,-2.7124,-2.6798,-2.6485,-2.6504,-2.6478,-2.6661,-2.6804,-2.6386,-2.5999,-2.5656,-2.5415,-2.5212,-2.5077,-2.502,-2.4823,-2.4353,-2.4419,-2.4578,-2.4401,-2.4167,-2.4344,-2.4462,-2.3312,-2.2588,-2.2561,-2.2573,-2.2369,-2.216,-2.1988,-2.2088,-2.2343,-2.2399,-2.2361,-2.2408,-2.2551,-2.2423,-3.2542,-3.2659,-3.2515,-3.2777,-3.3287,-3.3313,-3.3091,-3.2816,-3.3143,-3.3208,-3.3051,-3.2515,-3.1993,-3.1331,-3.0918,-3.0799,-3.0825,-3.0786,-3.0849,-3.0874,-3.0836,-3.0761,-3.0684,-3.0479,-3.0261,-3.0162,-3.0057,-3.0041,-2.9915,-3.0336,-3.0344,-3.0418,-3.0742,-3.0973,-3.1037,-3.1024,-3.1024,-3.1024,-3.1024,-3.1024,-3.1024,-3.079,-3.0699,-3.0607,-3.0163,-2.9719,-2.9418,-2.8791,-2.8373,-2.8059,-2.7745,-2.7529,-2.7503,-2.7503,-2.7503,-2.7503,-2.7503,-2.7503,-2.7503,-2.7503,-2.7503,-2.7503,-2.7503,-2.7503,-2.7503,-2.7503,-2.7503,-2.7503,-2.7503,-2.7503,-2.7503,-2.7503,-2.7503,-2.7503,-2.7503,-2.7464,-2.7157,-2.6948,-2.6844,-2.6733,-2.6482,-2.6392,-2.6427,-2.6445,-2.6166,-2.6205,-2.5803,-2.5511,-2.5332,-2.5151,-2.5146,-2.5045,-2.5012,-2.4744,-2.4505,-2.4666,-2.4852,-2.501,-2.4736,-2.4436,-2.412,-2.304,-2.2369,-2.2407,-2.2421,-2.2318,-2.2189,-2.2052,-2.2135,-2.2307,-2.2254,-2.2212,-2.2698,-2.281,-2.2183,-3.2163,-3.2594,-3.2032,-3.2137,-3.2646,-3.2712,-3.2659,-3.2529,-3.2659,-3.2463,-3.2058,-3.1759,-3.1447,-3.1043,-3.0824,-3.0811,-3.0849,-3.0773,-3.0773,-3.0836,-3.0723,-3.0596,-3.0428,-3.0233,-2.9901,-2.9556,-2.9424,-2.9326,-2.9125,-2.9723,-2.9754,-2.9826,-3.0257,-3.088,-3.0985,-3.1024,-3.1024,-3.1024,-3.1024,-3.1011,-3.079,-3.0464,-3.027,-3.0019,-2.9588,-2.9104,-2.8765,-2.8438,-2.8046,-2.7732,-2.7594,-2.7503,-2.7503,-2.7503,-2.7503,-2.7503,-2.7503,-2.7503,-2.7503,-2.7503,-2.7503,-2.7503,-2.7503,-2.7503,-2.7503,-2.7503,-2.7503,-2.7503,-2.7503,-2.7503,-2.7503,-2.749,-2.749,-2.7372,-2.7346,-2.715,-2.6831,-2.6596,-2.6456,-2.6511,-2.6622,-2.664,-2.6617,-2.6485,-2.5948,-2.5614,-2.5169,-2.4995,-2.5047,-2.5012,-2.504,-2.5213,-2.5216,-2.5244,-2.509,-2.5008,-2.5121,-2.5328,-2.498,-2.4264,-2.3897,-2.3261,-2.2743,-2.2469,-2.2485,-2.2596,-2.2376,-2.2133,-2.2297,-2.2423,-2.2203,-2.225,-2.282,-2.2896,-2.2109,-3.1392,-3.1535,-3.1352,-3.1378,-3.1601,-3.1967,-3.1927,-3.1666,-3.1914,-3.198,-3.1836,-3.172,-3.1433,-3.1092,-3.0911,-3.0836,-3.0761,-3.0773,-3.0773,-3.0583,-3.052,-3.0533,-3.0352,-2.9951,-2.9643,-2.9393,-2.913,-2.8802,-2.8787,-2.9197,-2.9269,-2.933,-2.967,-3.0268,-3.0777,-3.1024,-3.1024,-3.1024,-3.0985,-3.0817,-3.0451,-3.0153,-2.9865,-2.9562,-2.9035,-2.8603,-2.8355,-2.8059,-2.7725,-2.7529,-2.7503,-2.7503,-2.7503,-2.7503,-2.7503,-2.7503,-2.7503,-2.7503,-2.7503,-2.7503,-2.7503,-2.7503,-2.7503,-2.7503,-2.7503,-2.7503,-2.7503,-2.751,-2.7524,-2.7504,-2.7503,-2.751,-2.7419,-2.7,-2.6844,-2.6582,-2.6311,-2.6144,-2.6066,-2.631,-2.6467,-2.6133,-2.5989,-2.6554,-2.6246,-2.5768,-2.5453,-2.5239,-2.5213,-2.5087,-2.5046,-2.5369,-2.5536,-2.5674,-2.5687,-2.5478,-2.5201,-2.5236,-2.4377,-2.3181,-2.2953,-2.3244,-2.2989,-2.2639,-2.2772,-2.292,-2.2748,-2.2612,-2.2566,-2.2535,-2.2383,-2.2175,-2.2411,-2.231,-2.1732,-3.1024,-3.1024,-3.1024,-3.1024,-3.1039,-3.1392,-3.1313,-3.1078,-3.1378,-3.151,-3.1535,-3.1484,-3.1276,-3.0989,-3.0874,-3.0798,-3.0609,-3.0571,-3.0414,-3.0238,-3.0224,-3.0044,-2.9811,-2.9499,-2.906,-2.8888,-2.8563,-2.8212,-2.8208,-2.8598,-2.8902,-2.909,-2.9056,-2.9536,-3.0124,-3.0451,-3.0503,-3.0451,-3.0359,-3.0372,-2.9941,-2.9575,-2.9301,-2.8895,-2.8464,-2.8059,-2.7981,-2.7738,-2.7503,-2.7503,-2.7503,-2.7503,-2.7503,-2.7503,-2.7503,-2.7503,-2.7503,-2.7503,-2.7503,-2.7503,-2.7503,-2.7503,-2.7503,-2.7503,-2.7503,-2.7503,-2.7723,-2.7749,-2.7637,-2.7681,-2.7739,-2.7706,-2.7346,-2.697,-2.6836,-2.6614,-2.6247,-2.614,-2.5937,-2.6179,-2.6284,-2.5841,-2.5797,-2.6233,-2.664,-2.6207,-2.5784,-2.5646,-2.5508,-2.5453,-2.5467,-2.581,-2.6013,-2.6092,-2.6054,-2.5807,-2.5528,-2.5225,-2.4168,-2.2968,-2.3198,-2.3649,-2.3217,-2.2844,-2.2912,-2.3009,-2.3165,-2.3143,-2.3054,-2.2897,-2.2717,-2.2466,-2.218,-2.1945,-2.1708,-3.0973,-3.096,-3.096,-3.0921,-3.0908,-3.0856,-3.0895,-3.0973,-3.0999,-3.1026,-3.1013,-3.1027,-3.0875,-3.0749,-3.0698,-3.0558,-3.0367,-3.0329,-3.0032,-2.9811,-2.9621,-2.9374,-2.9047,-2.864,-2.8546,-2.8166,-2.7828,-2.7746,-2.7613,-2.8056,-2.8599,-2.8834,-2.8508,-2.8791,-2.9209,-2.9601,-2.9719,-2.9758,-2.9876,-2.9758,-2.9327,-2.8878,-2.8608,-2.8281,-2.7941,-2.7686,-2.7607,-2.7529,-2.7503,-2.7503,-2.7503,-2.7503,-2.7503,-2.7503,-2.7503,-2.7556,-2.759,-2.7776,-2.7809,-2.7875,-2.7842,-2.7927,-2.7683,-2.7584,-2.7617,-2.7716,-2.7929,-2.7993,-2.7904,-2.8075,-2.8183,-2.7864,-2.7531,-2.7409,-2.7339,-2.6993,-2.6549,-2.6287,-2.6036,-2.6078,-2.62,-2.6229,-2.6707,-2.7086,-2.6982,-2.6747,-2.6457,-2.6549,-2.6416,-2.627,-2.6363,-2.6625,-2.6701,-2.6591,-2.6378,-2.5904,-2.5442,-2.5013,-2.4485,-2.358,-2.388,-2.3815,-2.337,-2.3024,-2.2979,-2.3068,-2.329,-2.3421,-2.3486,-2.3312,-2.3054,-2.2912,-2.2649,-2.2457,-2.2296,-3.0751,-3.0348,-3.0335,-3.0137,-2.9797,-2.965,-3.0092,-3.0921,-3.0849,-3.0811,-3.0773,-3.0647,-3.0596,-3.0482,-3.0622,-3.0289,-3.0019,-2.9788,-2.9466,-2.9222,-2.9078,-2.906,-2.8821,-2.8473,-2.8334,-2.8108,-2.7795,-2.7469,-2.7542,-2.7764,-2.779,-2.7881,-2.7934,-2.8033,-2.8255,-2.8608,-2.8908,-2.9183,-2.9392,-2.9131,-2.8839,-2.8412,-2.8137,-2.7803,-2.7646,-2.7503,-2.7503,-2.7503,-2.7503,-2.7503,-2.7503,-2.7503,-2.7503,-2.7536,-2.759,-2.8235,-2.8597,-2.8953,-2.8921,-2.8907,-2.8743,-2.8497,-2.8383,-2.822,-2.8197,-2.8139,-2.8239,-2.8188,-2.7977,-2.7968,-2.802,-2.7838,-2.7513,-2.7357,-2.7286,-2.7045,-2.6634,-2.6478,-2.6266,-2.6346,-2.6443,-2.6733,-2.7306,-2.7408,-2.7265,-2.7137,-2.7111,-2.7188,-2.7188,-2.6982,-2.693,-2.7159,-2.6954,-2.6695,-2.6155,-2.5666,-2.523,-2.4756,-2.4237,-2.3837,-2.3718,-2.3562,-2.3334,-2.3246,-2.3246,-2.3312,-2.3443,-2.3551,-2.3595,-2.3595,-2.3399,-2.329,-2.3135,-2.2912,-2.2777,-3.0098,-2.9823,-2.9784,-2.9588,-2.9314,-2.9084,-2.9561,-3.0257,-3.0258,-3.039,-3.0672,-3.0571,-3.052,-3.052,-3.0364,-3.0043,-2.9561,-2.9413,-2.9099,-2.8673,-2.864,-2.849,-2.8365,-2.8157,-2.7936,-2.7801,-2.7603,-2.7302,-2.7403,-2.7503,-2.7529,-2.7555,-2.7503,-2.7503,-2.7659,-2.7934,-2.8216,-2.8503,-2.8673,-2.8503,-2.8294,-2.8059,-2.7798,-2.7594,-2.7503,-2.7503,-2.7523,-2.7523,-2.7536,-2.759,-2.7656,-2.7908,-2.8006,-2.8157,-2.8371,-2.8894,-2.8806,-2.894,-2.8856,-2.8663,-2.8724,-2.8762,-2.8672,-2.8568,-2.8342,-2.8184,-2.8326,-2.8348,-2.7953,-2.7669,-2.7753,-2.7764,-2.7432,-2.7155,-2.7054,-2.6938,-2.6792,-2.67,-2.6709,-2.6762,-2.693,-2.7178,-2.7408,-2.7509,-2.756,-2.7408,-2.7357,-2.7408,-2.7433,-2.7331,-2.7229,-2.7316,-2.6981,-2.6603,-2.6033,-2.5427,-2.4947,-2.4484,-2.403,-2.3688,-2.3538,-2.3508,-2.3443,-2.3465,-2.353,-2.3573,-2.3566,-2.3573,-2.3595,-2.3595,-2.3595,-2.3486,-2.3355,-2.3246,-2.3157,-2.9297,-2.9196,-2.9192,-2.9078,-2.9095,-2.8863,-2.8976,-2.9203,-2.9297,-2.9776,-3.0376,-3.0479,-3.0351,-3.0107,-2.9897,-2.9566,-2.922,-2.9006,-2.8637,-2.8071,-2.8148,-2.8035,-2.7728,-2.7382,-2.7457,-2.7312,-2.7214,-2.7268,-2.7335,-2.7436,-2.7503,-2.7503,-2.7503,-2.7503,-2.7529,-2.7568,-2.7738,-2.7855,-2.8098,-2.8098,-2.7792,-2.7562,-2.7556,-2.7503,-2.7503,-2.7536,-2.759,-2.7623,-2.759,-2.7875,-2.8157,-2.8565,-2.8621,-2.8959,-2.9302,-2.9247,-2.8988,-2.8964,-2.8867,-2.8639,-2.8323,-2.8311,-2.8254,-2.8495,-2.8439,-2.8269,-2.8382,-2.8378,-2.8041,-2.7788,-2.7817,-2.7724,-2.7497,-2.7365,-2.7306,-2.7247,-2.7214,-2.7086,-2.7008,-2.71,-2.7229,-2.7433,-2.7484,-2.7585,-2.7585,-2.7549,-2.7549,-2.7585,-2.747,-2.7419,-2.7245,-2.7175,-2.6494,-2.5974,-2.5704,-2.5128,-2.4649,-2.4194,-2.3798,-2.3649,-2.3566,-2.3573,-2.3595,-2.3595,-2.3595,-2.3595,-2.3573,-2.3595,-2.3595,-2.3595,-2.3595,-2.3595,-2.353,-2.3443,-2.3421,-2.9048,-2.8556,-2.8124,-2.7887,-2.7785,-2.7704,-2.7989,-2.8351,-2.827,-2.8682,-2.929,-2.9246,-2.9198,-2.9273,-2.9277,-2.9006,-2.8614,-2.8529,-2.8152,-2.7806,-2.7696,-2.7696,-2.7361,-2.7235,-2.7201,-2.7235,-2.7268,-2.7281,-2.7403,-2.7469,-2.7503,-2.7503,-2.7503,-2.7503,-2.7503,-2.7536,-2.7603,-2.7649,-2.7961,-2.806,-2.7808,-2.7973,-2.8105,-2.7776,-2.759,-2.7908,-2.8059,-2.8241,-2.8583,-2.8953,-2.9111,-2.9,-2.8597,-2.9176,-2.9216,-2.8973,-2.9085,-2.9096,-2.905,-2.8832,-2.8686,-2.8666,-2.8754,-2.8655,-2.8524,-2.8417,-2.8316,-2.8261,-2.8159,-2.795,-2.7778,-2.7679,-2.7585,-2.7585,-2.7585,-2.7585,-2.7585,-2.7458,-2.7331,-2.7408,-2.7509,-2.756,-2.7585,-2.7585,-2.7585,-2.7585,-2.756,-2.7525,-2.7285,-2.7141,-2.6667,-2.6404,-2.5553,-2.5068,-2.4993,-2.4777,-2.4261,-2.4007,-2.3708,-2.3603,-2.3595,-2.3595,-2.3595,-2.3595,-2.3595,-2.3595,-2.3595,-2.3595,-2.3595,-2.3595,-2.3595,-2.3595,-2.3595,-2.353,-2.3551,-2.8307,-2.7981,-2.7667,-2.7469,-2.7403,-2.7335,-2.7517,-2.7764,-2.7666,-2.7834,-2.8386,-2.8634,-2.8808,-2.8789,-2.8802,-2.8603,-2.8196,-2.803,-2.7855,-2.7548,-2.7456,-2.7449,-2.7302,-2.7214,-2.7248,-2.7268,-2.7302,-2.7335,-2.7436,-2.7469,-2.7503,-2.7536,-2.7536,-2.7556,-2.759,-2.7756,-2.7941,-2.7973,-2.8403,-2.8551,-2.8338,-2.8468,-2.8629,-2.8274,-2.8454,-2.8661,-2.8744,-2.8894,-2.8931,-2.9055,-2.8983,-2.9201,-2.903,-2.9374,-2.9382,-2.9171,-2.9127,-2.9146,-2.9097,-2.8978,-2.8843,-2.8663,-2.8528,-2.8081,-2.8077,-2.7947,-2.7947,-2.7876,-2.7846,-2.7694,-2.7694,-2.76,-2.7585,-2.7585,-2.7585,-2.7585,-2.7585,-2.7534,-2.7484,-2.7509,-2.756,-2.756,-2.7585,-2.7585,-2.7585,-2.7585,-2.7585,-2.7255,-2.7046,-2.6641,-2.6213,-2.5749,-2.4948,-2.4649,-2.4739,-2.4365,-2.3834,-2.364,-2.3595,-2.3595,-2.3595,-2.3595,-2.3595,-2.3595,-2.3595,-2.3595,-2.3595,-2.3595,-2.3595,-2.3595,-2.3595,-2.3595,-2.3595,-2.3595,-2.3595,-2.7529,-2.7469,-2.7503,-2.7503,-2.7469,-2.7369,-2.7416,-2.7482,-2.7348,-2.7361,-2.7598,-2.8342,-2.8837,-2.8821,-2.8569,-2.8386,-2.8206,-2.8059,-2.7755,-2.7669,-2.7643,-2.7676,-2.759,-2.7369,-2.7315,-2.7291,-2.7359,-2.7371,-2.7403,-2.7352,-2.7373,-2.7537,-2.7656,-2.7676,-2.7908,-2.8254,-2.8629,-2.8839,-2.9237,-2.9766,-2.9518,-2.9048,-2.9142,-2.9362,-2.9518,-2.9535,-2.9566,-2.9414,-2.916,-2.9109,-2.8987,-2.8994,-2.9108,-2.924,-2.9104,-2.8946,-2.8588,-2.8502,-2.8382,-2.8109,-2.7884,-2.769,-2.7585,-2.76,-2.763,-2.7645,-2.7645,-2.763,-2.76,-2.7585,-2.7585,-2.7585,-2.7585,-2.7585,-2.7585,-2.7585,-2.7585,-2.7585,-2.7585,-2.7585,-2.7585,-2.7585,-2.7555,-2.7555,-2.7465,-2.748,-2.727,-2.6956,-2.6566,-2.5974,-2.5457,-2.5098,-2.456,-2.441,-2.4395,-2.4111,-2.3595,-2.3595,-2.3595,-2.3595,-2.3595,-2.3595,-2.3595,-2.3595,-2.3595,-2.3595,-2.3595,-2.3595,-2.3595,-2.3595,-2.3595,-2.3595,-2.3595,-2.3595,-2.3595,-2.7423,-2.7369,-2.7469,-2.7436,-2.7369,-2.7436,-2.7456,-2.7469,-2.7369,-2.7335,-2.74,-2.7309,-2.7537,-2.7842,-2.765,-2.7631,-2.7898,-2.7947,-2.8183,-2.817,-2.8059,-2.8105,-2.7966,-2.7571,-2.7289,-2.7215,-2.7327,-2.7516,-2.7321,-2.7078,-2.7392,-2.8193,-2.8247,-2.8492,-2.9006,-2.923,-2.9205,-2.9321,-2.9431,-2.9813,-3.0245,-2.9942,-2.9813,-2.9721,-2.9518,-2.9858,-3.0002,-2.975,-2.9828,-2.9865,-2.9516,-2.9074,-2.8883,-2.8783,-2.8577,-2.8393,-2.7993,-2.7964,-2.7824,-2.772,-2.7585,-2.7585,-2.7585,-2.7585,-2.76,-2.76,-2.7615,-2.7615,-2.7585,-2.7585,-2.7585,-2.7585,-2.7585,-2.7585,-2.7585,-2.7585,-2.7585,-2.7585,-2.7585,-2.7585,-2.7585,-2.7525,-2.7435,-2.7255,-2.6866,-2.6761,-2.6408,-2.6093,-2.5869,-2.5307,-2.4784,-2.4455,-2.4126,-2.3887,-2.3774,-2.3894,-2.3595,-2.3595,-2.3595,-2.3595,-2.3595,-2.3595,-2.3595,-2.3595,-2.3595,-2.3595,-2.3595,-2.3595,-2.3595,-2.3595,-2.3595,-2.3595,-2.3595,-2.3595,-2.3595]},{"header":{"parameterUnit":"m.s-1","parameterCategory":1,"la1":31.0,"la2":29.5877,"lo1":-88.7671,"lo2":-86.6584,"dy":0.0162,"dx":0.0185,"nx":115,"ny":88,"refTime":"2024-10-10T18:00:00:Z","depth":0,"parameterNumber":3,"parameterNumberName":"V-component_of_WINDS"},"data":[0.0,0.0,0.0,0.0,0.0,0.0,0.0,0.0,0.0,0.0,0.0,0.0,0.0,0.0,0.0,0.0,0.0,0.0,0.0,0.0,0.0,0.0,0.0,0.0,0.0,0.0,0.0,0.0,0.0,0.0,0.0,0.0,0.0,0.0,0.0,0.0,0.0,0.0,0.0,0.0,0.0,0.0,0.0,0.0,0.0,0.0,0.0,0.0,0.0,0.0,0.0,0.0,0.0,0.0,0.0,0.0,0.0,0.0,0.0,0.0,0.0,0.0,0.0,0.0,0.0,0.0,0.0,0.0,0.0,0.0,0.0,0.0,0.0,0.0,0.0,0.0,0.0,0.0,0.0,0.0,0.0,0.0,0.0,0.0,0.0,0.0,0.0,0.0,0.0,0.0,0.0,0.0,0.0,0.0,0.0,0.0,0.0,0.0,0.0,0.0,0.0,0.0,0.0,0.0,0.0,0.0,0.0,0.0,0.0,0.0,0.0,0.0,0.0,0.0,0.0,0.0,0.0,0.0,0.0,0.0,0.0,0.0,0.0,0.0,0.0,0.0,0.0,0.0,0.0,0.0,0.0,0.0,0.0,0.0,0.0,0.0,0.0,0.0,0.0,0.0,0.0,0.0,0.0,0.0,0.0,0.0,0.0,0.0,0.0,0.0,0.0,0.0,0.0,0.0,0.0,0.0,0.0,0.0,0.0,0.0,0.0,0.0,0.0,0.0,0.0,0.0,0.0,0.0,0.0,0.0,0.0,0.0,0.0,0.0,0.0,0.0,0.0,0.0,0.0,0.0,0.0,0.0,0.0,0.0,0.0,0.0,0.0,0.0,0.0,0.0,0.0,0.0,0.0,0.0,0.0,0.0,0.0,0.0,0.0,0.0,0.0,0.0,0.0,0.0,0.0,0.0,0.0,0.0,0.0,0.0,0.0,0.0,0.0,0.0,0.0,0.0,0.0,0.0,0.0,0.0,0.0,0.0,0.0,0.0,0.0,0.0,0.0,0.0,0.0,0.0,0.0,0.0,0.0,0.0,0.0,0.0,0.0,0.0,0.0,0.0,0.0,0.0,0.0,0.0,0.0,0.0,0.0,0.0,0.0,0.0,0.0,0.0,0.0,0.0,0.0,0.0,0.0,0.0,0.0,0.0,0.0,0.0,0.0,0.0,0.0,0.0,0.0,0.0,0.0,0.0,0.0,0.0,0.0,0.0,0.0,0.0,0.0,0.0,0.0,0.0,0.0,0.0,0.0,0.0,0.0,0.0,0.0,0.0,0.0,0.0,0.0,0.0,0.0,0.0,0.0,0.0,0.0,0.0,0.0,0.0,0.0,0.0,0.0,0.0,0.0,0.0,0.0,0.0,0.0,0.0,0.0,0.0,0.0,0.0,0.0,0.0,0.0,0.0,0.0,0.0,0.0,0.0,0.0,0.0,0.0,0.0,0.0,0.0,0.0,0.0,0.0,0.0,0.0,0.0,0.0,0.0,0.0,0.0,0.0,0.0,0.0,0.0,0.0,0.0,0.0,0.0,0.0,0.0,0.0,0.0,0.0,0.0,0.0,0.0,0.0,0.0,0.0,0.0,0.0,0.0,0.0,0.0,0.0,0.0,0.0,0.0,0.0,0.0,0.0,0.0,0.0,0.0,0.0,0.0,0.0,0.0,0.0,0.0,0.0,0.0,0.0,0.0,0.0,0.0,0.0,0.0,0.0,0.0,0.0,0.0,0.0,0.0,0.0,0.0,0.0,0.0,0.0,0.0,0.0,0.0,0.0,0.0,0.0,0.0,0.0,0.0,0.0,0.0,0.0,0.0,0.0,0.0,0.0,0.0,0.0,0.0,0.0,0.0,0.0,0.0,0.0,0.0,0.0,0.0,0.0,0.0,0.0,0.0,0.0,0.0,0.0,0.0,0.0,0.0,0.0,0.0,0.0,0.0,0.0,0.0,0.0,0.0,0.0,0.0,0.0,0.0,0.0,0.0,0.0,0.0,0.0,0.0,0.0,0.0,0.0,0.0,0.0,0.0,0.0,0.0,0.0,0.0,0.0,0.0,0.0,0.0,0.0,0.0,0.0,0.0,0.0,0.0,0.0,0.0,0.0,0.0,0.0,0.0,0.0,0.0,0.0,0.0,0.0,0.0,0.0,0.0,0.0,0.0,0.0,0.0,0.0,0.0,0.0,0.0,0.0,0.0,0.0,0.0,0.0,0.0,0.0,0.0,0.0,0.0,0.0,0.0,0.0,0.0,0.0,0.0,0.0,0.0,0.0,0.0,0.0,0.0,0.0,0.0,0.0,0.0,0.0,0.0,0.0,0.0,0.0,0.0,0.0,0.0,0.0,0.0,0.0,0.0,0.0,0.0,0.0,0.0,0.0,0.0,0.0,0.0,0.0,0.0,0.0,0.0,0.0,0.0,0.0,0.0,0.0,0.0,0.0,0.0,0.0,0.0,0.0,0.0,0.0,0.0,0.0,0.0,0.0,0.0,0.0,0.0,0.0,0.0,0.0,0.0,0.0,0.0,0.0,0.0,0.0,0.0,0.0,0.0,0.0,0.0,0.0,0.0,0.0,0.0,0.0,0.0,0.0,0.0,0.0,0.0,0.0,0.0,0.0,0.0,0.0,0.0,0.0,0.0,0.0,0.0,0.0,0.0,0.0,0.0,0.0,0.0,0.0,0.0,0.0,0.0,0.0,0.0,0.0,0.0,0.0,0.0,0.0,0.0,0.0,0.0,0.0,0.0,0.0,0.0,0.0,0.0,0.0,0.0,0.0,0.0,0.0,0.0,0.0,0.0,0.0,0.0,0.0,0.0,0.0,0.0,0.0,0.0,0.0,0.0,0.0,0.0,0.0,0.0,0.0,0.0,0.0,0.0,0.0,0.0,0.0,0.0,0.0,0.0,0.0,0.0,0.0,0.0,0.0,0.0,0.0,0.0,0.0,0.0,0.0,0.0,0.0,0.0,0.0,0.0,0.0,0.0,0.0,0.0,0.0,0.0,0.0,0.0,0.0,0.0,0.0,0.0,0.0,0.0,0.0,0.0,0.0,0.0,0.0,0.0,0.0,0.0,0.0,0.0,0.0,0.0,0.0,0.0,0.0,0.0,0.0,0.0,0.0,0.0,0.0,0.0,0.0,0.0,0.0,0.0,0.0,0.0,0.0,0.0,0.0,0.0,0.0,0.0,0.0,0.0,0.0,0.0,0.0,0.0,0.0,0.0,0.0,0.0,0.0,0.0,0.0,0.0,0.0,0.0,0.0,0.0,0.0,0.0,0.0,0.0,0.0,0.0,0.0,0.0,0.0,0.0,0.0,0.0,0.0,0.0,0.0,0.0,0.0,0.0,0.0,0.0,0.0,0.0,0.0,0.0,0.0,0.0,0.0,0.0,0.0,0.0,0.0,0.0,0.0,0.0,0.0,0.0,0.0,0.0,0.0,0.0,0.0,0.0,0.0,0.0,0.0,0.0,0.0,0.0,0.0,0.0,0.0,0.0,0.0,0.0,0.0,0.0,0.0,0.0,0.0,0.0,0.0,0.0,0.0,0.0,0.0,0.0,0.0,0.0,0.0,0.0,0.0,0.0,0.0,0.0,0.0,0.0,0.0,0.0,0.0,0.0,0.0,0.0,0.0,0.0,0.0,0.0,0.0,0.0,0.0,0.0,0.0,0.0,0.0,0.0,0.0,0.0,0.0,0.0,0.0,0.0,0.0,0.0,0.0,0.0,0.0,0.0,0.0,0.0,0.0,0.0,0.0,0.0,0.0,0.0,0.0,0.0,0.0,0.0,0.0,0.0,0.0,0.0,0.0,0.0,0.0,0.0,0.0,0.0,0.0,0.0,0.0,0.0,0.0,0.0,0.0,0.0,0.0,0.0,0.0,0.0,0.0,0.0,0.0,0.0,0.0,0.0,0.0,0.0,0.0,0.0,0.0,0.0,0.0,0.0,0.0,0.0,0.0,0.0,0.0,0.0,0.0,0.0,0.0,0.0,0.0,0.0,0.0,0.0,0.0,0.0,0.0,0.0,0.0,0.0,0.0,0.0,0.0,0.0,0.0,0.0,0.0,0.0,0.0,0.0,0.0,0.0,0.0,0.0,0.0,0.0,0.0,0.0,0.0,0.0,0.0,0.0,0.0,0.0,0.0,0.0,0.0,0.0,0.0,0.0,0.0,0.0,0.0,0.0,0.0,0.0,0.0,0.0,0.0,0.0,0.0,0.0,0.0,0.0,0.0,0.0,0.0,0.0,0.0,0.0,0.0,0.0,0.0,0.0,-1.5056,0.0,0.0,0.0,0.0,0.0,0.0,0.0,0.0,0.0,0.0,0.0,0.0,0.0,0.0,0.0,0.0,0.0,0.0,0.0,0.0,0.0,0.0,0.0,0.0,0.0,0.0,0.0,0.0,0.0,0.0,0.0,0.0,0.0,0.0,0.0,0.0,0.0,0.0,0.0,0.0,0.0,0.0,0.0,0.0,0.0,0.0,0.0,0.0,0.0,0.0,0.0,0.0,0.0,0.0,0.0,0.0,0.0,0.0,0.0,0.0,0.0,0.0,0.0,0.0,0.0,0.0,0.0,0.0,0.0,0.0,0.0,0.0,0.0,0.0,0.0,0.0,0.0,0.0,0.0,0.0,0.0,0.0,0.0,0.0,0.0,0.0,0.0,0.0,0.0,0.0,0.0,0.0,0.0,0.0,0.0,0.0,0.0,0.0,0.0,0.0,0.0,0.0,0.0,0.0,0.0,0.0,0.0,0.0,0.0,0.0,-1.6467,-1.6178,-1.5814,-1.5466,-1.5193,0.0,0.0,0.0,0.0,0.0,0.0,0.0,0.0,0.0,0.0,0.0,0.0,0.0,0.0,0.0,0.0,0.0,0.0,0.0,0.0,0.0,0.0,0.0,0.0,0.0,0.0,0.0,0.0,0.0,0.0,0.0,0.0,0.0,0.0,0.0,0.0,0.0,0.0,0.0,0.0,0.0,0.0,0.0,0.0,0.0,0.0,0.0,0.0,0.0,0.0,0.0,0.0,0.0,0.0,0.0,0.0,0.0,0.0,0.0,0.0,0.0,0.0,0.0,0.0,0.0,0.0,0.0,0.0,0.0,0.0,0.0,0.0,0.0,0.0,0.0,0.0,0.0,0.0,0.0,0.0,0.0,0.0,0.0,0.0,0.0,0.0,0.0,0.0,0.0,0.0,0.0,0.0,0.0,0.0,0.0,0.0,0.0,0.0,0.0,0.0,0.0,0.0,0.0,0.0,0.0,0.0,0.0,0.0,0.0,0.0,0.0,0.0,-1.6052,-1.5646,-1.5515,0.0,0.0,0.0,0.0,0.0,0.0,0.0,0.0,0.0,0.0,0.0,0.0,0.0,0.0,0.0,0.0,0.0,0.0,0.0,0.0,0.0,0.0,0.0,0.0,0.0,0.0,0.0,0.0,0.0,0.0,0.0,0.0,0.0,0.0,0.0,0.0,0.0,0.0,0.0,0.0,0.0,0.0,0.0,0.0,0.0,0.0,0.0,0.0,0.0,0.0,0.0,0.0,0.0,0.0,0.0,0.0,0.0,0.0,0.0,0.0,0.0,0.0,0.0,0.0,0.0,0.0,0.0,0.0,0.0,0.0,0.0,0.0,0.0,0.0,0.0,0.0,0.0,0.0,0.0,0.0,0.0,0.0,0.0,0.0,0.0,0.0,0.0,0.0,0.0,0.0,0.0,0.0,0.0,0.0,0.0,0.0,0.0,0.0,0.0,0.0,0.0,0.0,0.0,0.0,0.0,0.0,0.0,0.0,0.0,0.0,-1.6211,-1.7937,-1.7359,0.0,-1.6168,0.0,0.0,0.0,0.0,0.0,0.0,0.0,0.0,0.0,0.0,0.0,0.0,0.0,0.0,0.0,0.0,0.0,0.0,0.0,0.0,0.0,0.0,0.0,0.0,0.0,0.0,0.0,0.0,0.0,0.0,0.0,0.0,0.0,0.0,0.0,0.0,0.0,0.0,0.0,0.0,0.0,0.0,0.0,0.0,0.0,0.0,0.0,0.0,0.0,0.0,0.0,0.0,0.0,0.0,0.0,0.0,0.0,0.0,0.0,0.0,0.0,0.0,0.0,0.0,0.0,0.0,0.0,0.0,0.0,0.0,0.0,0.0,0.0,0.0,0.0,0.0,0.0,0.0,0.0,0.0,0.0,0.0,0.0,0.0,0.0,0.0,0.0,0.0,0.0,0.0,0.0,0.0,0.0,0.0,0.0,0.0,0.0,0.0,0.0,0.0,0.0,0.0,0.0,0.0,0.0,0.0,0.0,0.0,0.0,0.0,-1.6791,-1.7592,-1.6951,-1.6472,0.0,0.0,0.0,0.0,0.0,0.0,0.0,0.0,0.0,0.0,0.0,0.0,0.0,0.0,0.0,0.0,0.0,0.0,0.0,0.0,0.0,0.0,0.0,0.0,0.0,0.0,0.0,0.0,0.0,0.0,0.0,0.0,0.0,0.0,0.0,0.0,0.0,0.0,0.0,0.0,0.0,0.0,0.0,0.0,0.0,0.0,0.0,0.0,0.0,0.0,0.0,0.0,0.0,0.0,0.0,0.0,0.0,0.0,0.0,0.0,0.0,0.0,0.0,0.0,0.0,0.0,0.0,0.0,0.0,0.0,0.0,0.0,0.0,0.0,0.0,0.0,0.0,0.0,0.0,0.0,0.0,0.0,0.0,0.0,0.0,0.0,0.0,0.0,0.0,0.0,0.0,0.0,0.0,0.0,0.0,0.0,0.0,0.0,0.0,0.0,0.0,0.0,0.0,0.0,0.0,0.0,0.0,0.0,0.0,0.0,-1.6817,-1.7098,-1.7432,-1.7011,-1.6414,-1.5689,0.0,0.0,0.0,0.0,0.0,0.0,0.0,0.0,0.0,0.0,0.0,0.0,0.0,0.0,0.0,0.0,0.0,0.0,0.0,0.0,0.0,0.0,0.0,0.0,0.0,0.0,0.0,0.0,0.0,0.0,0.0,0.0,0.0,0.0,0.0,0.0,0.0,0.0,0.0,0.0,0.0,0.0,0.0,0.0,0.0,0.0,0.0,0.0,0.0,0.0,0.0,0.0,0.0,0.0,0.0,0.0,0.0,0.0,0.0,0.0,0.0,0.0,0.0,0.0,0.0,0.0,0.0,0.0,0.0,0.0,0.0,0.0,0.0,0.0,0.0,0.0,0.0,0.0,0.0,0.0,0.0,0.0,0.0,0.0,0.0,0.0,0.0,0.0,0.0,0.0,0.0,0.0,0.0,0.0,0.0,0.0,0.0,0.0,0.0,0.0,0.0,0.0,0.0,0.0,0.0,0.0,0.0,0.0,0.0,-1.7394,-1.6866,-1.8129,-1.8129,-1.6953,0.0,0.0,0.0,0.0,0.0,0.0,0.0,0.0,0.0,0.0,0.0,0.0,0.0,0.0,0.0,0.0,0.0,0.0,0.0,0.0,0.0,0.0,0.0,0.0,0.0,0.0,0.0,0.0,0.0,0.0,0.0,0.0,0.0,0.0,0.0,0.0,0.0,0.0,0.0,0.0,0.0,0.0,0.0,0.0,0.0,0.0,0.0,0.0,0.0,0.0,0.0,0.0,0.0,0.0,0.0,0.0,0.0,0.0,0.0,0.0,0.0,0.0,0.0,0.0,0.0,0.0,0.0,0.0,0.0,0.0,0.0,0.0,0.0,0.0,0.0,0.0,0.0,0.0,0.0,0.0,0.0,0.0,0.0,0.0,0.0,0.0,0.0,0.0,0.0,0.0,0.0,0.0,0.0,0.0,0.0,0.0,0.0,0.0,0.0,0.0,0.0,0.0,0.0,0.0,0.0,0.0,0.0,0.0,0.0,-1.5872,-1.5727,-1.6849,-1.9217,-1.7026,-1.582,0.0,0.0,0.0,0.0,0.0,0.0,0.0,0.0,0.0,0.0,0.0,0.0,0.0,0.0,0.0,0.0,0.0,0.0,0.0,0.0,0.0,0.0,0.0,0.0,0.0,0.0,0.0,0.0,0.0,0.0,0.0,0.0,0.0,0.0,0.0,0.0,0.0,0.0,0.0,0.0,0.0,0.0,0.0,0.0,0.0,0.0,0.0,0.0,0.0,0.0,0.0,0.0,0.0,0.0,0.0,0.0,0.0,0.0,0.0,0.0,0.0,0.0,0.0,0.0,0.0,0.0,0.0,0.0,0.0,0.0,0.0,0.0,0.0,0.0,0.0,0.0,0.0,0.0,0.0,0.0,0.0,0.0,0.0,0.0,0.0,0.0,0.0,0.0,0.0,0.0,0.0,0.0,0.0,0.0,0.0,0.0,0.0,0.0,0.0,0.0,0.0,0.0,0.0,0.0,0.0,0.0,0.0,0.0,0.0,-1.5157,0.0,-1.7831,0.0,-1.6731,-1.5328,0.0,0.0,0.0,0.0,0.0,0.0,0.0,0.0,0.0,0.0,0.0,0.0,0.0,0.0,0.0,0.0,0.0,0.0,0.0,0.0,0.0,0.0,0.0,0.0,0.0,0.0,0.0,0.0,0.0,0.0,0.0,0.0,0.0,0.0,0.0,0.0,0.0,0.0,0.0,0.0,0.0,0.0,0.0,0.0,0.0,0.0,0.0,0.0,0.0,0.0,0.0,0.0,0.0,0.0,0.0,0.0,0.0,0.0,0.0,0.0,0.0,0.0,0.0,0.0,0.0,0.0,0.0,0.0,0.0,0.0,0.0,0.0,0.0,0.0,0.0,0.0,0.0,0.0,0.0,0.0,0.0,0.0,0.0,0.0,0.0,0.0,0.0,0.0,0.0,0.0,0.0,0.0,0.0,0.0,0.0,0.0,0.0,0.0,0.0,0.0,0.0,0.0,0.0,0.0,0.0,0.0,0.0,0.0,-1.5098,-1.8007,-1.9652,-1.962,-1.8029,-1.7413,-1.5476,0.0,0.0,0.0,0.0,0.0,0.0,0.0,0.0,0.0,0.0,0.0,0.0,0.0,0.0,0.0,0.0,0.0,0.0,0.0,0.0,0.0,0.0,0.0,0.0,0.0,0.0,0.0,0.0,0.0,0.0,0.0,0.0,0.0,0.0,0.0,0.0,0.0,0.0,0.0,0.0,0.0,0.0,0.0,0.0,0.0,0.0,0.0,0.0,0.0,0.0,0.0,0.0,0.0,0.0,0.0,0.0,0.0,0.0,0.0,0.0,0.0,0.0,0.0,0.0,0.0,0.0,0.0,0.0,0.0,0.0,0.0,0.0,0.0,0.0,0.0,0.0,0.0,0.0,0.0,0.0,0.0,0.0,0.0,0.0,0.0,0.0,0.0,0.0,0.0,0.0,0.0,0.0,0.0,0.0,0.0,0.0,0.0,0.0,0.0,0.0,0.0,0.0,0.0,0.0,0.0,0.0,0.0,0.0,0.0,-1.6525,-1.7787,-1.8907,-1.9591,-1.6683,-1.5385,0.0,0.0,0.0,0.0,0.0,0.0,0.0,0.0,0.0,0.0,0.0,0.0,0.0,0.0,0.0,0.0,0.0,0.0,0.0,0.0,0.0,0.0,0.0,0.0,0.0,0.0,0.0,0.0,0.0,0.0,0.0,0.0,0.0,0.0,0.0,0.0,0.0,0.0,0.0,0.0,0.0,0.0,0.0,0.0,0.0,0.0,0.0,0.0,0.0,0.0,0.0,0.0,0.0,0.0,0.0,0.0,0.0,0.0,0.0,0.0,0.0,0.0,0.0,0.0,0.0,0.0,0.0,0.0,0.0,0.0,0.0,0.0,0.0,0.0,0.0,0.0,0.0,0.0,0.0,0.0,0.0,0.0,0.0,0.0,0.0,0.0,0.0,0.0,0.0,0.0,0.0,0.0,0.0,0.0,0.0,0.0,0.0,0.0,0.0,0.0,0.0,0.0,0.0,0.0,0.0,0.0,0.0,0.0,0.0,-1.8744,-2.0004,-2.0807,-2.0935,-1.8038,-1.651,-1.6511,0.0,0.0,0.0,0.0,0.0,0.0,0.0,0.0,0.0,0.0,0.0,0.0,0.0,0.0,0.0,0.0,0.0,0.0,0.0,0.0,0.0,0.0,0.0,0.0,0.0,0.0,0.0,0.0,0.0,0.0,0.0,0.0,0.0,0.0,0.0,0.0,0.0,0.0,0.0,0.0,0.0,0.0,0.0,0.0,0.0,0.0,0.0,0.0,0.0,0.0,0.0,0.0,0.0,0.0,0.0,0.0,0.0,0.0,0.0,0.0,0.0,0.0,0.0,0.0,0.0,0.0,0.0,0.0,0.0,0.0,0.0,0.0,0.0,0.0,0.0,0.0,0.0,0.0,0.0,0.0,0.0,0.0,0.0,0.0,0.0,0.0,0.0,0.0,0.0,0.0,0.0,0.0,0.0,0.0,0.0,0.0,0.0,0.0,0.0,0.0,0.0,0.0,0.0,0.0,0.0,0.0,0.0,0.0,-2.3675,-2.5493,-2.4965,-2.1949,-2.1119,-1.8733,0.0,0.0,0.0,0.0,0.0,0.0,0.0,0.0,0.0,0.0,0.0,0.0,0.0,0.0,0.0,0.0,0.0,0.0,0.0,0.0,0.0,0.0,0.0,0.0,0.0,0.0,0.0,0.0,0.0,0.0,0.0,0.0,0.0,0.0,0.0,0.0,0.0,0.0,0.0,0.0,0.0,0.0,0.0,0.0,0.0,0.0,0.0,0.0,0.0,0.0,0.0,0.0,0.0,0.0,0.0,0.0,0.0,0.0,0.0,0.0,0.0,0.0,0.0,0.0,0.0,0.0,0.0,0.0,0.0,0.0,0.0,0.0,0.0,0.0,0.0,0.0,0.0,0.0,0.0,0.0,0.0,0.0,0.0,0.0,0.0,0.0,0.0,0.0,0.0,0.0,0.0,0.0,0.0,0.0,0.0,0.0,0.0,0.0,0.0,0.0,0.0,0.0,0.0,0.0,0.0,0.0,0.0,0.0,0.0,-2.5862,-2.8454,-2.8426,-2.5559,-2.3068,-2.0697,0.0,0.0,0.0,0.0,0.0,0.0,0.0,0.0,0.0,0.0,0.0,0.0,0.0,0.0,0.0,0.0,0.0,0.0,0.0,0.0,0.0,0.0,0.0,0.0,0.0,0.0,0.0,0.0,0.0,0.0,0.0,0.0,0.0,0.0,0.0,0.0,0.0,0.0,0.0,0.0,0.0,0.0,0.0,0.0,0.0,0.0,0.0,0.0,0.0,0.0,0.0,0.0,0.0,0.0,0.0,0.0,0.0,0.0,0.0,0.0,0.0,0.0,0.0,0.0,0.0,0.0,0.0,0.0,0.0,0.0,0.0,0.0,0.0,0.0,0.0,0.0,0.0,0.0,0.0,0.0,0.0,0.0,0.0,0.0,0.0,0.0,0.0,0.0,0.0,0.0,0.0,0.0,0.0,0.0,0.0,0.0,0.0,0.0,0.0,0.0,0.0,0.0,0.0,0.0,0.0,0.0,0.0,0.0,-2.5628,-2.7603,-3.0527,-3.1125,-2.9188,-2.6502,-2.3424,0.0,0.0,0.0,0.0,0.0,0.0,0.0,0.0,0.0,0.0,0.0,0.0,0.0,0.0,0.0,0.0,0.0,0.0,0.0,0.0,0.0,0.0,0.0,0.0,0.0,0.0,0.0,0.0,0.0,0.0,0.0,0.0,0.0,0.0,0.0,0.0,0.0,0.0,0.0,0.0,0.0,0.0,0.0,0.0,0.0,0.0,0.0,0.0,0.0,0.0,0.0,0.0,0.0,0.0,0.0,0.0,0.0,0.0,0.0,0.0,0.0,0.0,0.0,0.0,0.0,0.0,0.0,0.0,0.0,0.0,0.0,0.0,0.0,0.0,0.0,0.0,0.0,0.0,0.0,0.0,0.0,0.0,0.0,0.0,0.0,0.0,0.0,0.0,0.0,0.0,0.0,0.0,0.0,0.0,0.0,0.0,0.0,0.0,0.0,0.0,0.0,0.0,0.0,0.0,0.0,0.0,0.0,0.0,-2.7126,-2.9023,-3.1955,-3.3116,-3.2304,-3.0174,-2.6305,0.0,0.0,0.0,0.0,0.0,0.0,0.0,0.0,0.0,0.0,0.0,0.0,0.0,0.0,0.0,0.0,0.0,0.0,0.0,0.0,0.0,0.0,0.0,0.0,0.0,0.0,0.0,0.0,0.0,0.0,0.0,0.0,0.0,0.0,0.0,0.0,0.0,0.0,0.0,0.0,0.0,0.0,0.0,0.0,0.0,0.0,0.0,0.0,0.0,0.0,0.0,0.0,0.0,0.0,0.0,0.0,0.0,0.0,0.0,0.0,0.0,0.0,0.0,0.0,0.0,0.0,0.0,0.0,0.0,0.0,0.0,0.0,0.0,0.0,0.0,0.0,0.0,0.0,0.0,0.0,0.0,0.0,0.0,0.0,0.0,0.0,0.0,0.0,0.0,0.0,0.0,0.0,0.0,0.0,0.0,0.0,0.0,0.0,0.0,0.0,0.0,0.0,0.0,0.0,0.0,0.0,0.0,0.0,-2.8451,-2.9901,-3.2754,-3.3899,-3.3156,-3.0099,-2.6921,0.0,0.0,0.0,0.0,0.0,0.0,0.0,0.0,0.0,0.0,0.0,0.0,0.0,0.0,0.0,0.0,0.0,0.0,0.0,0.0,0.0,0.0,0.0,0.0,0.0,0.0,0.0,0.0,0.0,0.0,0.0,0.0,0.0,0.0,0.0,0.0,0.0,0.0,0.0,0.0,0.0,0.0,0.0,0.0,0.0,0.0,0.0,0.0,-1.5947,0.0,0.0,0.0,0.0,0.0,0.0,0.0,0.0,0.0,0.0,0.0,0.0,0.0,0.0,0.0,0.0,0.0,0.0,0.0,0.0,0.0,0.0,0.0,0.0,0.0,0.0,0.0,0.0,0.0,0.0,0.0,0.0,0.0,0.0,0.0,0.0,0.0,0.0,0.0,0.0,0.0,0.0,0.0,0.0,0.0,0.0,0.0,0.0,0.0,0.0,0.0,0.0,0.0,0.0,0.0,0.0,0.0,0.0,0.0,-2.9395,-3.0778,-3.3297,-3.4249,-3.3437,-3.0554,-2.7759,0.0,0.0,0.0,0.0,0.0,0.0,0.0,0.0,0.0,0.0,0.0,0.0,0.0,0.0,0.0,0.0,0.0,0.0,0.0,0.0,0.0,0.0,0.0,0.0,0.0,0.0,0.0,0.0,0.0,0.0,0.0,0.0,0.0,0.0,0.0,0.0,0.0,0.0,0.0,0.0,0.0,0.0,0.0,0.0,0.0,0.0,0.0,0.0,0.0,0.0,0.0,0.0,0.0,0.0,0.0,0.0,0.0,0.0,0.0,0.0,0.0,0.0,0.0,0.0,0.0,0.0,0.0,0.0,0.0,0.0,0.0,0.0,0.0,0.0,0.0,0.0,0.0,0.0,0.0,0.0,0.0,0.0,0.0,0.0,0.0,0.0,0.0,0.0,0.0,0.0,0.0,0.0,0.0,0.0,0.0,0.0,0.0,0.0,0.0,0.0,0.0,0.0,0.0,0.0,0.0,0.0,0.0,-2.6955,-2.9947,-3.1594,-3.3644,-3.4369,-3.3627,-3.1273,-2.8746,-2.6107,0.0,0.0,0.0,0.0,0.0,0.0,0.0,0.0,0.0,0.0,0.0,0.0,0.0,0.0,0.0,0.0,0.0,0.0,0.0,0.0,0.0,0.0,0.0,0.0,0.0,0.0,0.0,0.0,0.0,0.0,0.0,0.0,0.0,0.0,0.0,0.0,0.0,0.0,-1.4749,-1.7388,0.0,0.0,0.0,0.0,0.0,0.0,0.0,0.0,-1.7375,0.0,0.0,0.0,0.0,0.0,0.0,0.0,0.0,0.0,0.0,0.0,0.0,0.0,0.0,0.0,0.0,0.0,0.0,0.0,0.0,0.0,0.0,0.0,0.0,0.0,0.0,0.0,0.0,0.0,0.0,0.0,0.0,0.0,0.0,0.0,0.0,0.0,0.0,0.0,0.0,0.0,0.0,0.0,0.0,0.0,0.0,0.0,0.0,0.0,0.0,0.0,0.0,0.0,0.0,0.0,0.0,-2.6304,-2.7827,-2.981,-3.2442,-3.4048,-3.4528,-3.375,-3.2161,-2.9679,-2.6214,0.0,0.0,0.0,0.0,0.0,0.0,0.0,0.0,0.0,0.0,0.0,0.0,0.0,0.0,0.0,0.0,0.0,0.0,0.0,0.0,0.0,0.0,0.0,0.0,0.0,0.0,0.0,0.0,0.0,0.0,0.0,0.0,0.0,0.0,0.0,0.0,0.0,0.0,0.0,-2.0019,-2.0985,0.0,0.0,0.0,0.0,0.0,0.0,0.0,0.0,-1.7307,0.0,0.0,0.0,0.0,0.0,0.0,0.0,0.0,0.0,0.0,0.0,0.0,0.0,0.0,0.0,0.0,0.0,0.0,0.0,0.0,0.0,0.0,0.0,0.0,0.0,0.0,0.0,0.0,0.0,0.0,0.0,0.0,0.0,0.0,0.0,0.0,0.0,0.0,0.0,0.0,0.0,0.0,0.0,0.0,0.0,0.0,0.0,0.0,0.0,0.0,0.0,0.0,0.0,0.0,0.0,-2.5459,-2.8158,-3.0526,-3.2652,-3.3756,-3.3972,-3.3176,-3.0709,-2.8009,0.0,0.0,0.0,0.0,0.0,0.0,0.0,0.0,0.0,0.0,0.0,0.0,0.0,0.0,0.0,0.0,0.0,0.0,0.0,0.0,0.0,0.0,0.0,0.0,0.0,0.0,0.0,0.0,0.0,0.0,0.0,0.0,0.0,0.0,0.0,0.0,0.0,0.0,0.0,0.0,-2.0805,-2.197,-2.2357,0.0,0.0,0.0,0.0,0.0,0.0,-1.9162,-1.8149,0.0,0.0,0.0,0.0,0.0,0.0,0.0,0.0,0.0,0.0,0.0,0.0,0.0,0.0,0.0,0.0,0.0,0.0,0.0,0.0,0.0,0.0,0.0,0.0,0.0,0.0,0.0,0.0,0.0,0.0,0.0,0.0,0.0,0.0,0.0,0.0,0.0,0.0,0.0,0.0,0.0,0.0,0.0,0.0,0.0,0.0,0.0,0.0,0.0,0.0,0.0,0.0,0.0,0.0,0.0,-2.4,-2.786,-3.0725,-3.2415,-3.3193,-3.321,-3.2448,-2.9403,-2.6553,0.0,0.0,0.0,0.0,0.0,0.0,0.0,0.0,0.0,0.0,0.0,0.0,0.0,0.0,0.0,0.0,0.0,0.0,0.0,0.0,0.0,0.0,0.0,0.0,0.0,0.0,0.0,0.0,0.0,0.0,0.0,0.0,0.0,0.0,0.0,0.0,0.0,0.0,0.0,0.0,0.0,-2.2937,-2.2887,-2.2255,0.0,0.0,0.0,0.0,-2.188,-2.1031,0.0,0.0,0.0,0.0,0.0,0.0,0.0,0.0,0.0,0.0,0.0,0.0,0.0,0.0,0.0,0.0,0.0,0.0,0.0,0.0,0.0,0.0,0.0,0.0,0.0,0.0,0.0,0.0,0.0,0.0,0.0,0.0,0.0,0.0,0.0,0.0,0.0,0.0,0.0,0.0,0.0,0.0,0.0,0.0,0.0,0.0,0.0,0.0,0.0,0.0,0.0,0.0,0.0,0.0,0.0,0.0,-2.3901,-2.642,-2.9006,-3.1598,-3.2448,-3.2481,-3.173,-3.0063,-2.751,0.0,0.0,0.0,0.0,0.0,0.0,0.0,0.0,0.0,0.0,0.0,0.0,0.0,0.0,0.0,0.0,0.0,0.0,0.0,0.0,0.0,0.0,0.0,0.0,0.0,0.0,0.0,0.0,0.0,0.0,0.0,0.0,0.0,0.0,0.0,0.0,0.0,0.0,0.0,0.0,0.0,-2.4526,-2.4542,-2.3907,-2.3613,0.0,0.0,-2.3529,-2.4367,-2.4393,0.0,0.0,0.0,0.0,0.0,0.0,0.0,0.0,0.0,0.0,0.0,0.0,0.0,0.0,0.0,0.0,0.0,0.0,0.0,0.0,0.0,0.0,0.0,0.0,0.0,0.0,0.0,0.0,0.0,0.0,0.0,0.0,0.0,0.0,0.0,0.0,0.0,0.0,0.0,0.0,0.0,0.0,0.0,0.0,0.0,0.0,0.0,0.0,0.0,0.0,0.0,0.0,0.0,0.0,0.0,-2.0439,-2.3951,-2.6965,-2.9516,-3.1515,-3.1912,-3.1912,-3.1615,-2.8585,-2.5855,0.0,0.0,0.0,0.0,0.0,0.0,0.0,0.0,0.0,0.0,0.0,0.0,0.0,0.0,0.0,0.0,0.0,0.0,0.0,0.0,0.0,0.0,0.0,0.0,0.0,0.0,0.0,0.0,0.0,0.0,0.0,0.0,0.0,0.0,0.0,0.0,0.0,0.0,0.0,0.0,0.0,0.0,-2.4735,-2.4954,0.0,0.0,0.0,-2.5549,-2.6796,0.0,0.0,0.0,0.0,0.0,0.0,0.0,0.0,0.0,0.0,0.0,0.0,0.0,0.0,0.0,0.0,0.0,0.0,0.0,0.0,0.0,0.0,0.0,0.0,0.0,0.0,0.0,0.0,0.0,0.0,0.0,0.0,0.0,0.0,0.0,0.0,0.0,0.0,0.0,0.0,0.0,0.0,0.0,0.0,0.0,0.0,0.0,0.0,0.0,0.0,0.0,0.0,0.0,0.0,0.0,0.0,0.0,-2.3984,-2.7396,-2.9843,-3.125,-3.1333,-3.1317,-3.125,-2.7644,0.0,0.0,0.0,0.0,0.0,0.0,0.0,0.0,0.0,0.0,0.0,0.0,0.0,0.0,0.0,0.0,0.0,0.0,0.0,0.0,0.0,0.0,0.0,0.0,0.0,0.0,0.0,-0.9319,0.0,0.0,0.0,0.0,0.0,0.0,0.0,0.0,0.0,0.0,0.0,0.0,0.0,0.0,-2.484,-2.5572,-2.6416,-2.7209,0.0,0.0,-2.7408,-2.865,-2.7457,-2.5588,0.0,0.0,0.0,0.0,0.0,0.0,0.0,0.0,0.0,0.0,0.0,0.0,0.0,0.0,0.0,0.0,0.0,0.0,0.0,0.0,0.0,0.0,0.0,0.0,0.0,0.0,0.0,0.0,0.0,0.0,0.0,0.0,0.0,0.0,0.0,0.0,0.0,0.0,0.0,0.0,0.0,0.0,0.0,0.0,0.0,0.0,0.0,0.0,0.0,0.0,0.0,0.0,0.0,0.0,0.0,-2.3984,-2.6967,-2.9168,-3.0506,-3.0588,-3.0572,-3.0539,-2.834,-2.6122,0.0,0.0,0.0,0.0,0.0,0.0,0.0,0.0,0.0,0.0,0.0,0.0,0.0,0.0,0.0,0.0,0.0,0.0,0.0,0.0,0.0,0.0,0.0,0.0,0.0,0.0,0.0,0.0,0.0,0.0,0.0,0.0,0.0,0.0,0.0,0.0,0.0,0.0,0.0,0.0,0.0,-2.7218,-2.7973,-2.8752,-2.9508,0.0,0.0,-2.9368,-2.942,-2.9982,-2.8869,-2.4381,0.0,0.0,0.0,0.0,0.0,0.0,0.0,0.0,0.0,0.0,0.0,0.0,0.0,0.0,0.0,0.0,0.0,0.0,0.0,0.0,0.0,0.0,0.0,0.0,0.0,0.0,0.0,0.0,0.0,0.0,0.0,0.0,0.0,0.0,0.0,0.0,0.0,0.0,0.0,0.0,0.0,0.0,0.0,0.0,0.0,0.0,0.0,0.0,0.0,0.0,0.0,0.0,0.0,-2.1054,-2.3984,-2.6917,-2.9089,-3.0423,-3.0489,-3.0489,-3.0489,-2.8442,-2.6254,0.0,0.0,0.0,0.0,0.0,0.0,0.0,0.0,0.0,0.0,0.0,0.0,0.0,0.0,0.0,0.0,0.0,0.0,0.0,0.0,0.0,0.0,0.0,0.0,0.0,0.0,0.0,0.0,-1.2652,-1.2909,-1.2812,0.0,0.0,0.0,0.0,0.0,0.0,0.0,0.0,0.0,0.0,-2.7041,-2.8788,-2.9737,0.0,0.0,-3.1112,-3.1141,-3.1637,-3.0327,-2.8479,-2.6213,-2.3995,0.0,0.0,0.0,0.0,0.0,0.0,0.0,0.0,0.0,0.0,0.0,0.0,0.0,0.0,0.0,0.0,0.0,0.0,0.0,0.0,0.0,0.0,0.0,0.0,0.0,0.0,0.0,0.0,0.0,0.0,0.0,0.0,0.0,0.0,0.0,0.0,0.0,0.0,0.0,0.0,0.0,0.0,0.0,0.0,0.0,0.0,0.0,0.0,0.0,0.0,0.0,0.0,-2.1154,-2.4299,-2.7017,-2.9089,-3.0456,-3.0489,-3.0489,-3.0439,-2.8622,-2.6586,0.0,0.0,0.0,0.0,0.0,0.0,0.0,0.0,0.0,0.0,0.0,0.0,0.0,0.0,0.0,0.0,0.0,0.0,0.0,0.0,0.0,0.0,0.0,0.0,0.0,0.0,0.0,0.0,-1.3935,-1.3845,-1.2363,0.0,0.0,0.0,0.0,0.0,0.0,0.0,0.0,0.0,0.0,-2.7915,-2.9569,-3.0495,-3.1175,-3.1709,-3.1568,-3.1565,-3.193,-3.0288,-2.8349,-2.6576,0.0,0.0,0.0,0.0,0.0,0.0,0.0,0.0,0.0,0.0,0.0,0.0,0.0,0.0,0.0,0.0,0.0,0.0,0.0,0.0,0.0,0.0,0.0,0.0,0.0,0.0,0.0,0.0,0.0,0.0,-1.3126,0.0,0.0,0.0,0.0,0.0,0.0,0.0,0.0,0.0,0.0,0.0,0.0,0.0,0.0,0.0,0.0,0.0,0.0,0.0,0.0,0.0,0.0,-2.1418,-2.5027,-2.7282,-2.9085,-3.0439,-3.0489,-3.0489,-3.0456,-2.9118,-2.7348,-2.5077,0.0,0.0,0.0,0.0,0.0,0.0,0.0,0.0,0.0,0.0,0.0,0.0,0.0,0.0,0.0,0.0,0.0,0.0,0.0,0.0,0.0,0.0,0.0,0.0,0.0,0.0,-1.2024,-1.2978,-1.2788,0.0,0.0,0.0,0.0,0.0,0.0,0.0,0.0,0.0,0.0,-2.8045,-3.0463,-3.0508,-3.1153,-3.1686,-3.1706,-3.1082,-3.0336,-2.9729,-3.0032,-2.9052,0.0,0.0,0.0,0.0,0.0,0.0,0.0,0.0,0.0,0.0,0.0,0.0,0.0,0.0,0.0,0.0,0.0,0.0,0.0,0.0,0.0,0.0,0.0,0.0,0.0,0.0,0.0,-1.8932,-1.7814,0.0,0.0,0.0,0.0,0.0,0.0,0.0,0.0,0.0,0.0,0.0,-2.4414,-2.5822,0.0,0.0,0.0,0.0,0.0,0.0,0.0,0.0,0.0,0.0,0.0,0.0,-2.1897,-2.506,-2.7727,-2.9512,-3.0456,-3.0489,-3.0489,-3.0489,-2.9582,-2.7363,-2.3752,0.0,0.0,0.0,0.0,0.0,0.0,0.0,0.0,0.0,0.0,0.0,0.0,0.0,0.0,0.0,0.0,0.0,0.0,0.0,0.0,0.0,0.0,0.0,0.0,0.0,-1.2498,0.0,0.0,0.0,0.0,0.0,0.0,0.0,0.0,0.0,0.0,0.0,-2.4444,-2.671,-2.8633,-3.0183,-3.1135,-3.151,-3.1807,0.0,0.0,0.0,0.0,0.0,0.0,0.0,0.0,0.0,0.0,0.0,0.0,0.0,0.0,-2.8751,-2.3392,-2.1801,-2.1281,-2.1217,0.0,0.0,0.0,0.0,0.0,0.0,0.0,0.0,0.0,0.0,0.0,0.0,0.0,0.0,-2.2482,0.0,-2.1323,0.0,0.0,0.0,0.0,0.0,0.0,0.0,0.0,-2.5773,-2.7396,-2.8122,-2.9512,-2.9297,0.0,-2.6717,-2.3785,0.0,0.0,0.0,0.0,0.0,0.0,0.0,0.0,-2.2923,-2.5806,-2.8172,-2.9761,-3.0456,-3.0489,-3.0489,-3.0472,-2.9566,-2.7711,-2.4912,-2.2443,-2.0343,0.0,0.0,0.0,0.0,0.0,0.0,0.0,0.0,0.0,0.0,0.0,0.0,0.0,0.0,0.0,0.0,0.0,0.0,0.0,0.0,0.0,0.0,0.0,-1.353,0.0,0.0,0.0,0.0,0.0,0.0,0.0,0.0,0.0,-2.1748,-2.4017,-2.6519,-2.8876,-2.989,-3.0792,-3.1767,0.0,0.0,0.0,0.0,0.0,0.0,0.0,-2.93,-2.9885,-2.9274,-2.8945,-2.9691,-3.1393,-3.241,-3.1704,0.0,0.0,-2.656,-2.5002,-2.4491,-2.4433,-2.5046,-2.5698,-2.6095,-2.701,-2.7723,0.0,0.0,0.0,0.0,0.0,0.0,0.0,0.0,-2.5627,-2.5643,0.0,-2.4827,0.0,0.0,0.0,0.0,0.0,-2.4547,0.0,0.0,-3.0945,-3.2332,-3.1697,-3.1697,-3.1317,-3.0621,-3.0506,-2.9032,-2.6086,-2.0671,0.0,0.0,0.0,0.0,0.0,0.0,-2.4415,-2.7249,-2.8738,-2.9794,-3.0472,-3.0489,-3.0489,-3.0472,-2.9168,-2.8409,-2.8276,-2.5557,-2.3056,-2.0884,-1.8667,0.0,0.0,0.0,0.0,0.0,0.0,0.0,0.0,0.0,0.0,0.0,0.0,0.0,0.0,0.0,0.0,0.0,0.0,0.0,0.0,-1.3391,0.0,0.0,0.0,0.0,0.0,0.0,0.0,0.0,0.0,0.0,-2.3302,-2.6745,-2.9796,-3.086,0.0,0.0,0.0,0.0,-3.1271,-3.1625,-3.1341,-3.122,-3.1512,-3.2092,-3.1961,-3.0321,0.0,0.0,-3.0839,-3.2145,-3.3032,-3.1861,-3.2363,-3.2524,-3.1704,-3.0744,-2.9867,-2.8595,-2.777,-2.7646,-2.8671,-2.9146,-2.9499,-3.2971,0.0,0.0,0.0,0.0,-2.9819,-3.0907,-3.3098,-3.2348,-3.1257,-2.9984,-2.9608,0.0,0.0,0.0,0.0,0.0,0.0,-2.8989,-3.116,-3.2221,-3.3143,-3.3955,-3.3955,-3.3557,-3.2862,-3.2332,-3.1371,-2.9976,-2.733,-2.3785,-1.9542,0.0,0.0,0.0,0.0,-2.5657,-2.8011,-2.9466,-3.029,-3.0489,-3.0489,-3.0489,-3.0489,-2.9615,-2.8887,-2.8426,-2.7066,-2.5343,-2.3123,-2.095,0.0,0.0,0.0,0.0,0.0,0.0,0.0,0.0,0.0,0.0,0.0,0.0,0.0,0.0,0.0,0.0,0.0,0.0,0.0,-1.4164,-1.4745,-1.5193,0.0,0.0,0.0,0.0,0.0,0.0,0.0,0.0,0.0,-2.781,-2.8731,-2.9535,0.0,0.0,-3.1806,-3.1806,-3.2065,-3.2381,-3.276,-3.2716,0.0,-3.2387,-3.1658,-3.1402,-3.2208,-3.3495,-3.4326,-3.4134,-3.4571,-3.4705,-3.4024,-3.413,-3.403,-3.3254,-3.2086,-3.1321,-3.1326,-3.1223,-3.1362,-3.2218,-3.27,-3.2967,-3.7888,-3.4552,-3.3329,-3.3534,-3.4609,-3.407,-3.5038,-3.6979,-3.5934,-3.5062,-3.4315,-3.3531,-3.1578,-2.879,-2.8379,0.0,0.0,0.0,-3.1913,-3.3858,-3.4122,-3.4615,-3.5224,-3.5257,-3.4901,-3.422,-3.3497,-3.2895,-3.2464,-3.1288,-2.8638,-2.4663,0.0,0.0,-2.4017,-2.5608,-2.7199,-2.8754,-2.991,-3.0489,-3.0489,-3.0464,-3.0401,-3.022,-2.9935,-2.9625,-2.9234,-2.8542,-2.7398,-2.5789,-2.3354,-2.1033,0.0,0.0,0.0,0.0,0.0,0.0,0.0,0.0,0.0,0.0,0.0,-1.1752,-1.0156,0.0,0.0,0.0,-1.2895,-1.4635,-1.6795,-1.6994,0.0,0.0,0.0,0.0,0.0,0.0,0.0,-2.5715,-2.8053,-2.9753,-3.0466,-3.0651,-3.0883,-3.1342,-3.1927,-3.2388,-3.2696,0.0,-3.308,-3.3441,-3.3628,-3.3703,-3.3582,-3.2829,-3.2636,-3.3751,-3.452,-3.5069,-3.5284,-3.5333,-3.5218,-3.4994,-3.4899,-3.4767,-3.4319,-3.3455,-3.2743,-3.272,-3.2686,-3.2917,-3.3543,-3.3874,-3.4127,-4.1643,-4.0945,-3.8204,-3.7415,-3.7948,-3.7813,-3.8149,-3.8681,-3.7362,-3.7508,-3.8562,-3.6738,-3.5447,-3.4579,-3.2574,0.0,-3.2819,-3.4186,-3.5168,-3.5906,-3.6488,-3.6483,-3.6001,-3.5885,-3.5522,-3.4965,-3.422,-3.3889,-3.3839,-3.3199,-3.215,-3.0758,-2.8807,-2.7696,-2.7531,-2.8194,-2.887,-2.9479,-3.0158,-3.0489,-3.0489,-3.0443,-3.0194,-2.9793,-3.0151,-3.0326,-3.0311,-2.9683,-2.9029,-2.8276,-2.5607,-2.3106,-2.0934,0.0,0.0,0.0,0.0,0.0,0.0,0.0,0.0,0.0,0.0,0.0,0.0,0.0,0.0,0.0,-1.5785,0.0,-1.9581,-1.9783,0.0,0.0,0.0,-2.1779,-2.3338,-2.5308,-2.7081,-2.8508,0.0,0.0,-3.178,-3.2415,-3.329,-3.438,-3.3849,-3.3592,-3.4344,-3.3828,-3.3525,-3.3881,-3.4197,-3.4544,-3.4705,-3.4684,-3.4674,-3.4781,-3.4899,-3.4913,-3.493,-3.4923,-3.4923,-3.4899,-3.4899,-3.4923,-3.4923,-3.4797,-3.4485,-3.3255,-3.2989,-3.3034,-3.3455,-3.3622,-3.3828,-4.3167,-4.2939,-4.1691,-4.0818,-4.0206,-4.0013,-4.0111,-4.0389,-4.0172,-3.9921,-3.9686,-3.8813,-3.7704,-3.6455,-3.5943,-3.6109,-3.6819,-3.7182,-3.7727,-3.8365,-3.8008,-3.777,-3.7581,-3.6489,-3.5885,-3.5711,-3.4982,-3.4651,-3.4634,-3.4452,-3.3905,-3.3027,-3.2503,-3.1123,-2.9019,-2.9628,-3.0075,-3.0224,-3.0406,-3.0489,-3.0489,-3.0485,-3.0199,-2.9651,-2.9755,-2.9518,-2.9,-2.8806,-2.8364,-2.7561,-2.584,-2.41,-2.241,-1.8427,0.0,0.0,0.0,0.0,0.0,0.0,0.0,0.0,0.0,-1.5752,-1.2257,0.0,-1.6724,0.0,-1.8004,-1.9498,-2.1118,-2.1267,0.0,0.0,-2.5226,-2.5905,-2.8423,-2.9148,-2.9827,-3.0721,-3.2282,-3.3276,-3.3276,-3.3905,-3.4482,-3.4748,-3.4149,-3.375,-3.3939,-3.4339,-3.4559,-3.4615,-3.4718,-3.4801,-3.4897,-3.4899,-3.4899,-3.4899,-3.4899,-3.4899,-3.4899,-3.4899,-3.4899,-3.4899,-3.4899,-3.4899,-3.4899,-3.4899,-3.5048,-3.5098,-3.4767,-3.4392,-3.4492,-3.4779,-3.5091,-4.3994,-4.367,-4.3281,-4.255,-4.1697,-4.162,-4.162,-4.1694,-4.1488,-4.1141,-4.07,-3.9799,-3.8942,-3.8144,-3.7816,-3.7898,-3.8275,-3.8275,-3.8532,-3.886,-3.8482,-3.8138,-3.783,-3.6713,-3.6057,-3.5803,-3.5061,-3.4715,-3.4732,-3.4732,-3.4501,-3.4122,-3.3834,-3.2735,-3.0863,-3.0914,-3.1002,-3.1002,-3.0654,-3.03,-2.9903,-3.0258,-2.9734,-2.8262,-2.85,-2.8206,-2.7191,-2.7154,-2.7003,-2.6745,-2.5356,-2.4216,-2.3371,-1.986,-1.7503,0.0,0.0,0.0,0.0,0.0,0.0,0.0,0.0,0.0,0.0,0.0,-1.9343,-2.0321,-2.17,-2.3256,-2.5027,-2.5176,-2.6253,-2.8936,-2.9135,-2.9864,-3.1785,-3.2541,-3.2994,-3.3077,-3.4071,-3.4651,-3.4352,-3.4651,-3.4899,-3.4899,-3.4551,-3.4286,-3.4319,-3.4651,-3.4899,-3.4899,-3.4899,-3.4899,-3.4899,-3.4899,-3.4899,-3.4899,-3.4899,-3.4899,-3.4899,-3.4899,-3.4899,-3.4899,-3.4899,-3.4899,-3.4916,-3.5149,-3.5431,-3.5729,-3.5795,-3.5704,-3.5778,-3.5691,-3.5659,-4.4496,-4.3848,-4.3751,-4.3266,-4.2602,-4.2602,-4.2602,-4.2554,-4.2001,-4.1723,-4.1576,-4.0358,-3.9742,-3.9515,-3.8869,-3.8529,-3.8448,-3.8448,-3.8448,-3.8448,-3.8448,-3.8179,-3.7655,-3.6922,-3.6284,-3.5709,-3.4988,-3.4579,-3.4497,-3.448,-3.448,-3.4456,-3.391,-3.3294,-3.2629,-3.2027,-3.1622,-3.1422,-3.0735,-2.9984,-2.9189,-2.9838,-2.9017,-2.672,-2.7042,-2.6712,-2.5502,-2.5346,-2.5503,-2.5862,-2.4692,-2.4001,-2.3934,-2.1356,-1.9505,0.0,-1.7491,0.0,0.0,0.0,0.0,0.0,0.0,0.0,0.0,-2.1168,-2.2526,-2.4265,-2.5855,-2.751,-2.94,-2.9715,-3.0406,-3.1846,-3.268,-3.3408,-3.4154,-3.5363,-3.5843,-3.5131,-3.5611,-3.5727,-3.4982,-3.4899,-3.4899,-3.4899,-3.4883,-3.4833,-3.4883,-3.4883,-3.4899,-3.4899,-3.4899,-3.4899,-3.4899,-3.4899,-3.4875,-3.4875,-3.4851,-3.4851,-3.4851,-3.4851,-3.4835,-3.4835,-3.4828,-3.4851,-3.4851,-3.5267,-3.5622,-3.5753,-3.6055,-3.6381,-3.6624,-3.6246,-3.5955,-4.5208,-4.4544,-4.3962,-4.3298,-4.2602,-4.2602,-4.2602,-4.2586,-4.2613,-4.2393,-4.1909,-4.1648,-4.0896,-3.985,-3.967,-3.9278,-3.8722,-3.8722,-3.8722,-3.8722,-3.8738,-3.864,-3.8504,-3.7801,-3.7124,-3.6462,-3.5725,-3.507,-3.4497,-3.448,-3.448,-3.4472,-3.3894,-3.3518,-3.3358,0.0,0.0,0.0,-3.0022,-2.9661,-2.9489,-2.9184,-2.849,-2.7392,-2.6571,0.0,-2.5139,-2.4875,-2.4856,-2.5029,-2.4769,0.0,0.0,0.0,0.0,0.0,0.0,0.0,0.0,0.0,0.0,0.0,-2.4199,-2.4166,-2.3338,-2.5954,-2.7462,-2.6801,-2.8506,-2.9843,-3.0257,-3.1388,-3.2685,-3.4104,-3.4949,-3.5678,-3.639,-3.6754,-3.6622,-3.5893,-3.5926,-3.5727,-3.5098,-3.4899,-3.4899,-3.4932,-3.4899,-3.4899,-3.4899,-3.4899,-3.4899,-3.4899,-3.4899,-3.4899,-3.4899,-3.4828,-3.4756,-3.4732,-3.4643,-3.4594,-3.4594,-3.4594,-3.457,-3.457,-3.4586,-3.457,-3.4586,-3.4677,-3.5021,-3.553,-3.5666,-3.5843,-3.6502,-3.6544,-3.6437,-4.5937,0.0,-4.4544,-4.3816,0.0,-4.2748,-4.2602,-4.2586,-4.2696,-4.2579,-4.2283,-4.1938,-4.1401,-4.0714,-4.0,-3.9508,-3.9121,-3.8763,-3.86,-3.86,-3.8616,-3.86,-3.8567,-3.7823,-3.715,-3.6482,-3.5759,-3.5,-3.4333,-3.43,-3.43,-3.43,-3.3741,-3.3316,-3.2986,-3.198,-3.1227,-3.0746,-2.9989,-2.9452,-2.9166,-2.8846,-2.8009,-2.6565,-2.5795,0.0,0.0,0.0,0.0,0.0,0.0,0.0,0.0,0.0,0.0,-2.2813,-2.3126,-2.334,-2.3357,-2.4609,-2.604,-2.7471,-2.8979,-2.894,-2.6831,-2.9016,-3.034,-3.005,-3.1603,-3.2829,-3.3226,-3.4237,-3.5313,-3.639,-3.687,-3.7384,-3.803,-3.8179,-3.788,-3.7201,-3.6746,-3.639,-3.6042,-3.5297,-3.5098,-3.5346,-3.5114,-3.4899,-3.4899,-3.4899,-3.4899,-3.4899,-3.4835,-3.4804,-3.4804,-3.4691,-3.4594,-3.4594,-3.4546,-3.4497,-3.448,-3.448,-3.448,-3.448,-3.448,-3.448,-3.453,-3.4726,-3.5052,-3.546,-3.5961,-3.6247,-3.6462,-3.644,-3.6554,-4.6455,-4.5759,-4.5208,-4.448,-4.367,-4.3039,-4.2716,-4.2602,0.0,0.0,0.0,-4.2002,-4.1725,-4.1531,-4.0267,-3.959,-3.9428,-3.8732,-3.8391,-3.8391,-3.8391,-3.8391,-3.8359,-3.7792,-3.7117,-3.6465,-3.5736,-3.5004,-3.432,-3.4175,-3.4114,-3.4078,-3.3597,-3.3075,-3.254,-3.1251,-3.0861,-3.1377,-3.0232,-2.9376,-2.8883,-2.8768,-2.7769,-2.5816,-2.5357,-2.4781,-2.4041,-2.39,-2.426,-2.5118,-2.5853,-2.6284,-2.636,-2.6571,-2.666,-2.6597,-2.7451,-2.7982,-2.7885,-2.9103,-3.0114,-3.0675,-3.259,-3.2737,-3.0319,-3.1416,-3.2497,-3.3232,-3.4386,-3.5396,-3.6125,-3.6854,-3.7533,-3.8162,-3.8328,-3.8626,-3.9183,-3.9315,-3.895,-3.8311,-3.7632,-3.7168,-3.6837,-3.5843,-3.5214,-3.5595,-3.523,-3.4875,-3.4859,-3.4899,-3.4899,-3.4899,-3.4787,-3.4691,-3.4667,-3.4546,-3.4472,-3.4489,-3.4448,-3.4423,-3.4423,-3.4423,-3.4423,-3.4382,-3.4423,-3.4423,-3.4472,-3.4774,-3.5138,-3.517,-3.6091,-3.6788,-3.627,-3.6092,-3.627,-4.6471,-4.5791,-4.5694,-4.4901,-4.3702,-4.3589,-4.3169,-4.2619,-4.2602,-4.2602,-4.2586,-4.2489,-4.2148,-4.1563,-4.0707,-4.0043,-3.9473,-3.8732,-3.8391,-3.8391,-3.8391,-3.8391,-3.8391,-3.8294,-3.7873,-3.7134,-3.6481,-3.5792,-3.5122,-3.4481,-3.4223,-3.4202,-3.3667,-3.3336,-3.3171,-3.1985,-3.1589,-3.2025,-3.0506,-2.9648,-2.9569,-2.9016,-2.8258,-2.7295,-2.6238,-2.5669,-2.5596,-2.5358,-2.5858,-2.7195,-2.7984,-2.8399,-2.8481,-2.9077,-2.92,-2.8809,-2.9948,-3.0767,-3.081,-3.1594,-3.2368,-3.307,-3.388,-3.3963,-3.3149,-3.3892,-3.475,-3.5446,-3.5711,-3.6141,-3.6887,-3.759,-3.8086,-3.8261,-3.8775,-3.9199,-3.9315,-3.9315,-3.905,-3.8361,-3.8103,-3.7524,-3.6564,-3.6042,-3.5587,-3.523,-3.5033,-3.4835,-3.4763,-3.4828,-3.4899,-3.4899,-3.4804,-3.4715,-3.4643,-3.4472,-3.4349,-3.4341,-3.425,-3.4201,-3.4176,-3.4201,-3.4201,-3.4151,-3.4176,-3.4176,-3.4176,-3.4216,-3.4361,-3.4426,-3.5114,-3.5535,-3.538,-3.5373,-3.5558,-4.6698,-4.6342,-4.5969,-4.5241,-4.4237,-4.3444,-4.2894,-4.2619,-4.2602,-4.2602,-4.2602,-4.2602,-4.2424,-4.2067,-4.0982,-4.0335,-3.9994,-3.8893,-3.8391,-3.8391,-3.8391,-3.8391,-3.8391,-3.8391,-3.8035,-3.7279,-3.6627,-3.6152,-3.5785,-3.4745,-3.4415,-3.4729,-3.3879,-3.3581,-3.3821,-3.2669,-3.2138,-3.2333,-3.0569,-2.9603,-2.9547,-2.899,-2.8559,-2.8293,-2.7399,-2.7233,-2.7828,-2.7782,-2.8266,-2.9394,-3.015,-3.0561,-3.0606,-3.0965,-3.1059,-3.0849,-3.1814,-3.2433,-3.2371,-3.3065,-3.3621,-3.3965,-3.43,-3.4366,-3.3998,-3.4397,-3.498,-3.5729,-3.6115,-3.6659,-3.7366,-3.816,-3.8642,-3.8642,-3.9036,-3.9299,-3.9315,-3.9315,-3.9166,-3.8825,-3.8444,-3.8044,-3.7668,-3.6637,-3.596,-3.5778,-3.5276,-3.47,-3.4611,-3.4659,-3.4667,-3.4667,-3.4586,-3.4497,-3.4472,-3.4308,-3.4201,-3.4217,-3.4151,-3.4101,-3.4101,-3.4101,-3.4101,-3.4101,-3.4101,-3.4101,-3.4084,-3.4101,-3.4101,-3.4165,-3.4683,-3.5049,-3.4748,-3.4586,-3.4716,-4.6911,-4.6862,-4.6277,-4.5565,-4.469,-4.3411,-4.2748,-4.2602,-4.2602,-4.2602,-4.2602,-4.2602,-4.2602,-4.2473,-4.1306,-4.0658,-4.0335,-3.9217,-3.8553,-3.8408,-3.8391,-3.8391,-3.8391,-3.8391,-3.81,-3.7533,-3.6869,-3.6394,-3.5982,-3.4972,-3.4657,-3.4974,-3.4273,-3.4031,-3.4356,-3.3296,-3.273,-3.2629,-3.0929,-2.9915,-2.9678,-2.9315,-2.9101,-2.9011,-2.8559,-2.8735,-2.9616,-2.9716,-3.0263,-3.1336,-3.1947,-3.2303,-3.2465,-3.2577,-3.2624,-3.2697,-3.3248,-3.3573,-3.3534,-3.3999,-3.43,-3.43,-3.4374,-3.4374,-3.4291,-3.4513,-3.5004,-3.5774,-3.6537,-3.72,-3.7898,-3.851,-3.8969,-3.8969,-3.9094,-3.9148,-3.9175,-3.9175,-3.9191,-3.9109,-3.8679,-3.8451,-3.8354,-3.7291,-3.6361,-3.6186,-3.5299,-3.4546,-3.4472,-3.4448,-3.4448,-3.4399,-3.4333,-3.4325,-3.43,-3.4201,-3.4126,-3.4101,-3.4101,-3.4101,-3.4101,-3.4101,-3.4101,-3.4101,-3.4101,-3.3987,-3.3922,-3.402,-3.3987,-3.3939,-3.436,-3.4741,-3.4295,-3.4165,-3.4133,-4.6911,-4.6911,-4.6795,-4.6002,-4.4755,-4.3929,-4.3185,-4.2635,-4.2602,-4.2602,-4.2602,-4.2602,-4.2602,-4.2505,-4.1792,-4.1096,-4.0464,-3.9748,-3.9023,-3.8412,-3.8391,-3.8391,-3.8363,-3.8391,-3.8375,-3.8153,-3.7506,-3.6561,-3.5604,-3.5318,-3.4939,-3.4604,-3.4976,-3.4907,-3.438,-3.3732,-3.3416,-3.3373,-3.2034,-3.1062,-3.0526,-3.0453,-3.0132,-2.9552,-2.9479,-2.9696,-3.0237,-3.0253,-3.1074,-3.2724,-3.2935,-3.3259,-3.3793,-3.389,-3.3915,-3.3883,-3.4104,-3.4252,-3.4333,-3.4341,-3.43,-3.4284,-3.4217,-3.4183,-3.419,-3.4783,-3.5535,-3.6434,-3.7216,-3.7828,-3.8592,-3.8756,-3.8832,-3.8805,-3.886,-3.886,-3.886,-3.8849,-3.8816,-3.886,-3.8745,-3.8537,-3.8045,-3.7576,-3.697,-3.588,-3.516,-3.4505,-3.4349,-3.4325,-3.43,-3.4201,-3.4226,-3.4275,-3.4275,-3.4201,-3.4101,-3.4101,-3.4101,-3.4101,-3.4101,-3.4101,-3.4101,-3.4101,-3.4101,-3.3922,-3.3647,-3.3615,-3.389,-3.3631,-3.3874,-3.4182,-3.4101,-3.3986,-3.3944,-4.6911,-4.6911,-4.6911,-4.6083,-4.4771,-4.4026,-4.3282,-4.2619,-4.2602,-4.2602,-4.2602,-4.2602,-4.2602,-4.2554,-4.1889,-4.1207,-4.0464,-3.9813,-3.8869,-3.7905,-3.8221,-3.8177,-3.7873,-3.825,-3.8221,-3.778,-3.7064,-3.6461,-3.5983,-3.5581,-3.5049,-3.4471,-3.4687,-3.4654,-3.4385,-3.4153,-3.3881,-3.3503,-3.2948,-3.2179,-3.1206,-3.0771,-3.0481,-3.0219,-3.019,-3.0628,-3.1393,-3.1211,-3.1847,-3.3498,-3.3347,-3.3434,-3.4059,-3.4101,-3.4101,-3.4101,-3.4151,-3.425,-3.439,-3.4325,-3.43,-3.43,-3.4657,-3.4834,-3.4822,-3.5768,-3.6632,-3.6988,-3.7308,-3.7763,-3.8474,-3.8628,-3.8683,-3.8683,-3.8766,-3.8805,-3.8805,-3.8805,-3.8805,-3.8805,-3.8788,-3.8668,-3.8242,-3.7769,-3.6885,-3.5707,-3.504,-3.4706,-3.4298,-3.4176,-3.4176,-3.4126,-3.4151,-3.4176,-3.4176,-3.4151,-3.4101,-3.4101,-3.4101,-3.4101,-3.4101,-3.4101,-3.4101,-3.4101,-3.4101,-3.4036,-3.3825,-3.3841,-3.3987,-3.3646,-3.3364,-3.3524,-3.355,-3.3233,-3.3138,-4.6911,-4.6911,-4.6911,-4.6067,-4.4771,-4.4237,-4.3476,-4.2651,-4.2602,-4.2602,-4.2602,-4.2602,-4.2602,-4.2522,-4.2083,-4.1387,-4.0496,-4.0008,-3.8913,-3.7585,-3.7902,-3.7873,-3.7476,-3.7873,-3.7873,-3.7397,-3.688,-3.6466,-3.6105,-3.5448,-3.4863,-3.4471,-3.4553,-3.4601,-3.4414,-3.438,-3.4196,-3.3761,-3.3605,-3.3006,-3.2077,-3.125,-3.0772,-3.0627,-3.0612,-3.1087,-3.2076,-3.1879,-3.2379,-3.3764,-3.3569,-3.3646,-3.4075,-3.4101,-3.4101,-3.4101,-3.4101,-3.4151,-3.4209,-3.425,-3.425,-3.4299,-3.4917,-3.5314,-3.5454,-3.6497,-3.7231,-3.7307,-3.7457,-3.789,-3.8278,-3.8492,-3.8548,-3.8532,-3.8628,-3.8711,-3.8694,-3.8711,-3.8683,-3.8694,-3.8683,-3.8655,-3.843,-3.7653,-3.6562,-3.5762,-3.5163,-3.4748,-3.4246,-3.4101,-3.4101,-3.4075,-3.3968,-3.3933,-3.405,-3.4101,-3.4101,-3.4101,-3.4101,-3.4101,-3.4101,-3.4101,-3.4101,-3.4101,-3.4101,-3.3914,-3.3614,-3.3711,-3.3739,-3.3582,-3.3269,-3.2943,-3.3003,-3.2547,-3.252,-4.6911,-4.6911,-4.6911,-4.6115,-4.4787,-4.4739,-4.3929,-4.2683,-4.2619,-4.2602,-4.2602,-4.2602,-4.2602,-4.2602,-4.2505,-4.1808,-4.0626,-4.048,-3.9411,-3.7652,-3.7569,-3.7462,-3.7417,-3.7447,-3.7417,-3.7222,-3.7114,-3.6538,-3.5452,-3.4786,-3.4451,-3.4438,-3.4971,-3.4957,-3.4467,-3.438,-3.4366,-3.4254,-3.3837,-3.346,-3.3227,-3.2106,-3.125,-3.0786,-3.0612,-3.0911,-3.1581,-3.2076,-3.2641,-3.3209,-3.3739,-3.4009,-3.4075,-3.4101,-3.4101,-3.4101,-3.4101,-3.4101,-3.4101,-3.4158,-3.4174,-3.4271,-3.4952,-3.5276,-3.5487,-3.6643,-3.7388,-3.7311,-3.7938,-3.8327,-3.8375,-3.8436,-3.842,-3.842,-3.842,-3.842,-3.842,-3.8448,-3.842,-3.842,-3.8448,-3.8448,-3.8387,-3.7209,-3.661,-3.6027,-3.5072,-3.423,-3.4149,-3.4101,-3.4075,-3.3933,-3.3672,-3.3449,-3.3933,-3.3958,-3.3984,-3.4009,-3.3958,-3.3984,-3.4075,-3.4101,-3.4075,-3.4009,-3.3958,-3.374,-3.3345,-3.3102,-3.3009,-3.2848,-3.2701,-3.2524,-3.2442,-3.2434,-3.2388,-4.6911,-4.6911,-4.6911,-4.6309,-4.5435,-4.4998,-4.4221,-4.3266,-4.2797,-4.2602,-4.2602,-4.2602,-4.2602,-4.2602,-4.2602,-4.2116,-4.1272,-4.1207,-4.0294,-3.8851,-3.8768,-3.8307,-3.7499,-3.7428,-3.6906,-3.6212,-3.6118,-3.5657,-3.4857,-3.449,-3.4372,-3.4409,-3.462,-3.462,-3.4448,-3.438,-3.438,-3.4351,-3.4167,-3.391,-3.3532,-3.3006,-3.2469,-3.1816,-3.0988,-3.1058,-3.2033,-3.1936,-3.2241,-3.3172,-3.3407,-3.3543,-3.3553,-3.3908,-3.4101,-3.4101,-3.4101,-3.4101,-3.4149,-3.4538,-3.4797,-3.4903,-3.5898,-3.6497,-3.6707,-3.742,-3.8019,-3.8051,-3.8197,-3.8391,-3.8391,-3.8391,-3.8391,-3.8391,-3.8391,-3.8391,-3.8391,-3.8391,-3.8391,-3.8391,-3.8391,-3.8391,-3.8311,-3.7938,-3.7323,-3.6432,-3.5817,-3.5046,-3.4295,-3.4101,-3.3984,-3.3604,-3.3355,-3.3261,-3.3449,-3.3501,-3.3527,-3.3646,-3.3646,-3.3455,-3.3403,-3.3806,-3.3882,-3.3298,-3.3335,-3.3313,-3.2809,-3.2635,-3.2477,-3.2364,-3.2189,-3.1964,-3.1888,-3.1827,-3.1797,-4.6911,-4.6911,-4.6911,-4.6342,-4.5467,-4.4998,-4.4237,-4.3331,-4.2813,-4.2602,-4.2571,-4.2349,-4.2365,-4.2539,-4.2365,-4.2013,-4.161,-4.1586,-4.0855,-3.9533,-3.9051,-3.8368,-3.7591,-3.7218,-3.6477,-3.5497,-3.5154,-3.4839,-3.4467,-3.438,-3.438,-3.4414,-3.438,-3.438,-3.438,-3.438,-3.438,-3.438,-3.438,-3.4196,-3.3823,-3.3605,-3.33,-3.2745,-3.1758,-3.1544,-3.234,-3.1829,-3.2018,-3.2997,-3.3198,-3.3277,-3.3517,-3.3866,-3.4101,-3.4101,-3.4101,-3.4101,-3.4182,-3.4781,-3.5195,-3.5276,-3.6465,-3.7295,-3.7328,-3.7987,-3.8343,-3.8391,-3.8391,-3.8391,-3.8391,-3.8391,-3.8391,-3.8391,-3.8391,-3.8391,-3.8391,-3.8391,-3.8391,-3.8391,-3.8391,-3.8391,-3.8298,-3.7754,-3.6977,-3.6082,-3.5664,-3.4812,-3.4057,-3.3984,-3.3984,-3.3569,-3.3355,-3.3251,-3.3198,-3.3135,-3.3188,-3.3293,-3.3371,-3.3097,-3.2846,-3.3298,-3.3324,-3.2738,-3.2492,-3.2504,-3.2394,-3.216,-3.2048,-3.1905,-3.1632,-3.1344,-3.1256,-3.118,-3.1227,-4.6911,-4.6911,-4.6911,-4.6147,-4.5046,-4.4836,-4.3978,-4.2894,-4.2651,-4.2602,-4.2523,-4.19,-4.2077,-4.2365,-4.1948,-4.1542,-4.1515,-4.1563,-4.0876,-3.9582,-3.8371,-3.7775,-3.7568,-3.6845,-3.607,-3.527,-3.4721,-3.4448,-3.4414,-3.438,-3.438,-3.438,-3.438,-3.438,-3.438,-3.438,-3.438,-3.438,-3.438,-3.4351,-3.4341,-3.3833,-3.3576,-3.3445,-3.2788,-3.2478,-3.2497,-3.1913,-3.2153,-3.3033,-3.3214,-3.3475,-3.3866,-3.405,-3.4101,-3.4101,-3.4101,-3.4101,-3.423,-3.4862,-3.5331,-3.5616,-3.6594,-3.7409,-3.7538,-3.8019,-3.8391,-3.8391,-3.8391,-3.8391,-3.8391,-3.8391,-3.8391,-3.8391,-3.8391,-3.8391,-3.8391,-3.8391,-3.8391,-3.8363,-3.8351,-3.8391,-3.8004,-3.6986,-3.5892,-3.5435,-3.4573,-3.3678,-3.3382,-3.362,-3.3984,-3.3806,-3.324,-3.2772,-3.2772,-3.2788,-3.2895,-3.2975,-3.3039,-3.2922,-3.2394,-3.2477,-3.2559,-3.2104,-3.1879,-3.1892,-3.1665,-3.1495,-3.1321,-3.1175,-3.0896,-3.0881,-3.0866,-3.0852,-3.0822,-4.6911,-4.6911,-4.6911,-4.6358,-4.5467,-4.4998,-4.4221,-4.3314,-4.2829,-4.2602,-4.2571,-4.2349,-4.2381,-4.2397,-4.1851,-4.1492,-4.1509,-4.1484,-4.1002,-4.0047,-3.9175,-3.8504,-3.7937,-3.6914,-3.5798,-3.4846,-3.4501,-3.438,-3.438,-3.438,-3.438,-3.438,-3.438,-3.438,-3.438,-3.438,-3.438,-3.438,-3.438,-3.438,-3.4399,-3.4225,-3.4109,-3.4051,-3.3514,-3.3325,-3.3645,-3.3078,-3.2933,-3.328,-3.3222,-3.3303,-3.3501,-3.3866,-3.4075,-3.4101,-3.4101,-3.436,-3.4887,-3.5525,-3.6157,-3.6675,-3.7489,-3.7987,-3.8068,-3.8246,-3.8363,-3.8363,-3.8391,-3.8391,-3.8391,-3.8391,-3.8391,-3.8391,-3.8391,-3.8391,-3.8391,-3.8363,-3.8391,-3.8335,-3.8004,-3.7947,-3.8003,-3.6873,-3.5774,-3.5387,-3.4749,-3.4085,-3.3047,-3.3135,-3.3055,-3.2489,-3.2185,-3.2213,-3.2185,-3.213,-3.2158,-3.2296,-3.2434,-3.2336,-3.1892,-3.1724,-3.1752,-3.1638,-3.1408,-3.1263,-3.1043,-3.0896,-3.0807,-3.0881,-3.0955,-3.0866,-3.0717,-3.0702,-3.0717,-4.6911,-4.6911,-4.6911,-4.6309,-4.5435,-4.4949,-4.4041,-4.2977,-4.2686,-4.246,-4.219,-4.1868,-4.1933,-4.1981,-4.1426,-4.0943,-4.0724,-4.0943,-4.0569,-3.9718,-3.9584,-3.904,-3.8222,-3.6758,-3.5655,-3.4871,-3.4501,-3.4414,-3.438,-3.438,-3.438,-3.438,-3.438,-3.438,-3.438,-3.438,-3.438,-3.438,-3.438,-3.438,-3.438,-3.438,-3.438,-3.4356,-3.4022,-3.4017,-3.4262,-3.3893,-3.3662,-3.3646,-3.3603,-3.3475,-3.332,-3.377,-3.4025,-3.3889,-3.4233,-3.4639,-3.4924,-3.5943,-3.6685,-3.7058,-3.783,-3.8375,-3.8363,-3.8234,-3.8033,-3.8033,-3.8004,-3.8033,-3.8033,-3.8278,-3.8363,-3.8391,-3.8391,-3.8391,-3.8363,-3.8193,-3.8033,-3.7873,-3.7431,-3.746,-3.7539,-3.6574,-3.5566,-3.5074,-3.4521,-3.383,-3.26,-3.2559,-3.2228,-3.2005,-3.2089,-3.1977,-3.1623,-3.1508,-3.1422,-3.1566,-3.1709,-3.1493,-3.1146,-3.1234,-3.1292,-3.1087,-3.0896,-3.0925,-3.0747,-3.0732,-3.0657,-3.0822,-3.094,-3.0807,-3.0672,-3.0777,-3.0748,-4.6911,-4.6911,-4.6828,-4.6034,-4.4901,-4.4641,-4.3489,-4.1962,-4.219,-4.211,-4.1525,-4.1044,-4.0943,-4.1211,-4.0656,-4.005,-3.9555,-4.005,-3.9647,-3.8918,-3.8983,-3.9043,-3.8042,-3.6461,-3.5561,-3.5259,-3.4679,-3.4414,-3.438,-3.438,-3.438,-3.438,-3.438,-3.438,-3.438,-3.438,-3.438,-3.438,-3.438,-3.438,-3.438,-3.438,-3.438,-3.438,-3.437,-3.4327,-3.4364,-3.428,-3.4254,-3.4296,-3.4148,-3.3892,-3.36,-3.3858,-3.3867,-3.3461,-3.4438,-3.4632,-3.4791,-3.5897,-3.6862,-3.6673,-3.7591,-3.8335,-3.8177,-3.7682,-3.7342,-3.7358,-3.7447,-3.7476,-3.7594,-3.7902,-3.8205,-3.8234,-3.8148,-3.8205,-3.8205,-3.7682,-3.7417,-3.7237,-3.6829,-3.66,-3.7114,-3.5619,-3.4673,-3.4257,-3.3434,-3.2486,-3.1868,-3.1864,-3.2231,-3.2104,-3.1766,-3.1595,-3.1204,-3.116,-3.1087,-3.1087,-3.1204,-3.1014,-3.0777,-3.0866,-3.0925,-3.0717,-3.0612,-3.0612,-3.0612,-3.0612,-3.0612,-3.0687,-3.0687,-3.0642,-3.0556,-3.0528,-3.0309,-4.6911,-4.6862,-4.6309,-4.5581,-4.4689,-4.3695,-4.2893,-4.227,-4.1916,-4.1689,-4.1426,-4.1311,-4.0943,-4.0622,-3.9929,-3.9484,-3.9391,-3.952,-3.9139,-3.8457,-3.899,-3.8639,-3.7636,-3.6603,-3.5811,-3.5371,-3.4738,-3.438,-3.438,-3.438,-3.438,-3.438,-3.438,-3.438,-3.438,-3.438,-3.438,-3.438,-3.438,-3.438,-3.438,-3.438,-3.438,-3.438,-3.438,-3.438,-3.438,-3.4374,-3.4369,-3.4374,-3.4303,-3.4237,-3.4075,-3.4077,-3.3979,-3.3871,-3.3768,-3.4181,-3.4916,-3.555,-3.6245,-3.7035,-3.7377,-3.7653,-3.7623,-3.7057,-3.6707,-3.6753,-3.7057,-3.7342,-3.7401,-3.7535,-3.746,-3.7087,-3.7294,-3.7413,-3.7101,-3.6783,-3.6677,-3.66,-3.604,-3.6026,-3.5984,-3.5018,-3.3744,-3.3591,-3.2933,-3.1992,-3.1393,-3.1321,-3.1724,-3.1234,-3.094,-3.0911,-3.0851,-3.0822,-3.0762,-3.0717,-3.0777,-3.0807,-3.0657,-3.0687,-3.0687,-3.0612,-3.0612,-3.0612,-3.0612,-3.0612,-3.0612,-3.0539,-3.0496,-3.0423,-3.0016,-2.9857,-2.9566,-4.6698,-4.6407,-4.5986,-4.5041,-4.384,-4.296,-4.2073,-4.1372,-4.1444,-4.1111,-4.0758,-4.0943,-4.0638,-3.9929,-3.9484,-3.9103,-3.8899,-3.9139,-3.8899,-3.8375,-3.8642,-3.8231,-3.7332,-3.662,-3.5981,-3.5392,-3.4719,-3.4443,-3.438,-3.438,-3.438,-3.438,-3.438,-3.438,-3.438,-3.438,-3.438,-3.438,-3.438,-3.438,-3.438,-3.438,-3.438,-3.438,-3.438,-3.438,-3.438,-3.4414,-3.4391,-3.4382,-3.4332,-3.4212,-3.403,-3.3889,-3.3721,-3.3478,-3.3301,-3.3696,-3.4399,-3.5009,-3.5753,-3.6429,-3.6768,-3.6966,-3.6875,-3.6384,-3.5992,-3.604,-3.6368,-3.6538,-3.6631,-3.6768,-3.6615,-3.6182,-3.6091,-3.6214,-3.6338,-3.6166,-3.6009,-3.5773,-3.5257,-3.482,-3.5412,-3.3984,-3.3276,-3.2916,-3.2459,-3.1616,-3.0911,-3.1058,-3.1087,-3.0777,-3.0612,-3.0687,-3.0717,-3.0717,-3.0717,-3.0642,-3.0612,-3.0612,-3.0525,-3.0539,-3.0569,-3.0569,-3.0598,-3.0554,-3.0452,-3.0394,-3.0394,-3.0322,-3.0292,-2.9958,-2.9508,-2.9189,-2.8913,-4.6308,-4.5577,-4.5496,-4.4369,-4.2796,-4.2422,-4.1355,-4.0111,-4.086,-4.0588,-3.9768,-4.005,-3.9874,-3.9211,-3.9066,-3.8789,-3.8263,-3.8826,-3.8694,-3.8345,-3.8184,-3.7789,-3.731,-3.662,-3.5967,-3.5378,-3.4719,-3.4457,-3.438,-3.438,-3.438,-3.438,-3.438,-3.438,-3.438,-3.438,-3.438,-3.438,-3.438,-3.438,-3.438,-3.438,-3.438,-3.438,-3.438,-3.438,-3.438,-3.438,-3.4394,-3.4385,-3.433,-3.4162,-3.3774,-3.3592,-3.3134,-3.2748,-3.2962,-3.3127,-3.3487,-3.4424,-3.511,-3.5301,-3.5889,-3.6214,-3.6043,-3.5586,-3.5317,-3.5302,-3.5367,-3.5518,-3.5416,-3.5811,-3.5581,-3.4986,-3.4515,-3.4874,-3.5534,-3.5463,-3.5108,-3.5061,-3.4006,-3.3806,-3.3695,-3.3198,-3.2318,-3.233,-3.1827,-3.1235,-3.0777,-3.0807,-3.0807,-3.0687,-3.0612,-3.0612,-3.0642,-3.0642,-3.0642,-3.0612,-3.0612,-3.0569,-3.0364,-3.0364,-3.0467,-3.0467,-3.0278,-3.0133,-3.0031,-3.0016,-2.9958,-2.9798,-2.9566,-2.9189,-2.8782,-2.8637,-2.839,-4.5293,-4.4111,-4.3536,-4.3038,-4.2437,-4.1395,-4.0913,-4.0909,-4.069,-4.0104,-3.9484,-3.9484,-3.9139,-3.8472,-3.8472,-3.83,-3.8188,-3.8412,-3.83,-3.8204,-3.768,-3.7476,-3.7143,-3.6577,-3.5967,-3.5378,-3.4719,-3.4395,-3.438,-3.438,-3.438,-3.438,-3.438,-3.438,-3.438,-3.438,-3.438,-3.438,-3.438,-3.438,-3.438,-3.438,-3.438,-3.438,-3.438,-3.438,-3.438,-3.438,-3.438,-3.4404,-3.4359,-3.4372,-3.4478,-3.3842,-3.3246,-3.2856,-3.2242,-3.212,-3.2661,-3.3366,-3.3924,-3.4055,-3.4836,-3.5384,-3.4841,-3.4715,-3.4599,-3.4721,-3.5041,-3.4959,-3.462,-3.4267,-3.3991,-3.3473,-3.3152,-3.3081,-3.3292,-3.3287,-3.3311,-3.3188,-3.2975,-3.2765,-3.2881,-3.2286,-3.1743,-3.1655,-3.1288,-3.0835,-3.0687,-3.0612,-3.0612,-3.0612,-3.0612,-3.0612,-3.0612,-3.0612,-3.0612,-3.051,-3.0467,-3.038,-3.0176,-3.0001,-3.0031,-2.9929,-2.9813,-2.9668,-2.9552,-2.9319,-2.9217,-2.9015,-2.8855,-2.8492,-2.8202,-2.8057,-2.7868,-4.3841,-4.3105,-4.2404,-4.1888,-4.1423,-4.0362,-3.9894,-3.9964,-3.9929,-3.9484,-3.8994,-3.9088,-3.8863,-3.824,-3.8202,-3.8202,-3.8202,-3.8202,-3.8202,-3.8072,-3.7593,-3.7157,-3.6707,-3.6214,-3.5683,-3.5305,-3.4704,-3.4443,-3.438,-3.4414,-3.438,-3.438,-3.4414,-3.438,-3.438,-3.438,-3.438,-3.438,-3.438,-3.438,-3.438,-3.438,-3.438,-3.438,-3.438,-3.438,-3.438,-3.438,-3.438,-3.4341,-3.4138,-3.4116,-3.4265,-3.3566,-3.2901,-3.237,-3.1663,-3.1397,-3.1928,-3.2327,-3.2712,-3.2992,-3.3731,-3.3746,-3.3593,-3.3503,-3.3503,-3.358,-3.3768,-3.3846,-3.3522,-3.3286,-3.2784,-3.2553,-3.2222,-3.2063,-3.2106,-3.2309,-3.2481,-3.2408,-3.228,-3.2106,-3.1845,-3.1467,-3.1222,-3.1111,-3.1096,-3.0657,-3.0657,-3.0612,-3.0612,-3.0612,-3.0612,-3.0612,-3.0612,-3.0612,-3.0612,-3.0438,-3.0205,-3.0031,-2.9827,-2.9639,-2.9508,-2.9334,-2.9174,-2.9116,-2.8985,-2.8723,-2.8434,-2.8318,-2.8101,-2.7839,-2.7607,-2.7432,-2.7287,-4.2404,-4.2071,-4.1418,-4.08,-4.02,-3.9606,-3.903,-3.862,-3.903,-3.8957,-3.8412,-3.8884,-3.8694,-3.8315,-3.8202,-3.8202,-3.8173,-3.8043,-3.7999,-3.8115,-3.7172,-3.6722,-3.6243,-3.5677,-3.5232,-3.5189,-3.4743,-3.4462,-3.4481,-3.4481,-3.4534,-3.4481,-3.4448,-3.4481,-3.4448,-3.4414,-3.438,-3.438,-3.438,-3.438,-3.438,-3.438,-3.438,-3.438,-3.438,-3.438,-3.438,-3.4399,-3.437,-3.4254,-3.3746,-3.3431,-3.305,-3.2687,-3.2133,-3.154,-3.1021,-3.095,-3.1299,-3.1529,-3.1835,-3.2266,-3.2513,-3.2469,-3.244,-3.2588,-3.2701,-3.2568,-3.2666,-3.2521,-3.2367,-3.2201,-3.2155,-3.2048,-3.1656,-3.1408,-3.1451,-3.1903,-3.2019,-3.2034,-3.1656,-3.1424,-3.1264,-3.1003,-3.0786,-3.0612,-3.0612,-3.0612,-3.0612,-3.0612,-3.0612,-3.0612,-3.0612,-3.0612,-3.0612,-3.019,-3.0278,-3.0118,-2.9856,-2.9508,-2.9247,-2.8956,-2.8695,-2.8623,-2.8507,-2.8448,-2.8331,-2.8055,-2.781,-2.7623,-2.7492,-2.7345,-2.7113,-2.6823,-2.6794,-4.1515,-3.9813,-3.9721,-3.9574,-3.9499,-3.9356,-3.9175,-3.9139,-3.9175,-3.8863,-3.8315,-3.8352,-3.8375,-3.8202,-3.8202,-3.8202,-3.8057,-3.7781,-3.7723,-3.7709,-3.6743,-3.5952,-3.6046,-3.5218,-3.4709,-3.4593,-3.4578,-3.4664,-3.465,-3.475,-3.4702,-3.4769,-3.465,-3.4631,-3.4563,-3.4481,-3.438,-3.438,-3.438,-3.438,-3.438,-3.438,-3.438,-3.438,-3.438,-3.438,-3.438,-3.4351,-3.4182,-3.3688,-3.3561,-3.289,-3.2193,-3.1816,-3.1613,-3.1366,-3.0916,-3.0714,-3.0843,-3.1235,-3.1206,-3.1279,-3.1787,-3.206,-3.193,-3.2075,-3.2222,-3.2222,-3.1915,-3.1654,-3.1625,-3.1366,-3.1033,-3.0932,-3.093,-3.08,-3.0859,-3.0975,-3.1135,-3.1179,-3.0946,-3.0845,-3.0816,-3.0801,-3.0699,-3.0612,-3.0612,-3.0612,-3.0612,-3.0612,-3.0612,-3.0612,-3.0612,-3.0612,-3.0612,-3.0031,-2.9726,-2.9552,-2.9261,-2.8695,-2.8391,-2.8058,-2.7855,-2.7882,-2.781,-2.7708,-2.7534,-2.7401,-2.7258,-2.7186,-2.7055,-2.6939,-2.6866,-2.6794,-2.6794,-3.9913,-3.9269,-3.8899,-3.8957,-3.9175,-3.8899,-3.8716,-3.873,-3.8716,-3.8546,-3.83,-3.8202,-3.8202,-3.8202,-3.8202,-3.8057,-3.7709,-3.7491,-3.7339,-3.7121,-3.6387,-3.5805,-3.5884,-3.4957,-3.4583,-3.4515,-3.465,-3.4683,-3.4597,-3.4731,-3.475,-3.465,-3.4597,-3.4563,-3.4515,-3.4448,-3.4414,-3.438,-3.438,-3.438,-3.438,-3.438,-3.438,-3.438,-3.438,-3.438,-3.438,-3.438,-3.4109,-3.359,-3.3151,-3.2469,-3.1743,-3.1221,-3.1032,-3.0988,-3.0786,-3.0612,-3.0612,-3.0917,-3.0888,-3.0743,-3.1266,-3.1337,-3.1192,-3.1293,-3.1569,-3.1467,-3.1351,-3.1032,-3.1018,-3.0772,-3.0641,-3.0612,-3.0612,-3.0612,-3.0612,-3.0612,-3.0612,-3.0612,-3.067,-3.0699,-3.067,-3.0641,-3.0627,-3.0612,-3.0612,-3.0612,-3.0612,-3.0612,-3.0598,-3.0423,-3.0365,-3.0147,-3.006,-2.9537,-2.9131,-2.9,-2.8652,-2.81,-2.7781,-2.7549,-2.7345,-2.7244,-2.7142,-2.7055,-2.7084,-2.7041,-2.6881,-2.6794,-2.6823,-2.6852,-2.6823,-2.6794,-2.6794,-3.8694,-3.9045,-3.8449,-3.856,-3.8921,-3.8472,-3.824,-3.8202,-3.824,-3.824,-3.8202,-3.8202,-3.8202,-3.8159,-3.8014,-3.7789,-3.7295,-3.7121,-3.6793,-3.6666,-3.6079,-3.5729,-3.5507,-3.4981,-3.4563,-3.4448,-3.4668,-3.4735,-3.4582,-3.4698,-3.4664,-3.4616,-3.4515,-3.4448,-3.4481,-3.4448,-3.4414,-3.438,-3.438,-3.438,-3.438,-3.438,-3.438,-3.438,-3.438,-3.438,-3.438,-3.4211,-3.3833,-3.3224,-3.2643,-3.2004,-3.138,-3.0843,-3.0627,-3.0612,-3.0612,-3.0612,-3.0612,-3.0627,-3.0685,-3.0627,-3.0612,-3.0627,-3.0656,-3.0757,-3.0714,-3.0612,-3.0641,-3.067,-3.0714,-3.0627,-3.0612,-3.0612,-3.0612,-3.0612,-3.0612,-3.0612,-3.0612,-3.0612,-3.0612,-3.0612,-3.0612,-3.0612,-3.0612,-3.0612,-3.0612,-3.0612,-3.0612,-3.0612,-3.0539,-3.0219,-2.9987,-2.9682,-2.9363,-2.8869,-2.8594,-2.8448,-2.8028,-2.749,-2.7302,-2.7157,-2.6997,-2.6881,-2.6562,-2.6518,-2.6605,-2.6779,-2.6794,-2.6794,-2.6794,-2.6779,-2.6806,-2.6779,-2.6794,-3.8826,-3.8337,-3.8225,-3.824,-3.8337,-3.824,-3.8202,-3.8202,-3.8202,-3.8202,-3.8202,-3.8202,-3.8188,-3.8051,-3.7535,-3.7405,-3.7106,-3.6456,-3.619,-3.6294,-3.5605,-3.5317,-3.5409,-3.4792,-3.4525,-3.4448,-3.4616,-3.4698,-3.4664,-3.475,-3.485,-3.475,-3.4616,-3.4631,-3.4563,-3.4448,-3.4414,-3.438,-3.438,-3.438,-3.438,-3.438,-3.438,-3.438,-3.438,-3.438,-3.4327,-3.3978,-3.3416,-3.273,-3.2034,-3.1366,-3.083,-3.067,-3.0612,-3.0612,-3.0612,-3.0612,-3.0612,-3.0612,-3.0612,-3.0612,-3.0612,-3.0612,-3.0612,-3.0612,-3.0612,-3.0612,-3.0612,-3.0612,-3.0612,-3.0612,-3.0612,-3.0612,-3.0612,-3.0612,-3.0612,-3.0612,-3.0612,-3.0612,-3.0612,-3.0612,-3.0612,-3.0612,-3.0612,-3.0612,-3.0612,-3.0598,-3.0539,-3.0496,-3.0176,-2.9784,-2.9377,-2.9029,-2.8724,-2.8245,-2.7956,-2.784,-2.7505,-2.7041,-2.6953,-2.6881,-2.6864,-2.6689,-2.6312,-2.6141,-2.6413,-2.6562,-2.6721,-2.6678,-2.6533,-2.6646,-2.6806,-2.6791,-2.6634,-3.8472,-3.8202,-3.8202,-3.8202,-3.8202,-3.8202,-3.8202,-3.8202,-3.8202,-3.8202,-3.8202,-3.8202,-3.8065,-3.7674,-3.6822,-3.6347,-3.6286,-3.5839,-3.5551,-3.5717,-3.5249,-3.5098,-3.5,-3.4728,-3.453,-3.4481,-3.4597,-3.4631,-3.4616,-3.4683,-3.475,-3.4616,-3.4549,-3.4515,-3.4578,-3.4448,-3.4414,-3.438,-3.438,-3.438,-3.438,-3.438,-3.438,-3.438,-3.438,-3.4366,-3.424,-3.3804,-3.318,-3.251,-3.1843,-3.1235,-3.0786,-3.0612,-3.0612,-3.0612,-3.0612,-3.0612,-3.0612,-3.0612,-3.0612,-3.0612,-3.0612,-3.0612,-3.0612,-3.0612,-3.0612,-3.0612,-3.0612,-3.0612,-3.0612,-3.0612,-3.0612,-3.0612,-3.0612,-3.0612,-3.0612,-3.0612,-3.0612,-3.0612,-3.0612,-3.0612,-3.0569,-3.0496,-3.0525,-3.0598,-3.0539,-3.0467,-3.0306,-3.0147,-2.9711,-2.9145,-2.8739,-2.8304,-2.7985,-2.7636,-2.7347,-2.7231,-2.7244,-2.6852,-2.6721,-2.6649,-2.6573,-2.6271,-2.5836,-2.5865,-2.6126,-2.601,-2.585,-2.601,-2.6213,-2.6162,-2.611,-2.6147,-2.5973,-3.8072,-3.8202,-3.8202,-3.8202,-3.8202,-3.8202,-3.8202,-3.8202,-3.8202,-3.8202,-3.8144,-3.8051,-3.7718,-3.7091,-3.6178,-3.5751,-3.5648,-3.5444,-3.5156,-3.5005,-3.4996,-3.4996,-3.4806,-3.4631,-3.4563,-3.4481,-3.453,-3.4563,-3.4563,-3.4549,-3.4549,-3.4395,-3.4709,-3.4559,-3.4501,-3.4603,-3.4675,-3.438,-3.438,-3.438,-3.438,-3.438,-3.438,-3.438,-3.4366,-3.4341,-3.4109,-3.3543,-3.2904,-3.2251,-3.1569,-3.0974,-3.067,-3.0612,-3.0612,-3.0612,-3.0612,-3.0612,-3.0612,-3.0612,-3.0612,-3.0612,-3.0612,-3.0612,-3.0612,-3.0612,-3.0612,-3.0612,-3.0612,-3.0612,-3.0612,-3.0612,-3.0612,-3.0612,-3.0612,-3.0612,-3.0598,-3.0554,-3.0569,-3.0612,-3.0612,-3.0612,-3.0539,-3.0394,-3.0409,-3.0539,-3.0496,-3.0322,-2.9987,-2.9653,-2.916,-2.8565,-2.8233,-2.7799,-2.7461,-2.7128,-2.6825,-2.6698,-2.6724,-2.663,-2.645,-2.6281,-2.6141,-2.5778,-2.5282,-2.4908,-2.478,-2.4832,-2.4916,-2.5249,-2.5459,-2.5344,-2.5304,-2.5315,-2.5283,-3.7694,-3.8202,-3.8173,-3.8159,-3.8173,-3.8202,-3.8188,-3.8043,-3.8144,-3.8144,-3.808,-3.7703,-3.7092,-3.6408,-3.5872,-3.5517,-3.5546,-3.5019,-3.4867,-3.4827,-3.4794,-3.4752,-3.4664,-3.4597,-3.4549,-3.4616,-3.4616,-3.4597,-3.4597,-3.4563,-3.4481,-3.4457,-3.4777,-3.4748,-3.4704,-3.4762,-3.4748,-3.4501,-3.438,-3.438,-3.438,-3.438,-3.438,-3.4399,-3.4356,-3.4138,-3.359,-3.2933,-3.2367,-3.1698,-3.1134,-3.0816,-3.0641,-3.0612,-3.0612,-3.0612,-3.0612,-3.0612,-3.0612,-3.0612,-3.0612,-3.0612,-3.0612,-3.0612,-3.0612,-3.0612,-3.0612,-3.0612,-3.0612,-3.0612,-3.0612,-3.0612,-3.0612,-3.0612,-3.0612,-3.0612,-3.0554,-3.0438,-3.0467,-3.0569,-3.0481,-3.0263,-3.0176,-2.9929,-3.0031,-3.0205,-2.9813,-2.9595,-2.9145,-2.8782,-2.8434,-2.7985,-2.7771,-2.7395,-2.7012,-2.6727,-2.6553,-2.6493,-2.6515,-2.6304,-2.6062,-2.5905,-2.5268,-2.5124,-2.4583,-2.4002,-2.3548,-2.3812,-2.4109,-2.4509,-2.4657,-2.4533,-2.4298,-2.4177,-2.4202,-3.6823,-3.7041,-3.7041,-3.7273,-3.7651,-3.7651,-3.7418,-3.7157,-3.7476,-3.7665,-3.7593,-3.7041,-3.6422,-3.5851,-3.5302,-3.5049,-3.5019,-3.4859,-3.4679,-3.4582,-3.4563,-3.4597,-3.4597,-3.465,-3.465,-3.4739,-3.4721,-3.475,-3.4802,-3.4543,-3.4582,-3.468,-3.4724,-3.4617,-3.4603,-3.4675,-3.4603,-3.453,-3.438,-3.438,-3.438,-3.438,-3.438,-3.4414,-3.3968,-3.3794,-3.3387,-3.2411,-3.1888,-3.1438,-3.0917,-3.0699,-3.0612,-3.0612,-3.0612,-3.0612,-3.0612,-3.0612,-3.0612,-3.0612,-3.0612,-3.0612,-3.0612,-3.0612,-3.0612,-3.0612,-3.0612,-3.0612,-3.0612,-3.0612,-3.0612,-3.0612,-3.0612,-3.0612,-3.0612,-3.0612,-3.0452,-3.0248,-3.0162,-3.0191,-2.9828,-2.9479,-2.9435,-2.9406,-2.961,-2.9769,-2.9305,-2.8812,-2.8307,-2.7918,-2.7575,-2.7248,-2.7008,-2.703,-2.6693,-2.6474,-2.6299,-2.6224,-2.6201,-2.5822,-2.5386,-2.4405,-2.3907,-2.3879,-2.3787,-2.3063,-2.2748,-2.2969,-2.3225,-2.3494,-2.3656,-2.3719,-2.3459,-2.3049,-2.3119,-3.6141,-3.6272,-3.6112,-3.6402,-3.6968,-3.6997,-3.6751,-3.6446,-3.6809,-3.6881,-3.6707,-3.627,-3.5767,-3.5258,-3.4946,-3.466,-3.4689,-3.4645,-3.4563,-3.4515,-3.4549,-3.4616,-3.4606,-3.4526,-3.4354,-3.4545,-3.4273,-3.4105,-3.4112,-3.4288,-3.4072,-3.4006,-3.4292,-3.4399,-3.4395,-3.438,-3.438,-3.438,-3.438,-3.438,-3.438,-3.4196,-3.4095,-3.3993,-3.3499,-3.3006,-3.2672,-3.1975,-3.1511,-3.1163,-3.0814,-3.0641,-3.0612,-3.0612,-3.0612,-3.0612,-3.0612,-3.0612,-3.0612,-3.0612,-3.0612,-3.0612,-3.0612,-3.0612,-3.0612,-3.0612,-3.0612,-3.0612,-3.0612,-3.0612,-3.0612,-3.0612,-3.0612,-3.0612,-3.0612,-3.0569,-3.0161,-2.9929,-2.9813,-2.9755,-2.9218,-2.8613,-2.834,-2.8297,-2.8369,-2.8598,-2.8594,-2.7963,-2.7225,-2.6913,-2.6731,-2.645,-2.6185,-2.6304,-2.6394,-2.6163,-2.5905,-2.5562,-2.5447,-2.503,-2.4438,-2.3445,-2.3063,-2.3406,-2.3066,-2.2124,-2.1949,-2.2197,-2.228,-2.2356,-2.2547,-2.2752,-2.2015,-2.1645,-2.2038,-3.572,-3.6199,-3.5654,-3.577,-3.6257,-3.633,-3.6272,-3.6127,-3.6272,-3.6054,-3.5683,-3.5583,-3.5234,-3.4704,-3.4612,-3.4597,-3.4563,-3.4631,-3.4631,-3.4549,-3.465,-3.4735,-3.4545,-3.4248,-3.402,-3.3777,-3.3478,-3.3147,-3.3064,-3.3448,-3.3263,-3.3198,-3.3678,-3.4221,-3.4337,-3.438,-3.438,-3.438,-3.438,-3.4366,-3.4196,-3.3833,-3.3692,-3.334,-3.2861,-3.2324,-3.1946,-3.1584,-3.1148,-3.08,-3.0714,-3.0612,-3.0612,-3.0612,-3.0612,-3.0612,-3.0612,-3.0612,-3.0612,-3.0612,-3.0612,-3.0612,-3.0612,-3.0612,-3.0612,-3.0612,-3.0612,-3.0612,-3.0612,-3.0612,-3.0612,-3.0598,-3.0598,-3.0467,-3.0438,-3.022,-2.9798,-2.9088,-2.8872,-2.8742,-2.8238,-2.7708,-2.7323,-2.7069,-2.7046,-2.7228,-2.7588,-2.7217,-2.6394,-2.6185,-2.6157,-2.5882,-2.566,-2.5633,-2.5756,-2.5727,-2.5507,-2.5108,-2.4655,-2.4211,-2.3638,-2.2809,-2.2694,-2.2965,-2.2289,-2.1303,-2.128,-2.142,-2.1532,-2.1654,-2.1629,-2.158,-2.0774,-2.0661,-2.1444,-3.4864,-3.5024,-3.482,-3.4849,-3.5096,-3.5503,-3.5459,-3.5169,-3.5444,-3.5595,-3.5436,-3.5461,-3.5063,-3.4608,-3.4481,-3.4549,-3.4616,-3.4631,-3.4631,-3.4721,-3.4725,-3.4817,-3.4534,-3.4002,-3.3727,-3.3738,-3.3216,-3.2698,-3.297,-3.3001,-3.2937,-3.2934,-3.3024,-3.3616,-3.4182,-3.438,-3.438,-3.438,-3.4337,-3.4225,-3.3819,-3.3561,-3.3242,-3.2832,-3.2176,-3.1698,-3.1422,-3.1163,-3.0859,-3.0641,-3.0612,-3.0612,-3.0612,-3.0612,-3.0612,-3.0612,-3.0612,-3.0612,-3.0612,-3.0612,-3.0612,-3.0612,-3.0612,-3.0612,-3.0612,-3.0612,-3.0612,-3.0553,-3.0435,-3.048,-3.0612,-3.0553,-3.0451,-2.9987,-2.9813,-2.9523,-2.903,-2.8097,-2.7527,-2.7484,-2.7169,-2.6594,-2.616,-2.5811,-2.5735,-2.5994,-2.6357,-2.6481,-2.5882,-2.5922,-2.5936,-2.5592,-2.5314,-2.5175,-2.5078,-2.4928,-2.4819,-2.4477,-2.3903,-2.3333,-2.2704,-2.201,-2.1768,-2.1767,-2.1143,-2.0547,-2.0708,-2.0856,-2.0906,-2.0968,-2.1102,-2.1321,-2.1129,-2.1264,-2.1827,-3.438,-3.438,-3.438,-3.438,-3.4472,-3.4864,-3.4777,-3.4516,-3.4849,-3.5072,-3.5024,-3.5043,-3.4889,-3.4569,-3.4515,-3.4582,-3.475,-3.4783,-3.4453,-3.4556,-3.4464,-3.4259,-3.3918,-3.3489,-3.2991,-3.3013,-3.257,-3.2099,-3.2024,-3.2253,-3.2453,-3.2521,-3.2341,-3.2803,-3.3456,-3.3819,-3.3877,-3.3819,-3.3717,-3.3732,-3.3253,-3.2846,-3.2542,-3.2092,-3.1613,-3.1163,-3.1076,-3.0874,-3.0612,-3.0612,-3.0612,-3.0612,-3.0612,-3.0612,-3.0612,-3.0612,-3.0612,-3.0612,-3.0612,-3.0612,-3.0612,-3.0612,-3.0612,-3.0612,-3.0612,-3.0612,-3.0387,-3.0283,-3.0094,-2.9814,-2.9681,-2.9711,-2.9326,-2.8795,-2.8653,-2.8353,-2.784,-2.6833,-2.6567,-2.6466,-2.6113,-2.5561,-2.5021,-2.4677,-2.4411,-2.4761,-2.5118,-2.5203,-2.5342,-2.5398,-2.5356,-2.4979,-2.4739,-2.4599,-2.4296,-2.396,-2.3858,-2.3781,-2.3136,-2.2326,-2.1775,-2.1108,-2.0859,-2.066,-2.0585,-2.0446,-2.027,-2.0295,-2.0396,-2.0572,-2.0771,-2.1042,-2.1372,-2.1612,-2.1851,-3.4399,-3.4385,-3.4385,-3.4341,-3.4327,-3.4269,-3.4312,-3.4399,-3.4428,-3.4457,-3.4443,-3.4535,-3.4593,-3.4679,-3.4698,-3.4691,-3.4703,-3.4736,-3.4321,-3.3918,-3.385,-3.3495,-3.2976,-3.2372,-3.2194,-3.1696,-3.1316,-3.1155,-3.0802,-3.1297,-3.1833,-3.2094,-3.1731,-3.1975,-3.244,-3.2875,-3.3006,-3.305,-3.318,-3.305,-3.2571,-3.2002,-3.1772,-3.1409,-3.1032,-3.0816,-3.0728,-3.0641,-3.0612,-3.0612,-3.0612,-3.0612,-3.0612,-3.0612,-3.0612,-3.0538,-3.0507,-3.0312,-3.0282,-3.0221,-3.0251,-3.0146,-3.0211,-3.0434,-3.0404,-3.0181,-2.969,-2.9306,-2.8959,-2.8383,-2.7999,-2.7682,-2.7352,-2.7171,-2.7102,-2.6758,-2.6318,-2.5888,-2.5753,-2.5515,-2.5081,-2.4567,-2.4047,-2.3649,-2.3767,-2.4031,-2.435,-2.4221,-2.4366,-2.4551,-2.4423,-2.4079,-2.3936,-2.3942,-2.3595,-2.3069,-2.2708,-2.2571,-2.1902,-2.1185,-2.0668,-2.0475,-2.045,-2.0459,-2.051,-2.0409,-2.0156,-2.0003,-1.9927,-2.0131,-2.0396,-2.0585,-2.0845,-2.108,-2.1251,-3.4153,-3.3779,-3.3765,-3.347,-3.3093,-3.3147,-3.3642,-3.4341,-3.4563,-3.4597,-3.4631,-3.4716,-3.4735,-3.4835,-3.4765,-3.4538,-3.4306,-3.4041,-3.3674,-3.3395,-3.3157,-3.2991,-3.2577,-3.1972,-3.1676,-3.1355,-3.1006,-3.0642,-3.0656,-3.0903,-3.0932,-3.1033,-3.1092,-3.1134,-3.138,-3.1772,-3.2106,-3.2411,-3.2643,-3.2353,-3.1959,-3.1555,-3.125,-3.0946,-3.0772,-3.0612,-3.0612,-3.0612,-3.0612,-3.0612,-3.0612,-3.0612,-3.0612,-3.0582,-3.0507,-2.9884,-2.9484,-2.9079,-2.9111,-2.9097,-2.9122,-2.9063,-2.8819,-2.9223,-2.9327,-2.9139,-2.8549,-2.8188,-2.7734,-2.7186,-2.6823,-2.6476,-2.6109,-2.5904,-2.5837,-2.5609,-2.522,-2.5072,-2.4926,-2.4784,-2.4337,-2.4018,-2.3424,-2.3305,-2.3442,-2.359,-2.3619,-2.3531,-2.3531,-2.3767,-2.3826,-2.3505,-2.3174,-2.3205,-2.2636,-2.2066,-2.1644,-2.1237,-2.0792,-2.0449,-2.0257,-2.0169,-2.0195,-2.0207,-2.0207,-2.0131,-1.9978,-1.985,-1.9798,-1.9798,-2.0029,-2.0156,-2.0334,-2.0585,-2.0734,-3.3427,-3.3122,-3.3079,-3.2861,-3.2556,-3.2657,-3.3121,-3.3678,-3.42,-3.4501,-3.4668,-3.4783,-3.4802,-3.4725,-3.4471,-3.4182,-3.4006,-3.3539,-3.3035,-3.2551,-3.2372,-3.2061,-3.178,-3.1547,-3.1299,-3.108,-3.0994,-3.0791,-3.0702,-3.0612,-3.0641,-3.067,-3.0612,-3.0612,-3.0786,-3.1092,-3.1337,-3.1656,-3.1845,-3.1656,-3.1424,-3.1163,-3.0872,-3.0714,-3.0612,-3.0612,-3.0568,-3.0568,-3.0582,-3.0507,-3.0447,-3.019,-3.0099,-2.9931,-2.9701,-2.9083,-2.8618,-2.8315,-2.8234,-2.7984,-2.7921,-2.7714,-2.7328,-2.7408,-2.767,-2.7636,-2.7294,-2.696,-2.6468,-2.6029,-2.5767,-2.5497,-2.5137,-2.4774,-2.4682,-2.4577,-2.4389,-2.42,-2.4102,-2.4044,-2.3826,-2.3573,-2.3305,-2.3185,-2.3125,-2.3305,-2.3365,-2.3305,-2.3275,-2.3395,-2.3514,-2.3382,-2.2841,-2.2472,-2.1845,-2.1383,-2.1073,-2.0773,-2.0433,-2.0142,-1.9926,-1.9901,-1.9978,-1.9952,-1.9875,-1.9824,-1.9862,-1.9824,-1.9798,-1.9798,-1.9798,-1.9927,-2.008,-2.0207,-2.0308,-3.2466,-3.2425,-3.235,-3.2295,-3.2385,-3.2409,-3.2465,-3.2576,-3.3407,-3.4103,-3.4409,-3.4526,-3.4457,-3.4255,-3.3867,-3.3639,-3.3319,-3.2857,-3.2297,-3.1728,-3.1607,-3.1342,-3.1066,-3.0746,-3.0967,-3.0939,-3.0895,-3.0821,-3.0762,-3.0672,-3.0612,-3.0612,-3.0612,-3.0612,-3.0641,-3.0685,-3.0874,-3.1004,-3.1206,-3.1206,-3.0799,-3.0611,-3.0538,-3.0612,-3.0612,-3.0582,-3.0507,-3.0477,-3.0507,-3.0221,-2.9931,-2.9515,-2.9188,-2.877,-2.842,-2.7998,-2.7449,-2.7247,-2.7037,-2.6823,-2.6702,-2.6458,-2.6118,-2.5883,-2.6003,-2.6188,-2.595,-2.5664,-2.5192,-2.4801,-2.4503,-2.4313,-2.4009,-2.3893,-2.3842,-2.379,-2.3709,-2.3649,-2.3738,-2.3662,-2.3514,-2.3275,-2.3215,-2.3095,-2.3095,-2.3168,-2.3168,-2.3095,-2.305,-2.311,-2.3014,-2.3005,-2.2329,-2.1794,-2.1568,-2.1131,-2.0729,-2.0391,-2.0102,-1.9976,-1.9862,-1.9824,-1.9798,-1.9798,-1.9798,-1.9798,-1.9824,-1.9798,-1.9798,-1.9798,-1.9798,-1.9798,-1.9875,-1.9978,-2.0003,-3.2191,-3.1714,-3.1235,-3.1107,-3.1199,-3.1244,-3.1566,-3.1975,-3.2307,-3.2777,-3.3179,-3.3348,-3.3441,-3.3454,-3.3164,-3.2857,-3.2343,-3.2105,-3.1473,-3.1154,-3.0963,-3.0963,-3.0791,-3.0851,-3.0881,-3.0851,-3.0821,-3.0836,-3.0702,-3.0642,-3.0612,-3.0612,-3.0612,-3.0612,-3.0612,-3.0582,-3.0522,-3.0506,-3.038,-3.0555,-3.0414,-3.0129,-3.0007,-3.0312,-3.0507,-3.019,-3.0023,-2.9825,-2.947,-2.9079,-2.8921,-2.8561,-2.8163,-2.7506,-2.6948,-2.6433,-2.6017,-2.5799,-2.5645,-2.5508,-2.5379,-2.5195,-2.4885,-2.4582,-2.4524,-2.4648,-2.4615,-2.4351,-2.405,-2.3662,-2.3412,-2.3226,-2.3095,-2.3095,-2.3095,-2.3095,-2.3095,-2.3245,-2.3395,-2.3305,-2.3185,-2.3125,-2.3095,-2.3095,-2.3095,-2.3095,-2.3125,-2.3045,-2.2844,-2.2774,-2.2426,-2.2254,-2.1536,-2.1081,-2.1018,-2.079,-2.0402,-2.0189,-1.9937,-1.9849,-1.9798,-1.9798,-1.9798,-1.9798,-1.9798,-1.9798,-1.9798,-1.9798,-1.9798,-1.9798,-1.9798,-1.9798,-1.9798,-1.9875,-1.985,-3.1438,-3.1076,-3.0727,-3.0642,-3.0702,-3.0762,-3.0966,-3.1243,-3.1408,-3.1599,-3.1944,-3.2507,-3.2849,-3.2683,-3.2411,-3.2117,-3.1591,-3.1267,-3.1004,-3.0729,-3.0628,-3.0687,-3.0791,-3.0895,-3.0866,-3.0821,-3.0791,-3.0762,-3.0672,-3.0642,-3.0612,-3.0582,-3.0582,-3.0538,-3.0507,-3.0357,-3.016,-3.0129,-2.967,-2.9501,-2.9732,-2.9608,-2.9453,-2.9794,-2.9594,-2.9421,-2.9314,-2.9083,-2.8742,-2.8058,-2.7624,-2.6935,-2.6485,-2.6045,-2.5711,-2.5358,-2.4931,-2.4456,-2.4362,-2.4261,-2.4148,-2.3998,-2.3885,-2.3719,-2.3664,-2.3816,-2.3816,-2.3599,-2.3573,-2.3238,-2.3238,-2.3108,-2.3095,-2.3095,-2.3095,-2.3095,-2.3095,-2.3155,-2.3215,-2.3185,-2.3125,-2.3125,-2.3095,-2.3095,-2.3095,-2.3095,-2.3095,-2.2819,-2.2644,-2.2305,-2.1995,-2.1606,-2.0981,-2.0729,-2.0805,-2.049,-1.9999,-1.9836,-1.9798,-1.9798,-1.9798,-1.9798,-1.9798,-1.9798,-1.9798,-1.9798,-1.9798,-1.9798,-1.9798,-1.9798,-1.9798,-1.9798,-1.9798,-1.9798,-1.9798,-3.0641,-3.0642,-3.0612,-3.0612,-3.0642,-3.0732,-3.0717,-3.0657,-3.0776,-3.0791,-3.0921,-3.2035,-3.238,-3.208,-3.1729,-3.1526,-3.1188,-3.0688,-3.0489,-3.0462,-3.0433,-3.0403,-3.0507,-3.0732,-3.0806,-3.0644,-3.0452,-3.0599,-3.0702,-3.0511,-3.0335,-3.045,-3.0447,-3.0403,-3.019,-2.9839,-2.9453,-2.9219,-2.8794,-2.8247,-2.8505,-2.8985,-2.8889,-2.8666,-2.8505,-2.846,-2.8427,-2.8219,-2.7976,-2.7264,-2.6388,-2.5708,-2.5192,-2.4919,-2.4747,-2.445,-2.4148,-2.3916,-2.3816,-2.3534,-2.3346,-2.3183,-2.3095,-2.3108,-2.3133,-2.3145,-2.3145,-2.3133,-2.3108,-2.3095,-2.3095,-2.3095,-2.3095,-2.3095,-2.3095,-2.3095,-2.3095,-2.3095,-2.3095,-2.3095,-2.3095,-2.3095,-2.307,-2.307,-2.2995,-2.3007,-2.2832,-2.2569,-2.2243,-2.1794,-2.1408,-2.1106,-2.0654,-2.0528,-2.0515,-2.0277,-1.9798,-1.9798,-1.9798,-1.9798,-1.9798,-1.9798,-1.9798,-1.9798,-1.9798,-1.9798,-1.9798,-1.9798,-1.9798,-1.9798,-1.9798,-1.9798,-1.9798,-1.9798,-1.9798,-3.0657,-3.0732,-3.0642,-3.0672,-3.0732,-3.0672,-3.0628,-3.0642,-3.0732,-3.0762,-3.0835,-3.1072,-3.1262,-3.099,-3.0979,-3.089,-3.0781,-3.0233,-2.996,-2.9946,-3.0023,-3.0007,-3.0056,-3.0287,-3.0777,-3.0425,-2.9822,-2.9701,-2.9881,-2.9811,-2.9763,-2.9709,-2.9766,-2.9504,-2.8943,-2.8662,-2.8575,-2.8315,-2.8174,-2.774,-2.7472,-2.786,-2.8168,-2.8266,-2.8505,-2.8149,-2.7795,-2.7261,-2.6681,-2.6019,-2.5377,-2.4722,-2.4343,-2.4098,-2.3979,-2.3772,-2.3489,-2.3464,-2.3296,-2.3208,-2.3095,-2.3095,-2.3095,-2.3095,-2.3108,-2.3108,-2.312,-2.312,-2.3095,-2.3095,-2.3095,-2.3095,-2.3095,-2.3095,-2.3095,-2.3095,-2.3095,-2.3095,-2.3095,-2.3095,-2.3095,-2.3045,-2.297,-2.2819,-2.2493,-2.2406,-2.2159,-2.1895,-2.1707,-2.1282,-2.0842,-2.0566,-2.0289,-2.0088,-1.9949,-2.0049,-1.9798,-1.9798,-1.9798,-1.9798,-1.9798,-1.9798,-1.9798,-1.9798,-1.9798,-1.9798,-1.9798,-1.9798,-1.9798,-1.9798,-1.9798,-1.9798,-1.9798,-1.9798,-1.9798]}]]